[[{"header":{"parameterUnit":"m.s-1","parameterCategory":1,"la1":30.6,"la2":29.2853,"lo1":-89.7004,"lo2":-87.6739,"dy":0.0162,"dx":0.0183,"nx":112,"ny":82,"refTime":"2026-05-04T12:00:00:Z","depth":0,"parameterNumber":2,"parameterNumberName":"U-component_of_WINDS"},"data":[0.0,0.0,0.0,0.0,0.0,0.0,0.0,0.0,0.0,0.0,0.0,0.0,0.0,0.0,0.0,0.0,0.0,0.0,0.0,0.0,0.0,0.0,0.0,0.0,0.0,0.0,0.0,0.0,0.0,0.0,0.0,0.0,0.0,0.0,0.0,0.0,0.0,0.0,0.0,0.0,0.0,0.0,0.0,0.0,0.0,0.0,0.0,0.0,0.0,0.0,0.0,0.0,0.0,0.0,0.0,0.0,0.0,0.0,0.0,0.0,0.0,0.0,0.0,0.0,0.0,0.0,0.0,0.0,0.0,0.0,0.0,0.0,0.0,0.0,0.0,0.0,0.0,0.0,0.0,0.0,0.0,0.0,0.0,0.0,0.0,0.0,0.0,0.0,0.0,0.0,-6.4843,-6.7342,-7.1753,-7.446,-7.4328,-7.3357,-6.9894,-6.3247,0.0,0.0,0.0,0.0,0.0,0.0,0.0,0.0,0.0,0.0,0.0,0.0,0.0,0.0,0.0,0.0,0.0,0.0,0.0,0.0,0.0,0.0,0.0,0.0,0.0,0.0,0.0,0.0,0.0,0.0,0.0,0.0,0.0,0.0,0.0,0.0,0.0,0.0,0.0,0.0,0.0,0.0,0.0,0.0,0.0,0.0,0.0,0.0,0.0,0.0,0.0,0.0,0.0,0.0,0.0,0.0,0.0,0.0,0.0,0.0,0.0,0.0,0.0,0.0,0.0,0.0,0.0,0.0,0.0,0.0,0.0,0.0,0.0,0.0,0.0,0.0,0.0,0.0,0.0,0.0,0.0,0.0,0.0,0.0,0.0,0.0,0.0,0.0,0.0,0.0,0.0,0.0,0.0,0.0,0.0,0.0,0.0,0.0,0.0,0.0,0.0,0.0,0.0,0.0,-6.4453,-7.0543,-7.3197,-7.4215,-7.3557,-7.1984,-6.871,-6.3227,0.0,0.0,0.0,0.0,0.0,0.0,0.0,0.0,0.0,0.0,0.0,0.0,0.0,0.0,0.0,0.0,0.0,0.0,0.0,0.0,0.0,0.0,0.0,0.0,0.0,0.0,0.0,0.0,0.0,0.0,0.0,0.0,0.0,0.0,0.0,0.0,0.0,0.0,0.0,0.0,0.0,0.0,0.0,0.0,0.0,0.0,0.0,0.0,0.0,0.0,0.0,0.0,0.0,0.0,0.0,0.0,0.0,0.0,0.0,0.0,0.0,0.0,0.0,0.0,0.0,0.0,0.0,0.0,0.0,0.0,0.0,0.0,0.0,0.0,0.0,0.0,0.0,0.0,0.0,0.0,0.0,0.0,0.0,0.0,0.0,0.0,0.0,0.0,0.0,0.0,0.0,0.0,0.0,0.0,0.0,0.0,0.0,0.0,0.0,0.0,0.0,0.0,0.0,-6.254,-6.5936,-7.1402,-7.226,-7.2495,-7.2573,-7.0572,-6.7265,-6.249,-6.0889,0.0,0.0,0.0,0.0,0.0,0.0,0.0,0.0,0.0,0.0,0.0,0.0,0.0,0.0,0.0,0.0,0.0,0.0,0.0,0.0,0.0,0.0,0.0,0.0,0.0,0.0,0.0,0.0,0.0,0.0,0.0,0.0,0.0,0.0,0.0,0.0,0.0,0.0,0.0,0.0,0.0,0.0,0.0,0.0,0.0,0.0,0.0,0.0,0.0,0.0,0.0,0.0,0.0,0.0,0.0,0.0,0.0,0.0,0.0,0.0,0.0,0.0,0.0,0.0,0.0,0.0,0.0,0.0,0.0,0.0,0.0,0.0,0.0,0.0,0.0,0.0,0.0,0.0,0.0,0.0,0.0,0.0,0.0,0.0,0.0,0.0,0.0,0.0,0.0,0.0,0.0,0.0,0.0,0.0,0.0,0.0,0.0,0.0,0.0,0.0,0.0,0.0,-6.4843,-6.7303,-7.0972,-7.0777,-7.066,-7.1324,-6.881,-6.5585,-6.1828,-5.9371,0.0,0.0,0.0,0.0,0.0,0.0,0.0,0.0,0.0,0.0,0.0,0.0,0.0,0.0,0.0,0.0,0.0,0.0,0.0,0.0,0.0,0.0,0.0,0.0,0.0,0.0,0.0,0.0,0.0,0.0,0.0,0.0,0.0,0.0,0.0,0.0,0.0,0.0,0.0,0.0,0.0,0.0,0.0,0.0,0.0,0.0,0.0,0.0,0.0,0.0,0.0,0.0,0.0,0.0,0.0,0.0,0.0,0.0,0.0,0.0,0.0,0.0,0.0,0.0,0.0,0.0,0.0,0.0,0.0,0.0,0.0,0.0,0.0,0.0,0.0,0.0,0.0,0.0,0.0,0.0,0.0,0.0,0.0,0.0,0.0,0.0,0.0,0.0,0.0,0.0,0.0,0.0,0.0,0.0,0.0,0.0,0.0,0.0,0.0,0.0,0.0,0.0,-6.4219,-6.7459,-6.9372,-6.9528,-6.9528,-6.9567,-6.6488,-6.3738,-6.1716,-5.7679,0.0,0.0,0.0,0.0,0.0,0.0,0.0,0.0,0.0,0.0,0.0,0.0,0.0,0.0,0.0,0.0,0.0,0.0,0.0,0.0,0.0,0.0,0.0,0.0,0.0,0.0,0.0,0.0,0.0,0.0,0.0,0.0,0.0,0.0,0.0,0.0,0.0,0.0,0.0,0.0,0.0,0.0,0.0,0.0,0.0,0.0,0.0,0.0,0.0,0.0,0.0,0.0,0.0,0.0,0.0,0.0,0.0,0.0,0.0,0.0,0.0,0.0,0.0,0.0,0.0,0.0,0.0,0.0,0.0,0.0,0.0,0.0,0.0,0.0,0.0,0.0,0.0,0.0,0.0,0.0,0.0,0.0,0.0,0.0,0.0,0.0,0.0,0.0,0.0,0.0,0.0,0.0,0.0,0.0,0.0,0.0,0.0,0.0,0.0,0.0,0.0,0.0,-6.2891,-6.6092,-6.8357,-6.8591,-6.8357,-6.781,-6.6131,-6.3416,-5.9491,0.0,0.0,0.0,0.0,0.0,0.0,0.0,0.0,0.0,0.0,0.0,0.0,0.0,0.0,0.0,0.0,0.0,0.0,0.0,0.0,0.0,0.0,0.0,0.0,0.0,0.0,0.0,0.0,0.0,0.0,0.0,0.0,0.0,0.0,0.0,0.0,0.0,0.0,0.0,0.0,0.0,0.0,0.0,0.0,0.0,0.0,0.0,0.0,0.0,0.0,0.0,0.0,0.0,0.0,0.0,0.0,0.0,0.0,0.0,0.0,0.0,0.0,0.0,0.0,0.0,0.0,0.0,0.0,0.0,0.0,0.0,0.0,0.0,0.0,0.0,0.0,0.0,0.0,0.0,0.0,0.0,0.0,0.0,0.0,0.0,0.0,0.0,0.0,0.0,0.0,0.0,0.0,0.0,0.0,0.0,0.0,0.0,0.0,0.0,0.0,0.0,0.0,-5.8324,-6.1954,-6.5077,-6.7107,-6.7537,-6.7459,-6.6834,-6.5312,-6.259,-5.8471,0.0,0.0,0.0,0.0,0.0,0.0,0.0,0.0,0.0,0.0,0.0,0.0,0.0,0.0,0.0,0.0,0.0,0.0,0.0,0.0,0.0,0.0,0.0,0.0,0.0,0.0,0.0,0.0,0.0,0.0,0.0,0.0,0.0,0.0,0.0,0.0,0.0,0.0,0.0,0.0,0.0,0.0,0.0,0.0,0.0,0.0,0.0,0.0,0.0,0.0,0.0,0.0,0.0,0.0,0.0,0.0,0.0,0.0,0.0,0.0,0.0,0.0,0.0,0.0,0.0,0.0,0.0,0.0,0.0,0.0,0.0,0.0,0.0,0.0,0.0,0.0,0.0,0.0,0.0,0.0,0.0,0.0,0.0,0.0,0.0,0.0,0.0,0.0,0.0,0.0,0.0,0.0,0.0,0.0,0.0,0.0,0.0,0.0,0.0,0.0,0.0,0.0,-5.7582,-6.1603,-6.4648,-6.5507,-6.6327,-6.6795,-6.6756,-6.3672,-6.0952,0.0,0.0,0.0,0.0,0.0,0.0,0.0,0.0,0.0,0.0,0.0,0.0,0.0,0.0,0.0,0.0,0.0,0.0,0.0,0.0,0.0,0.0,0.0,0.0,0.0,0.0,0.0,0.0,0.0,0.0,0.0,0.0,0.0,0.0,0.0,0.0,0.0,0.0,0.0,0.0,0.0,0.0,0.0,0.0,0.0,0.0,0.0,0.0,0.0,0.0,0.0,0.0,0.0,0.0,0.0,0.0,0.0,0.0,0.0,0.0,0.0,0.0,0.0,0.0,0.0,0.0,0.0,0.0,0.0,0.0,0.0,0.0,0.0,0.0,0.0,0.0,0.0,0.0,0.0,0.0,0.0,0.0,0.0,0.0,0.0,0.0,0.0,0.0,0.0,0.0,0.0,0.0,0.0,0.0,0.0,0.0,0.0,0.0,0.0,0.0,0.0,0.0,0.0,-5.8324,-6.1993,-6.4846,-6.6288,-6.6678,-6.6327,-6.5158,-6.4101,-6.149,-5.6737,0.0,0.0,0.0,0.0,0.0,0.0,0.0,0.0,0.0,0.0,0.0,0.0,0.0,0.0,0.0,0.0,0.0,0.0,0.0,0.0,0.0,0.0,0.0,0.0,0.0,0.0,0.0,0.0,0.0,0.0,0.0,0.0,0.0,0.0,0.0,0.0,0.0,0.0,0.0,0.0,0.0,0.0,0.0,0.0,0.0,0.0,0.0,0.0,0.0,0.0,0.0,0.0,0.0,0.0,0.0,0.0,0.0,0.0,0.0,0.0,0.0,0.0,0.0,0.0,0.0,0.0,0.0,0.0,0.0,0.0,0.0,0.0,0.0,0.0,0.0,0.0,0.0,0.0,0.0,0.0,0.0,0.0,0.0,0.0,0.0,0.0,0.0,0.0,0.0,0.0,0.0,0.0,0.0,0.0,0.0,0.0,0.0,0.0,0.0,0.0,0.0,0.0,-5.8207,-6.1915,-6.4807,-6.617,-6.66,-6.6249,-6.4921,-6.4179,-6.1486,-5.6177,0.0,0.0,0.0,0.0,0.0,0.0,0.0,0.0,0.0,0.0,0.0,0.0,0.0,0.0,0.0,0.0,0.0,0.0,0.0,0.0,0.0,0.0,0.0,0.0,0.0,0.0,0.0,0.0,0.0,0.0,0.0,0.0,0.0,0.0,0.0,0.0,0.0,0.0,0.0,0.0,0.0,0.0,0.0,0.0,0.0,0.0,0.0,0.0,0.0,0.0,0.0,0.0,0.0,0.0,0.0,0.0,0.0,0.0,0.0,0.0,0.0,0.0,0.0,0.0,0.0,0.0,0.0,0.0,0.0,0.0,0.0,0.0,0.0,0.0,0.0,0.0,0.0,0.0,0.0,0.0,0.0,0.0,0.0,0.0,0.0,0.0,0.0,0.0,0.0,0.0,0.0,0.0,0.0,0.0,0.0,0.0,0.0,0.0,0.0,0.0,0.0,0.0,-5.7582,-6.164,-6.4604,-6.5507,-6.6249,-6.6327,-6.5429,-6.3828,-6.1095,-5.6879,0.0,0.0,0.0,0.0,0.0,0.0,0.0,0.0,0.0,0.0,0.0,0.0,0.0,0.0,0.0,0.0,0.0,0.0,0.0,0.0,0.0,0.0,0.0,0.0,0.0,0.0,0.0,0.0,0.0,0.0,0.0,0.0,0.0,0.0,0.0,0.0,0.0,0.0,0.0,0.0,0.0,0.0,0.0,0.0,0.0,0.0,0.0,0.0,0.0,0.0,0.0,0.0,0.0,0.0,0.0,0.0,0.0,0.0,0.0,0.0,-6.3694,-6.0939,0.0,0.0,0.0,0.0,0.0,0.0,0.0,0.0,0.0,0.0,0.0,0.0,0.0,0.0,0.0,0.0,0.0,0.0,0.0,0.0,0.0,0.0,0.0,0.0,0.0,0.0,0.0,0.0,0.0,0.0,0.0,0.0,0.0,0.0,0.0,0.0,0.0,0.0,0.0,0.0,-5.8395,-6.1872,-6.4474,-6.5502,-6.5741,-6.5234,-6.3672,-6.2579,-6.0432,-5.684,-5.3951,0.0,0.0,0.0,0.0,0.0,0.0,0.0,0.0,0.0,0.0,0.0,0.0,0.0,0.0,0.0,0.0,0.0,0.0,0.0,0.0,0.0,0.0,0.0,0.0,0.0,0.0,0.0,0.0,0.0,0.0,0.0,0.0,0.0,0.0,0.0,0.0,0.0,0.0,0.0,0.0,0.0,0.0,0.0,0.0,0.0,0.0,0.0,0.0,0.0,0.0,0.0,0.0,0.0,0.0,0.0,0.0,0.0,0.0,0.0,-6.6205,-6.4047,0.0,0.0,0.0,0.0,0.0,0.0,0.0,0.0,0.0,0.0,0.0,0.0,0.0,0.0,0.0,0.0,0.0,0.0,0.0,0.0,0.0,0.0,0.0,0.0,0.0,0.0,0.0,0.0,0.0,0.0,0.0,0.0,0.0,0.0,0.0,0.0,0.0,0.0,0.0,0.0,-5.7836,-6.0872,-6.3192,-6.4559,-6.4681,-6.413,-6.279,-6.1573,-5.9958,-5.7779,-5.4492,0.0,0.0,0.0,0.0,0.0,0.0,0.0,0.0,0.0,0.0,0.0,0.0,0.0,0.0,0.0,0.0,0.0,0.0,0.0,0.0,0.0,0.0,0.0,0.0,0.0,0.0,0.0,0.0,0.0,0.0,0.0,0.0,0.0,0.0,0.0,0.0,0.0,0.0,0.0,0.0,0.0,0.0,0.0,0.0,0.0,0.0,0.0,0.0,0.0,0.0,0.0,0.0,0.0,-7.1349,-7.193,-7.2666,-7.3248,-7.2705,-7.1233,-6.8955,-6.7915,-6.7634,-6.5382,0.0,0.0,0.0,0.0,0.0,0.0,0.0,0.0,0.0,0.0,0.0,0.0,0.0,0.0,0.0,0.0,0.0,0.0,0.0,0.0,0.0,0.0,-5.9549,-5.8725,-6.0002,-6.0218,-5.5986,0.0,0.0,0.0,0.0,0.0,0.0,0.0,0.0,0.0,0.0,0.0,-5.7159,-5.9735,-6.1818,-6.3309,-6.3356,-6.2874,-6.1942,-6.0544,-5.9471,-5.879,-5.5239,-5.2827,0.0,0.0,0.0,0.0,0.0,0.0,0.0,0.0,0.0,0.0,0.0,0.0,0.0,0.0,0.0,0.0,0.0,0.0,0.0,0.0,0.0,0.0,0.0,0.0,0.0,0.0,0.0,0.0,0.0,0.0,0.0,0.0,-6.8475,-6.7821,0.0,0.0,0.0,0.0,0.0,0.0,0.0,0.0,0.0,0.0,0.0,0.0,0.0,-6.9335,-7.1568,-7.3135,-7.3996,-7.4112,-7.6346,-7.7463,-7.754,-7.6962,-7.6577,-7.6307,-7.519,0.0,-6.8549,-6.7518,0.0,0.0,0.0,0.0,0.0,0.0,0.0,0.0,0.0,0.0,0.0,0.0,0.0,0.0,0.0,0.0,0.0,0.0,0.0,0.0,0.0,0.0,-6.3104,-6.2998,-6.2538,-6.1774,-6.036,-5.7808,-5.5228,-5.3456,-5.1865,-5.0506,0.0,0.0,0.0,0.0,0.0,0.0,-5.7899,-5.9963,-6.1402,-6.2361,-6.1904,-6.1135,-6.0197,-5.9266,-5.8645,-5.8537,-5.6621,-5.5087,-5.4211,-5.1009,0.0,0.0,0.0,0.0,0.0,0.0,0.0,0.0,0.0,0.0,0.0,0.0,0.0,0.0,0.0,0.0,0.0,0.0,0.0,0.0,0.0,0.0,0.0,0.0,0.0,0.0,0.0,0.0,0.0,-6.8155,-7.0244,-6.7936,-6.8936,-6.8436,0.0,0.0,0.0,0.0,0.0,0.0,0.0,0.0,0.0,-7.2437,-7.2629,-7.3668,-7.5707,-7.6476,-7.7092,-7.7592,-7.8707,-7.9477,-7.9939,-7.9592,-7.9169,-7.8669,-7.7784,-7.595,-7.3353,-7.0595,-6.8225,-6.6109,0.0,0.0,0.0,0.0,-6.247,-6.2237,-6.3325,-6.3363,-6.2897,-6.2354,0.0,0.0,0.0,0.0,0.0,0.0,0.0,-5.9085,-6.0807,-6.2418,-6.3756,-6.4144,-6.4282,-6.3935,-6.2585,-6.1173,-5.9099,-5.5477,-5.455,-5.3353,-5.0085,-4.9761,0.0,0.0,0.0,-5.3842,-5.6607,-5.7959,-5.9181,-6.0464,-5.9886,-5.9595,-6.0096,-5.8978,-5.8693,-5.9649,-5.8201,-5.6932,-5.6098,-5.3699,-5.1362,0.0,0.0,0.0,0.0,0.0,0.0,0.0,0.0,0.0,0.0,0.0,0.0,0.0,0.0,0.0,0.0,0.0,0.0,0.0,0.0,0.0,0.0,0.0,0.0,0.0,0.0,0.0,0.0,-6.9321,-7.1398,-6.8436,-7.0514,-7.0552,0.0,0.0,0.0,0.0,0.0,0.0,-7.2437,-7.2745,-7.4014,-7.6553,-7.7053,-7.8015,-7.9438,-7.9246,-7.9477,-8.0131,-8.0131,-8.0477,-8.1093,-8.1093,-8.0516,-7.9438,-7.8784,-7.79,-7.6669,-7.3053,-7.0375,-6.8401,-6.6714,-6.5459,-6.4704,-6.5324,-6.5169,-6.4936,-6.6805,-6.6931,-6.6108,-6.5681,-6.4102,-6.2047,-6.014,0.0,0.0,0.0,0.0,-6.0067,-6.2326,-6.3327,-6.3979,-6.4742,-6.5436,-6.5474,-6.3974,-6.3474,-6.2012,-5.7511,-5.7011,-5.5972,-5.1741,-5.1769,0.0,-5.0875,-5.2184,-5.4053,-5.6066,-5.6856,-5.7707,-5.9115,-5.8502,-5.8386,-5.9352,-5.8375,-5.8256,-5.9571,-5.8765,-5.7888,-5.7091,-5.5605,-5.3628,-5.1112,0.0,0.0,0.0,0.0,0.0,0.0,0.0,0.0,0.0,0.0,0.0,0.0,0.0,0.0,0.0,0.0,0.0,0.0,0.0,0.0,0.0,0.0,0.0,0.0,0.0,0.0,0.0,0.0,0.0,-7.0937,-7.3707,0.0,0.0,0.0,0.0,-7.0667,-7.1514,-7.3437,-7.6784,-7.7707,-7.9285,-8.1823,-8.1208,-8.1246,-8.2093,-8.1362,-8.0977,-8.1016,-8.1016,-8.1054,-8.1093,-8.1093,-8.0169,-7.8554,-7.853,-7.7553,-7.5938,-7.413,-7.2822,-7.1811,-7.0104,-6.8424,-6.6936,-6.6974,-6.6974,-6.6936,-6.709,-6.6589,-6.605,-6.6743,-6.478,-6.2098,-6.1982,-6.07,0.0,0.0,-6.1278,-6.2317,-6.4037,-6.4525,-6.4756,-6.5628,-6.5859,-6.5628,-6.4743,-6.3897,-6.2512,-5.9819,-5.8742,-5.7627,-5.5703,0.0,-5.3405,-5.4126,-5.3584,-5.4298,-5.7568,-5.8016,-5.8311,-5.9008,-5.845,-5.766,-5.6868,-5.6715,-5.6728,-5.6804,-5.7506,-5.7544,-5.6677,-5.5823,-5.4214,-5.1802,-4.9269,0.0,0.0,0.0,0.0,0.0,0.0,0.0,0.0,0.0,0.0,0.0,0.0,0.0,0.0,0.0,0.0,0.0,0.0,0.0,0.0,0.0,0.0,0.0,0.0,0.0,0.0,0.0,0.0,-7.3476,-7.6861,0.0,-7.3322,-7.3937,-7.4707,-7.5014,-7.6322,-7.8092,-8.04,-8.0785,-8.1631,-8.3093,-8.2324,-8.2016,-8.2285,-8.1516,-8.1093,-8.1093,-8.1093,-8.1093,-8.1093,-8.1093,-8.0439,-7.9323,-7.8746,-7.7861,-7.6746,-7.5592,-7.4591,-7.363,-7.1975,-7.0591,-6.9552,-6.9552,-6.9206,-6.8859,-6.936,-6.9013,-6.8205,-6.7359,-6.5936,-6.4436,-6.3858,-6.3281,-6.2858,-6.3166,-6.3474,-6.3974,-6.5128,-6.5436,-6.5513,-6.582,-6.5897,-6.5513,-6.4089,-6.3512,-6.2704,-6.0704,-6.0127,-5.9011,-5.6203,-5.6126,-5.6049,-5.4703,-5.5111,-5.5758,-5.6426,-5.6891,-5.7289,-5.7545,-5.683,-5.6613,-5.7351,-5.6931,-5.6587,-5.6587,-5.6893,-5.6434,-5.5059,-5.4715,-5.3632,-5.1702,-4.9707,-4.7614,0.0,0.0,0.0,0.0,0.0,0.0,0.0,0.0,0.0,0.0,0.0,0.0,0.0,0.0,0.0,0.0,0.0,0.0,0.0,0.0,0.0,0.0,0.0,0.0,0.0,-7.3399,-7.6207,-7.5668,-7.9092,-8.0169,-7.6746,-7.7746,-7.8669,-7.8977,-8.0015,-8.1246,-8.267,-8.3016,-8.3324,-8.3593,-8.3016,-8.2593,-8.2285,-8.1516,-8.1093,-8.1093,-8.1093,-8.0939,-8.0669,-8.0669,-8.0054,-7.8938,-7.8361,-7.763,-7.6784,-7.5938,-7.5207,-7.4553,-7.3168,-7.1937,-7.0898,-7.0898,-7.0552,-7.0129,-7.0398,-6.9937,-6.909,-6.7898,-6.7167,-6.659,-6.5705,-6.5436,-6.5397,-6.5128,-6.5051,-6.5166,-6.5743,-6.5897,-6.5897,-6.5897,-6.5667,-6.5128,-6.4012,-6.3281,-6.2551,-6.1435,-6.1012,-5.9973,-5.7434,-5.7923,-5.7901,-5.5643,-5.618,-5.6621,-5.6057,-5.6383,-5.6665,-5.6665,-5.6155,-5.6129,-5.7008,-5.6243,-5.5861,-5.6167,-5.5632,-5.483,-5.3722,-5.3416,-5.2461,-5.0779,-4.9098,-4.7264,-4.5288,0.0,0.0,0.0,0.0,0.0,0.0,0.0,0.0,0.0,0.0,0.0,0.0,0.0,0.0,0.0,0.0,0.0,0.0,0.0,0.0,0.0,0.0,0.0,-7.0898,-7.4668,-7.74,-7.7438,-8.04,-8.1785,-8.0131,-8.0708,-8.1516,-8.2285,-8.2324,-8.2708,-8.3555,-8.4401,-8.4478,-8.3632,-8.3555,-8.3131,-8.2324,-8.1516,-8.1093,-8.1093,-8.1054,-8.0631,-7.9823,-7.9785,-7.8861,-7.7284,-7.7284,-7.6823,-7.5938,-7.5053,-7.4707,-7.4591,-7.3783,-7.2437,-7.0937,-7.0898,-7.0898,-7.0783,-6.9975,-6.9167,-6.8423,-6.8423,-6.8436,-6.8244,-6.7398,-6.7128,-6.6936,-6.6128,-6.5897,-6.5897,-6.5897,-6.5897,-6.5897,-6.5859,-6.5205,-6.4589,-6.4551,-6.3243,-6.2101,-6.2062,-6.1358,-6.0512,-5.9665,-5.9453,-5.8842,-5.719,-5.6815,0.0,-5.6652,-5.6639,-5.6587,-5.6511,-5.6524,-5.6205,-5.5441,-5.4562,-5.4409,-5.5288,-5.3683,-5.2728,-5.2728,-5.1964,-5.0779,-4.9148,-4.7379,-4.6118,-4.5288,0.0,0.0,0.0,0.0,0.0,0.0,0.0,0.0,0.0,0.0,0.0,0.0,0.0,0.0,0.0,0.0,0.0,0.0,0.0,0.0,0.0,-7.1283,-7.3399,-7.363,-7.6823,-7.9554,-8.0785,-8.3362,-8.467,-8.3593,-8.3708,-8.367,-8.3247,-8.3247,-8.3362,-8.3593,-8.3824,-8.3862,-8.3593,-8.2978,-8.2554,-8.2285,-8.1516,-8.1093,-8.1093,-8.0477,-8.0054,-7.9785,-7.9131,-7.8284,-7.7284,-7.7284,-7.6823,-7.5938,-7.5053,-7.4361,-7.3745,-7.2899,-7.2245,-7.1783,-7.1129,-7.0898,-7.0783,-6.9975,-6.9552,-6.936,-6.936,-6.8936,-6.8359,-6.8129,-6.759,-6.6936,-6.6128,-6.5897,-6.5897,-6.5897,-6.5897,-6.5743,-6.5128,-6.4782,-6.4282,-6.3051,-6.2447,-6.1908,-6.1293,-6.0899,-6.0645,-6.0414,-5.9814,-5.9022,-5.7937,-5.771,-5.7188,-5.5924,-5.6257,-5.6129,-5.4906,-5.4791,-5.4715,-5.4486,-5.3645,-5.3263,-5.3492,-5.1926,-5.1009,-5.1009,-5.0206,-4.9557,-4.911,-4.7379,-4.6118,0.0,0.0,0.0,0.0,0.0,0.0,0.0,0.0,0.0,0.0,0.0,0.0,0.0,0.0,0.0,0.0,0.0,0.0,0.0,0.0,0.0,0.0,-7.4322,-7.6438,-7.6784,-7.8861,-8.0977,-8.2631,-8.4478,-8.5555,-8.544,-8.5401,-8.5055,-8.4209,-8.4132,-8.3824,-8.3093,-8.3401,-8.3285,-8.2554,-8.2401,-8.2131,-8.1785,-8.1323,-8.0939,-8.0554,-8.0054,-7.9438,-7.8746,-7.8207,-7.7553,-7.6746,-7.6746,-7.6245,-7.5399,-7.4553,-7.3707,0.0,0.0,0.0,0.0,0.0,-7.0398,-7.0321,-6.986,-6.9706,-6.9744,-7.009,-6.9629,-6.8898,-6.85,-6.7782,-6.6936,-6.6128,-6.5897,-6.5897,-6.5897,-6.5628,-6.5243,-6.4705,-6.4051,-6.3281,-6.2332,-6.1831,-6.1408,-6.0896,-6.0465,0.0,-6.0123,-5.9664,-5.891,-5.771,-5.7456,-5.692,-5.5568,-5.5811,-5.5708,-5.4753,-5.4639,-5.4639,-5.4639,-5.3492,0.0,0.0,0.0,-5.0168,-4.9824,-4.8984,0.0,0.0,0.0,0.0,0.0,0.0,0.0,0.0,-4.6077,-4.6031,0.0,0.0,0.0,0.0,0.0,0.0,0.0,0.0,0.0,0.0,0.0,0.0,0.0,0.0,0.0,0.0,-7.7053,-7.8938,-7.9823,-8.0592,-8.167,-8.3247,-8.4209,-8.5016,-8.5747,-8.5824,-8.5517,-8.4824,-8.467,-8.3939,-8.2362,-8.2939,0.0,0.0,0.0,-8.1823,-8.1093,-8.1016,-8.0554,-7.9823,-7.9631,-7.8746,-7.7284,-7.7207,-7.6746,-7.5976,-7.5899,-7.5399,-7.463,-7.3745,-7.2822,-7.2052,-7.2052,-7.1591,-7.0783,-7.0014,-6.9706,-6.9706,-6.9706,0.0,0.0,-7.0514,-7.0206,-6.9398,-6.8513,-6.7667,-6.6821,-6.609,-6.5897,-6.5859,-6.5782,-6.5166,-6.4551,-6.4359,-6.3166,-6.2062,-6.1985,-6.1281,-6.0666,-6.0666,-5.9888,-5.9202,-5.9063,-5.9039,-5.8527,-5.692,-5.6639,-5.632,-5.5517,-5.5403,-5.5365,-5.525,0.0,0.0,-5.5045,-5.3569,-5.2908,-5.3671,-5.1521,-4.9916,-4.9148,-4.8449,-4.8056,-4.7941,-4.7941,-4.8296,-4.8945,-4.9071,-4.911,-4.9071,-4.6778,-4.657,0.0,0.0,0.0,0.0,0.0,0.0,0.0,0.0,0.0,0.0,0.0,0.0,0.0,0.0,0.0,-7.6476,-7.8361,-7.9862,-8.0746,-8.0977,-8.1477,-8.2439,-8.3324,-8.3901,-8.4055,-8.4093,-8.4016,-8.3862,-8.3208,-8.267,-8.2324,-8.1823,-8.1439,-8.1093,-8.1246,-8.1246,-8.1093,-8.04,-7.9977,-7.9785,-7.8438,0.0,-7.7284,-7.6553,-7.6169,-7.5976,-7.5245,-7.4861,-7.4591,-7.3053,-7.1937,-7.1168,-7.1168,-7.1052,-7.0783,-7.0014,-6.9706,-6.9706,-6.9706,-6.9706,-6.9744,-6.9898,-6.936,-6.8475,-6.7628,-6.6782,0.0,-6.5936,-6.5897,-6.5743,-6.5013,-6.4743,-6.4243,-6.2897,-6.2332,-6.1908,-6.1204,-6.0358,-5.9742,-5.9742,-5.9042,-5.8203,-5.7414,-5.7813,-5.7864,-5.6779,-5.66,-5.632,-5.5517,-5.5403,-5.5135,-5.4448,-5.4333,-5.3976,-5.2986,-5.1985,-5.1395,-5.1262,-5.0406,-4.9645,-4.9137,-4.9557,-4.9519,-4.8869,-4.8831,-4.8602,-4.8067,-4.8754,-4.911,-4.911,-4.8575,-4.8536,0.0,0.0,0.0,0.0,0.0,0.0,0.0,0.0,0.0,0.0,0.0,-7.321,-7.449,0.0,-7.7284,-7.9438,-8.0169,-8.0592,-8.1054,-8.1093,-8.14,-8.2208,-8.267,-8.3131,-8.3555,-8.3593,-8.3401,-8.2978,-8.2554,-8.2131,-8.1708,-8.1323,-8.1093,-8.1093,-8.0669,-8.0439,-8.0439,-7.9592,-7.8938,-7.8554,-7.7707,-7.7053,-7.663,-7.5745,-7.5361,-7.5284,-7.4476,-7.386,-7.336,-7.2052,-7.1283,-7.086,-7.0475,-7.0283,-7.0206,-6.936,-6.9321,-6.9629,-6.9206,-6.959,-7.0244,-6.9821,-6.9129,-6.8244,-6.7359,-6.6551,-6.5897,-6.5897,-6.559,-6.5166,-6.4705,-6.3974,-6.3128,-6.2293,-6.1793,-6.132,-6.0896,-6.0127,-5.9511,-5.9511,-5.8427,-5.742,-5.6925,-5.6764,-5.655,-5.6065,-5.6014,-5.5771,-5.5165,-5.5113,-5.4714,-5.3698,-5.3608,-5.3171,-5.2137,-5.1292,-5.0591,-5.0009,-4.9694,-4.9424,-4.9197,-4.9759,-4.986,-4.9442,-4.9613,-4.948,-4.906,-4.948,-4.971,-4.971,-4.971,-4.971,0.0,0.0,0.0,0.0,0.0,0.0,0.0,-7.2938,-7.3145,-7.4848,-7.5927,-7.7106,-7.8975,-7.9407,-8.0123,-8.2009,-8.1762,-8.1285,-8.1131,-8.1093,-8.1323,-8.1977,-8.2054,-8.2324,-8.3054,-8.3093,-8.2824,-8.2131,-8.2054,-8.1785,-8.1131,-8.0939,-8.0862,-8.0862,-8.0015,-7.9554,-7.9554,-7.8707,-7.7938,-7.7284,-7.713,-7.6592,-7.5707,-7.5014,-7.463,-7.4437,-7.3591,-7.2745,-7.1898,-7.1206,-7.0821,-7.0591,-6.9937,-6.9475,-6.9129,-6.8398,-6.8706,-6.936,-6.8629,-6.9167,-7.009,-6.959,-6.8859,-6.7975,-6.7128,-6.6397,-6.5897,-6.5897,-6.5282,-6.4551,-6.4397,-6.3243,-6.2062,-6.1908,-6.132,-6.0742,-6.0589,-5.9858,-5.9204,-5.905,-5.7747,-5.6675,-5.6664,-5.5945,-5.5415,-5.539,-5.5403,-5.526,-5.4836,-5.4655,-5.4193,-5.3198,-5.294,-5.2473,-5.1544,-5.0675,-4.9872,-4.9246,-4.9209,-4.924,-4.9302,-4.9556,-4.9683,-4.9683,-4.9987,-5.01,-5.01,-5.01,-5.0125,-5.0212,-5.0212,-5.0236,-6.7305,-6.7851,-6.9492,-7.1132,-7.2092,-7.3868,0.0,-7.8854,-7.8667,-8.0216,-8.1733,-8.268,-8.2203,-8.2685,-8.2971,-8.2471,-8.2255,-8.19,-8.1208,-8.1093,-8.1131,-8.1208,-8.1246,-8.1285,-8.1362,-8.1362,-8.1323,-8.1246,-8.1246,-8.1208,-8.1093,-8.0362,-7.9939,-7.9939,-7.9092,-7.8631,-7.8631,-7.7823,-7.74,-7.7284,-7.6515,-7.5707,-7.4861,-7.4745,-7.4322,-7.3591,-7.2706,-7.186,-7.1052,-7.0937,-7.0475,-6.9821,-6.9744,-6.8744,-6.7359,-6.7282,-6.7782,-6.8552,-6.8423,-6.8013,-6.7628,-6.8321,-6.7975,-6.709,-6.6282,-6.5974,-6.5897,-6.5897,-6.5282,-6.4436,-6.3666,-6.2781,-6.1908,-6.1127,-6.0858,-6.0589,-5.9819,-5.9011,-5.8204,-5.7445,-5.6511,-5.5835,-5.5742,-5.5597,-5.5488,-5.5415,-5.5403,-5.526,-5.4836,-5.4177,-5.3581,-5.316,-5.2414,-5.1511,-5.0368,-4.9233,-4.8624,-4.885,-4.8867,-4.8982,-4.9302,-4.9348,-4.9363,-4.9363,-4.9409,-4.9424,-4.9424,-4.9424,-4.9556,-4.9857,-4.9857,-5.0025,-7.0781,-7.1133,-7.2344,-7.5078,-7.6708,-7.8387,-8.1512,-8.1771,-8.1689,-8.2793,-8.3863,-8.4512,-8.4122,-8.431,-8.4396,-8.4003,-8.3457,-8.281,-8.19,-8.1785,-8.1631,-8.117,-8.1093,-8.1093,-8.1093,-8.1093,-8.1093,-8.1093,-8.1093,-8.1093,-8.1093,-8.0285,-7.9823,-7.9823,-7.8515,-7.7784,-7.7784,-7.6938,-7.6553,-7.6515,-7.5668,-7.5053,-7.4668,-7.3707,-7.2783,-7.1975,-7.1591,-7.1245,-7.086,-7.0398,-7.0014,-6.959,-6.859,-6.8052,-6.7782,-6.7282,-6.7321,-6.7628,-6.7628,-6.7744,-6.7821,-6.7705,-6.7398,-6.6936,-6.6128,-6.5897,-6.5782,-6.5282,-6.4512,-6.3666,-6.282,-6.1973,-6.1243,-6.0896,-6.0781,-6.055,-5.9704,-5.8858,-5.805,-5.7176,-5.6291,-5.5703,-5.5671,-5.5593,-5.5425,-5.5198,-5.5102,-5.4743,-5.3934,-5.3311,-5.2496,-5.1212,-5.0267,-4.9583,-4.9067,-4.8585,-4.8363,-4.8495,-4.8514,-4.8587,-4.8711,-4.8898,-4.8999,-4.8999,-4.9209,-4.9317,-4.9317,-4.9317,-4.9378,-4.9512,-4.9735,-4.987,-7.2539,-7.3633,-7.539,-7.8125,-8.0228,-8.2003,-8.3744,-8.3989,-8.4054,-8.4824,-8.5331,-8.563,-8.5577,-8.552,-8.5396,-8.5105,-8.4481,-8.3665,-8.2486,-8.2301,-8.2016,-8.1208,-8.1093,-8.1093,-8.1093,-8.1093,-8.1093,-8.1093,-8.1093,-8.1016,-8.0746,-7.99,-7.9323,-7.9131,-7.7707,-7.6938,-7.6938,-7.6092,-7.563,-7.563,-7.4784,-7.4245,-7.3976,-7.2514,-7.1514,-7.0898,-7.0898,-7.0783,-7.0552,-7.0167,-6.9744,-6.9244,-6.8205,-6.7898,-6.7975,-6.759,-6.7475,-6.7475,-6.7475,-6.7705,-6.7936,-6.7321,-6.6936,-6.6667,-6.609,-6.5743,-6.5397,-6.4782,-6.382,-6.282,-6.2255,-6.1447,-6.0781,-6.0781,-6.0781,-6.0512,-5.9396,-5.8704,-5.7973,-5.6868,-5.6126,-5.5703,-5.5703,-5.5508,-5.5275,-5.5026,-5.4708,-5.4107,-5.3086,-5.2195,-5.1044,-4.941,-4.8673,-4.8306,-4.8306,-4.8306,-4.8306,-4.8306,-4.8306,-4.8306,-4.8306,-4.8532,-4.864,-4.864,-4.8881,-4.9031,-4.9031,-4.9031,-4.908,-4.9177,-4.9409,-4.957,-7.1211,-7.4492,-7.8555,-7.9453,-8.1601,-8.3943,-8.5549,-8.5921,-8.609,-8.676,-8.6839,-8.6739,-8.6739,-8.6582,-8.6191,-8.5341,-8.5057,-8.4373,-8.264,-8.2332,-8.2016,-8.1208,-8.1093,-8.1093,-8.1093,-8.1093,-8.1093,-8.1093,-8.1093,-8.0746,-7.99,-7.9015,-7.8169,-7.74,-7.6515,-7.6053,-7.6053,-7.5168,-7.4745,-7.4745,-7.3937,-7.3091,-7.2245,-7.136,-7.0937,-7.0898,-7.0898,-7.0475,-6.9821,-7.0552,-6.9898,-6.8513,-6.9321,-6.859,-6.7244,-6.8052,-6.8359,-6.8359,-6.8359,-6.7821,-6.7128,-6.709,-6.6551,-6.5936,-6.5897,-6.532,-6.4628,-6.4628,-6.3397,-6.2139,-6.2101,-6.1447,-6.0781,-6.0781,-6.0781,-6.0358,-5.8704,-5.8319,-5.778,-5.6049,-5.5703,-5.5703,-5.5703,-5.5326,-5.5012,-5.4998,-5.4272,-5.3441,-5.2605,-5.0858,-4.9317,-4.8453,-4.8306,-4.8306,-4.8306,-4.8306,-4.8306,-4.8306,-4.8306,-4.8306,-4.8306,-4.8306,-4.8325,-4.8325,-4.8325,-4.8344,-4.8344,-4.8344,-4.8495,-4.8816,-4.8833,-4.8999,-7.4531,-7.6719,-7.9101,-8.164,-8.3398,-8.4921,-8.6597,-8.6889,-8.6698,-8.6398,-8.5258,-8.4116,-8.3524,-8.3285,-8.327,-8.3487,-8.4449,-8.4879,-8.4235,-8.4127,-8.3541,-8.207,-8.19,-8.1708,-8.1131,-8.1093,-8.1093,-8.1093,-8.0554,-8.0131,-7.9823,-7.8477,-7.7592,-7.7323,-7.6438,-7.5707,-7.513,-7.4861,-7.4437,-7.3899,-7.3053,-7.2168,-7.1321,-7.1014,-7.0898,-7.0898,-7.0898,-7.0744,-7.0437,-6.959,-6.8898,-6.8321,-6.7513,-6.7128,-6.7128,-6.7436,-6.7898,-6.8321,-6.7744,-6.7013,-6.6282,-6.6282,-6.6128,-6.5897,-6.5897,-6.5282,-6.4474,-6.3897,-6.2935,-6.1985,-6.1408,-6.1012,-6.0781,-6.0781,-6.0358,-5.9627,-5.855,-5.7857,-5.7088,-5.5934,-5.5703,-5.5703,-5.5703,-5.5326,-5.479,-5.4221,-5.2974,-5.1918,-5.1428,-4.9836,-4.8636,-4.8343,-4.8306,-4.8306,-4.8306,-4.8306,-4.8306,-4.8306,-4.8306,-4.8306,-4.8306,-4.8306,-4.8306,-4.8306,-4.8306,-4.8306,-4.8306,-4.8306,-4.8363,-4.8477,-4.8693,-4.8867,-7.6953,-7.875,-8.0469,-8.2969,-8.4258,-8.5195,-8.6328,-8.6478,-8.6149,-8.529,-8.3596,-8.1944,-8.1034,-8.0272,-8.0299,-8.1994,-8.3152,-8.4116,-8.498,-8.4766,-8.3973,-8.2486,-8.207,-8.167,-8.1131,-8.0823,-8.0631,-8.0631,-8.0131,-7.9554,-7.8938,-7.79,-7.7169,-7.6861,-7.5976,-7.5284,-7.4707,-7.413,-7.3399,-7.2552,-7.2014,-7.1437,-7.0898,-7.0898,-7.0898,-7.0898,-7.0898,-7.0552,-6.9937,-6.9167,-6.8513,-6.7859,-6.709,-6.6936,-6.7128,-6.7436,-6.7552,-6.7475,-6.7205,-6.6744,-6.6282,-6.5974,-6.5897,-6.5897,-6.5897,-6.5051,-6.4012,-6.3474,-6.2512,-6.1524,-6.0935,-6.0781,-6.0781,-6.0781,-6.0127,-5.9281,-5.8473,-5.7627,-5.6753,-5.5857,-5.5703,-5.5682,-5.5554,-5.5053,-5.4312,-5.3253,-5.1989,-5.1043,-5.0842,-4.9334,-4.8306,-4.8306,-4.8306,-4.8306,-4.8306,-4.8306,-4.8306,-4.8306,-4.8306,-4.8306,-4.8306,-4.8306,-4.8306,-4.8306,-4.8306,-4.8306,-4.8306,-4.8306,-4.8306,-4.8306,-4.8532,-4.8604,-7.8398,-8.0429,-8.25,-8.3398,-8.4219,-8.4844,-8.4883,-8.4883,-8.457,-8.3672,-8.1898,-8.024,-7.9338,-7.7703,-7.7574,-8.0791,-8.144,-8.2432,-8.4866,-8.4378,-8.3449,-8.2563,-8.1678,-8.1131,-8.1093,-8.0323,-7.9785,-7.9746,-7.9708,-7.8977,-7.7361,-7.7246,-7.6823,-7.5976,-7.513,-7.4668,-7.4591,-7.2937,-7.1706,-7.0898,-7.0898,-7.0898,-7.0821,-7.0821,-7.0821,-7.0821,-7.0821,-6.9975,-6.859,-6.9398,-6.8744,-6.7321,-6.8052,-6.7859,-6.7244,-6.8013,-6.7282,-6.6051,-6.6782,-6.7051,-6.6898,-6.6128,-6.5897,-6.5897,-6.5859,-6.4666,-6.3269,-6.3231,-6.205,-6.0781,-6.0781,-6.0781,-6.0781,-6.0781,-6.0089,-5.9242,-5.8473,-5.7588,-5.6676,-5.5857,-5.5692,-5.5577,-5.5314,-5.4569,-5.3554,-5.2263,-5.1353,-5.0802,-5.0729,-4.9297,-4.8306,-4.8306,-4.8306,-4.8306,-4.8306,-4.8306,-4.8306,-4.8306,-4.8306,-4.8306,-4.8306,-4.8306,-4.8306,-4.8306,-4.8306,-4.8306,-4.8306,-4.8306,-4.8306,-4.8306,-4.8306,-4.8306,-7.9961,-8.1328,-8.25,-8.3398,-8.3789,-8.4101,-8.4765,-8.4414,-8.3515,-8.1992,-7.9167,-7.6747,-7.5833,-7.5741,-7.6494,-7.8598,-8.1543,-8.3984,-8.5169,-8.5009,-8.4396,-8.3503,-8.2563,-8.1747,-8.117,-8.0323,-7.9515,-7.8861,-7.8284,-7.7746,-7.7323,-7.6669,-7.5938,-7.5053,-7.4822,-7.4091,-7.286,-7.1783,-7.1129,-7.0898,-7.0898,-7.0591,-7.0014,-7.0014,-7.0014,-7.0014,-7.0014,-7.009,-7.0244,-6.986,-6.9436,-6.8936,-6.7859,-6.7705,-6.7936,-6.6936,-6.6667,-6.6744,-6.632,-6.6205,-6.6167,-6.5974,-6.5897,-6.5782,-6.5128,-6.4166,-6.3166,-6.2551,-6.1627,-6.0781,-6.0781,-6.0781,-6.0781,-6.0781,-5.9665,-5.855,-5.8357,-5.7126,-5.5972,-5.5742,-5.5531,-5.5237,-5.4798,-5.4326,-5.374,-5.3035,-5.172,-5.0582,-4.9978,-4.8967,-4.8306,-4.8306,-4.8306,-4.8306,-4.8306,-4.8306,-4.8306,-4.8306,-4.8306,-4.8306,-4.8306,-4.8306,-4.8306,-4.8306,-4.8306,-4.8306,-4.8306,-4.8306,-4.8306,-4.8306,-4.8306,-4.8306,-8.2344,-8.2773,-8.3086,-8.3945,-8.3594,-8.2969,-8.2695,-8.1953,-8.0547,-7.7656,-7.4879,-7.2795,-7.2268,-7.219,-7.3271,-7.646,-7.9577,-8.2362,-8.4562,-8.4463,-8.4043,-8.3813,-8.2601,-8.1639,-8.1177,-7.9992,-7.9015,-7.8515,-7.7746,-7.713,-7.6746,-7.6284,-7.5592,-7.4745,-7.4361,-7.336,-7.1629,-7.1129,-7.0898,-7.0898,-7.0552,-7.0129,-6.9706,-6.9321,-6.936,-6.9706,-6.9706,-6.9975,-7.036,-6.9898,-6.9244,-6.8475,-6.7475,-6.7167,-6.7205,-6.6244,-6.6205,-6.6513,-6.6051,-6.5897,-6.5897,-6.5897,-6.5897,-6.5743,-6.4859,-6.4012,-6.3128,-6.232,-6.1485,-6.0781,-6.0781,-6.0781,-6.0781,-6.0781,-5.9511,-5.8319,-5.8319,-5.6934,-5.5682,-5.5531,-5.5263,-5.4924,-5.4392,-5.3979,-5.353,-5.2773,-5.161,-5.0508,-4.9721,-4.882,-4.8306,-4.8306,-4.8306,-4.8306,-4.8306,-4.8306,-4.8306,-4.8306,-4.8306,-4.8306,-4.8306,-4.8306,-4.8306,-4.8306,-4.8306,-4.8306,-4.8306,-4.8306,-4.8306,-4.8306,-4.8306,-4.8306,-8.4687,-8.4258,-8.3789,-8.4531,-8.3437,-8.1679,-7.9922,-7.8711,-7.6797,-7.2695,-7.0351,-6.9139,-6.9275,-6.8798,-6.9991,-7.4909,-7.7267,-7.978,-8.3532,-8.3407,-8.3126,-8.3682,-8.2241,-8.1229,-8.1214,-7.9576,-7.8492,-7.8477,-7.763,-7.6784,-7.6053,-7.5899,-7.5399,-7.4399,-7.3591,-7.2437,-7.0898,-7.0898,-7.0898,-7.0898,-7.009,-6.9629,-6.9513,-6.8629,-6.8706,-6.9513,-6.9513,-6.9667,-6.986,-6.986,-6.8898,-6.7436,-6.7321,-6.6782,-6.6051,-6.5936,-6.5897,-6.5897,-6.5897,-6.5897,-6.5897,-6.5897,-6.5897,-6.5705,-6.4743,-6.3897,-6.3128,-6.2204,-6.1358,-6.0781,-6.0781,-6.0781,-6.0781,-6.0781,-5.9511,-5.8319,-5.8319,-5.6912,-5.5566,-5.5339,-5.4981,-5.4591,-5.4068,-5.3719,-5.3199,-5.2275,-5.1463,-5.0655,-4.9867,-4.8893,-4.8306,-4.8306,-4.8306,-4.8306,-4.8306,-4.8306,-4.8306,-4.8306,-4.8306,-4.8306,-4.8306,-4.8306,-4.8306,-4.8306,-4.8306,-4.8306,-4.8306,-4.8306,-4.8306,-4.8306,-4.8306,-4.8306,-8.4844,-8.4258,-8.3633,-8.3789,-8.25,-8.0781,-7.9101,-7.6914,-7.4453,-7.1523,-6.9023,-6.7734,-6.9139,-6.9843,-7.1716,-7.6166,-7.8833,-8.1026,-8.3091,-8.3113,-8.2893,-8.2909,-8.1951,-8.1249,-8.1214,-7.962,-7.8551,-7.8492,-7.7092,-7.6169,-7.6015,-7.5322,-7.4207,-7.2668,-7.1783,-7.1206,-7.0898,-7.0898,-7.0898,-7.0898,-7.009,-6.9321,-6.859,-6.7705,-6.7782,-6.8629,-6.8629,-6.9398,-7.0706,-7.0706,-7.0129,-6.9167,-6.8475,-6.7667,-6.6821,-6.6128,-6.5897,-6.5897,-6.5897,-6.5897,-6.5897,-6.5897,-6.5897,-6.559,-6.4012,-6.3423,-6.2974,-6.1435,-6.0935,-6.0781,-6.0781,-6.0781,-6.0781,-6.0781,-5.9511,-5.8319,-5.8319,-5.6748,-5.5351,-5.5314,-5.4821,-5.4313,-5.4033,-5.3719,-5.3363,-5.3025,-5.2307,-5.1499,-5.0692,-4.926,-4.8306,-4.8306,-4.8306,-4.8306,-4.8306,-4.8306,-4.8306,-4.8306,-4.8306,-4.8306,-4.8306,-4.8306,-4.8306,-4.8306,-4.8306,-4.8306,-4.8306,-4.8306,-4.8306,-4.8306,-4.8306,-4.8306,-8.625,-8.5273,-8.4375,-8.4844,-8.2969,-8.0195,-7.7148,-7.4805,-7.1992,-6.7617,-6.5703,-6.5234,-6.6523,-6.7461,-6.914,-7.2578,-7.4878,-7.7237,-8.0207,-8.0468,-8.1026,-8.2649,-8.1981,-8.1165,-8.0617,-7.9394,-7.8412,-7.7915,-7.6707,-7.6015,-7.6015,-7.4784,-7.3514,-7.2245,-7.136,-7.0898,-7.0898,-7.0898,-7.0706,-7.0283,-6.9436,-6.859,-6.7705,-6.6859,-6.6936,-6.7744,-6.8205,-6.9129,-7.0321,-7.0744,-7.0437,-6.9629,-6.8744,-6.7859,-6.7013,-6.6205,-6.5897,-6.5897,-6.5897,-6.5897,-6.5897,-6.5897,-6.5897,-6.5551,-6.382,-6.3308,-6.2974,-6.1281,-6.0781,-6.0781,-6.0781,-6.0781,-6.0781,-6.0781,-5.9511,-5.8165,-5.7703,-5.6405,-5.5249,-5.5064,-5.4639,-5.4176,-5.3814,-5.362,-5.3437,-5.3209,-5.2527,-5.172,-5.0912,-4.9738,-4.8783,-4.8343,-4.8306,-4.8306,-4.8306,-4.8306,-4.8306,-4.8306,-4.8306,-4.8306,-4.8306,-4.8306,-4.8306,-4.8306,-4.8306,-4.8306,-4.8306,-4.8306,-4.8306,-4.8306,-4.8306,-4.8306,-8.7461,-8.6367,-8.5312,-8.5781,-8.3281,-7.9609,-7.5312,-7.2812,-6.9844,-6.418,-6.2851,-6.3047,-6.4101,-6.4844,-6.6289,-6.9219,-7.082,-7.3238,-7.7609,-7.8169,-7.9267,-8.2377,-8.1968,-8.1066,-8.0109,-7.9205,-7.8286,-7.7376,-7.6322,-7.5668,-7.5476,-7.4053,-7.2822,-7.1937,-7.1245,-7.0898,-7.0898,-7.0898,-7.0591,-6.9937,-6.8898,-6.8052,-6.7321,-6.6359,-6.6436,-6.7398,-6.809,-6.9013,-7.0014,-7.0629,-7.0321,-6.936,-6.8667,-6.7744,-6.6782,-6.6128,-6.5897,-6.5897,-6.5897,-6.5897,-6.5897,-6.5897,-6.5897,-6.5551,-6.382,-6.3308,-6.2974,-6.1281,-6.0781,-6.0781,-6.0781,-6.0781,-6.0742,-6.055,-5.9396,-5.805,-5.7176,-5.6098,-5.5236,-5.4952,-5.4576,-5.4123,-5.368,-5.3521,-5.3416,-5.3246,-5.2674,-5.1977,-5.1169,-5.0362,-4.9517,-4.8673,-4.8416,-4.8306,-4.8306,-4.8306,-4.8306,-4.8306,-4.8306,-4.8306,-4.8306,-4.8306,-4.8306,-4.8306,-4.8306,-4.8306,-4.8306,-4.8306,-4.8306,-4.8306,-4.8306,-4.8416,-8.7265,-8.6797,-8.5898,-8.5195,-8.2383,-7.8711,-7.4414,-7.1445,-6.8398,-6.3906,-6.2383,-6.2344,-6.3984,-6.4375,-6.5781,-6.9922,-7.0703,-7.2574,-7.7573,-7.8299,-7.9169,-8.1541,-8.1718,-8.1237,-8.0098,-7.9246,-7.8381,-7.7376,-7.5745,-7.4514,-7.3783,-7.2822,-7.1898,-7.1052,-7.0937,-7.0898,-7.0898,-7.0898,-7.086,-7.0783,-6.9167,-6.8359,-6.8244,-6.6628,-6.6782,-6.8282,-6.8359,-6.9321,-7.0783,-7.086,-6.9975,-6.85,-6.8436,-6.7436,-6.6013,-6.5936,-6.5897,-6.5897,-6.5897,-6.5897,-6.5897,-6.5897,-6.5897,-6.5551,-6.382,-6.3308,-6.2974,-6.1281,-6.0781,-6.0781,-6.0781,-6.0781,-6.0589,-5.9819,-5.8934,-5.805,-5.7176,-5.6098,-5.5288,-5.5262,-5.4663,-5.4103,-5.3961,-5.3622,-5.3277,-5.3188,-5.3151,-5.2821,-5.1977,-5.1169,-5.0362,-4.9574,-4.8783,-4.8306,-4.8306,-4.8306,-4.8306,-4.8306,-4.8306,-4.8306,-4.8306,-4.8306,-4.8306,-4.8306,-4.8306,-4.8306,-4.8306,-4.8306,-4.8306,-4.8306,-4.8306,-4.871,-8.6211,-8.6445,-8.5976,-8.5117,-8.2656,-7.9062,-7.375,-7.0898,-6.8047,-6.3203,-6.1953,-6.1914,-6.2617,-6.2734,-6.3476,-6.5703,-6.6055,-6.7695,-7.2336,-7.3366,-7.5116,-7.9177,-7.9524,-7.9398,-7.9397,-7.8542,-7.761,-7.6606,-7.4938,-7.386,-7.3514,-7.2668,-7.1783,-7.0937,-7.0898,-7.0898,-7.0898,-7.0898,-7.0398,-6.9398,-6.8744,-6.7859,-6.6859,-6.6205,-6.6513,-6.7667,-6.8167,-6.909,-7.0206,-7.0706,-7.0206,-6.9129,-6.859,-6.7667,-6.6551,-6.609,-6.5897,-6.5897,-6.5897,-6.5897,-6.5897,-6.5897,-6.5551,-6.4897,-6.3666,-6.3308,-6.2974,-6.1281,-6.0781,-6.0781,-6.0781,-6.0781,-6.0704,-6.0358,-5.9281,-5.8204,-5.7857,-5.6482,-5.5301,-5.5301,-5.464,-5.4103,-5.3997,-5.3604,-5.3277,-5.3188,-5.3203,-5.2931,-5.2087,-5.172,-5.1022,-4.9757,-4.882,-4.8306,-4.8306,-4.8306,-4.8306,-4.8306,-4.8306,-4.8306,-4.8306,-4.8306,-4.8306,-4.8306,-4.8306,-4.8306,-4.8306,-4.8306,-4.8306,-4.8306,-4.882,-4.928,-8.5039,-8.582,-8.5625,-8.4726,-8.2187,-7.8476,-7.3203,-7.0273,-6.7344,-6.2656,-6.1719,-6.1719,-6.1719,-6.1719,-6.1992,-6.2851,-6.3203,-6.4805,-6.8906,-7.0108,-7.219,-7.6627,-7.7176,-7.7356,-7.7785,-7.7369,-7.6682,-7.5683,-7.4322,-7.3399,-7.3129,-7.2283,-7.1514,-7.0937,-7.0898,-7.0898,-7.0898,-7.0898,-7.0206,-6.8783,-6.8513,-6.7667,-6.6244,-6.6244,-6.6705,-6.7513,-6.8398,-6.9283,-7.009,-7.0398,-7.0052,-6.9244,-6.8359,-6.7513,-6.6667,-6.609,-6.5897,-6.5897,-6.5897,-6.5897,-6.5897,-6.5897,-6.532,-6.4436,-6.3551,-6.3128,-6.2666,-6.1204,-6.0781,-6.0781,-6.0781,-6.0781,-6.0781,-6.0781,-5.9511,-5.8319,-5.8319,-5.6771,-5.5413,-5.5413,-5.4833,-5.4355,-5.4288,-5.3796,-5.3383,-5.3339,-5.3251,-5.3004,-5.2417,-5.216,-5.1463,-5.0124,-4.9187,-4.86,-4.8343,-4.8306,-4.8306,-4.8306,-4.8306,-4.8306,-4.8306,-4.8306,-4.8306,-4.8306,-4.8306,-4.8306,-4.8306,-4.8306,-4.8416,-4.871,-4.9317,-4.9867,-8.3984,-8.4922,-8.4687,-8.3828,-8.039,-7.6328,-7.2812,-6.9375,-6.5937,-6.2422,-6.1719,-6.1719,-6.1719,-6.1719,-6.1992,-6.2851,-6.3711,-6.5508,-6.9023,-7.0195,-7.1636,-7.4131,-7.5065,-7.5422,-7.5167,-7.5671,-7.5668,-7.4784,-7.3976,-7.3129,-7.2245,-7.1398,-7.0898,-7.0898,-7.0898,-7.0898,-7.0898,-7.0898,-7.0475,-6.9667,-6.8821,-6.7936,-6.709,-6.709,-6.7552,-6.8436,-6.9321,-7.0129,-7.0821,-7.0052,-6.9206,-6.8321,-6.7436,-6.6628,-6.5897,-6.5897,-6.5897,-6.5897,-6.5897,-6.5897,-6.5897,-6.5897,-6.532,-6.4436,-6.3551,-6.2743,-6.1947,-6.105,-6.0781,-6.0781,-6.0781,-6.0781,-6.0781,-6.0781,-5.9511,-5.8319,-5.8319,-5.6934,-5.5703,-5.5703,-5.5326,-5.4985,-5.4985,-5.4272,-5.3701,-5.3701,-5.342,-5.3203,-5.3167,-5.2491,-5.1683,-5.0875,-5.0068,-4.9243,-4.8379,-4.8306,-4.8306,-4.8306,-4.8306,-4.8306,-4.8306,-4.8306,-4.8306,-4.8306,-4.8306,-4.8306,-4.8306,-4.8306,-4.8746,-4.961,-4.961,-5.0455,-7.8125,-7.9609,-8.0156,-7.8711,-7.6875,-7.4375,-7.0312,-6.8086,-6.5898,-6.2422,-6.1719,-6.1719,-6.1719,-6.1719,-6.2187,-6.3633,-6.4101,-6.5117,-6.7383,-6.8945,-7.0546,-7.2534,-7.4849,-7.6147,-7.5886,-7.5964,-7.563,-7.4784,-7.3976,-7.3129,-7.2245,-7.136,-7.0898,-7.0898,-7.0898,-7.0898,-7.0898,-7.0898,-7.0206,-6.8821,-6.8552,-6.7667,-6.6282,-6.6859,-6.759,-6.8462,-6.9321,-6.986,-7.0052,-6.9821,-6.8821,-6.7475,-6.7205,-6.659,-6.5897,-6.5897,-6.5897,-6.5897,-6.5897,-6.5897,-6.5897,-6.5897,-6.4897,-6.3666,-6.3397,-6.2743,-6.1908,-6.105,-6.0781,-6.0781,-6.0781,-6.0781,-6.0666,-6.005,-5.9088,-5.8127,-5.755,-5.6511,-5.5692,-5.5649,-5.5301,-5.4985,-5.4928,-5.4474,-5.4105,-5.4105,-5.4016,-5.387,-5.3583,-5.3321,-5.2779,-5.1724,-5.0912,-4.9848,-4.8416,-4.8306,-4.8306,-4.8306,-4.8306,-4.8306,-4.8306,-4.8306,-4.8306,-4.8306,-4.8306,-4.8306,-4.8306,-4.8893,-4.9904,-5.1242,-5.1242,-5.1793,-7.4687,-7.6211,-7.6758,-7.5664,-7.4023,-7.1875,-6.8867,-6.6758,-6.4726,-6.2226,-6.1719,-6.1719,-6.1719,-6.1719,-6.207,-6.3125,-6.414,-6.5039,-6.582,-6.793,-7.0037,-7.1696,-7.3792,-7.5154,-7.5247,-7.5408,-7.5014,-7.386,-7.3283,-7.2629,-7.1745,-7.1206,-7.0898,-7.0898,-7.0898,-7.0898,-7.0898,-7.0591,-6.9744,-6.8385,-6.8385,-6.7667,-6.6397,-6.7552,-6.8398,-6.8936,-6.9783,-6.9975,0.0,-6.936,-6.8398,-6.7051,-6.6782,-6.632,-6.5897,-6.5897,-6.5897,-6.5897,-6.5897,-6.5897,-6.5859,-6.5513,-6.4243,-6.2781,-6.2474,-6.2012,-6.1512,-6.0935,-6.0781,-6.0781,-6.0781,-6.0781,-6.0589,-5.9704,-5.8896,-5.805,-5.7176,-5.6329,-5.5692,-5.5626,-5.5363,-5.5172,-5.5105,-5.4761,-5.4495,-5.4495,-5.438,-5.4158,-5.3758,-5.3701,-5.325,-5.2112,-5.1536,-5.0729,-4.937,-4.8673,-4.8306,-4.8306,-4.8306,-4.8306,-4.8306,-4.8306,-4.8453,-4.8783,-4.8783,-4.893,-4.926,-5.0068,-5.1042,-5.2013,-5.2307,-5.2711,0.0,-7.3984,-7.4023,-7.3906,-7.1445,-6.8828,-6.8008,-6.5312,0.0,-6.1875,-6.1719,-6.1719,-6.1797,-6.1758,-6.1758,-6.1953,-6.4062,-6.539,-6.4609,-6.7383,-7.0106,-7.1687,-7.2407,-7.3048,-7.3727,-7.4304,-7.3937,-7.2322,-7.2245,-7.1898,-7.1052,-7.0975,-7.0975,-7.0975,-7.0898,-7.0821,-7.0821,-7.0052,-6.9244,-6.8321,-6.8321,-6.7898,-6.7167,-6.8821,-6.9629,-6.9744,-7.0475,-7.036,-6.9552,-6.8667,-6.7782,-6.6936,-6.6205,-6.5897,-6.5897,-6.5897,-6.5897,-6.5897,-6.5897,-6.5897,-6.5743,-6.482,-6.3435,-6.1947,-6.105,-6.0781,-6.0781,-6.0781,-6.0781,-6.0781,-6.0781,-6.0781,-6.055,-5.9627,-5.8858,-5.805,-5.7099,-5.6291,-5.5692,-5.5626,-5.557,-5.5461,-5.5401,-5.5078,-5.4836,-5.4836,-5.4576,-5.4228,-5.3795,-5.3758,-5.3325,-5.2222,-5.2013,-5.1683,-5.0949,-4.9407,-4.8489,-4.8489,-4.8489,-4.8489,-4.8489,-4.8489,-4.8857,-4.9684,-4.9684,-5.0068,-5.0875,-5.1646,-5.2013,-5.2087,-5.2858,-5.3203,-6.7617,0.0,-6.8398,-6.7031,-6.6094,-6.5273,0.0,-6.3594,-6.2734,-6.1875,-6.1719,-6.1914,-6.2578,-6.2148,-6.2344,-6.4375,-6.5742,-6.6523,-6.6328,-6.8672,-7.1245,-7.3491,-7.372,-7.397,-7.47,-7.4154,-7.336,-7.2283,-7.2822,-7.2822,-7.1937,-7.1898,-7.1898,-7.1898,-7.0667,-6.9975,-6.9975,-6.9783,-6.8936,-6.7398,-6.7398,-6.7282,-6.7128,-6.8205,-6.909,-6.9706,-6.9898,-6.9513,-6.8629,-6.7744,-6.6898,-6.6167,-6.5974,-6.5897,-6.5897,-6.5897,-6.5897,-6.5897,-6.5897,-6.5897,-6.5628,-6.4128,-6.2935,-6.1947,-6.105,-6.0781,-6.0781,-6.0781,-6.0781,-6.0781,-6.0781,-6.0781,-6.0435,-5.8934,-5.8434,-5.7896,-5.6319,-5.5818,-5.5692,-5.5626,-5.557,-5.5461,-5.5401,-5.5313,-5.526,-5.526,-5.5206,-5.4889,-5.4245,-5.4158,-5.3814,-5.3015,-5.238,-5.1903,-5.172,-5.0802,-5.0215,-5.0215,-5.0215,-5.0215,-5.0215,-5.0215,-5.0325,-5.0508,-5.0508,-5.0912,-5.172,-5.1903,-5.2307,-5.2931,-5.3115,-5.3203,-6.4765,-6.5937,-6.7187,-6.582,-6.5195,-6.4765,-6.4297,-6.3242,-6.2265,-6.1797,-6.1719,-6.1836,-6.2305,-6.2344,-6.2773,-6.418,-6.582,-6.7305,-6.8476,-6.9844,-7.1481,-7.3552,-7.3937,-7.3986,-7.3956,-7.3304,-7.2706,-7.2245,-7.2629,-7.2706,-7.2206,-7.2206,-7.2014,-7.1629,-7.036,-6.9706,-6.9706,-6.8898,-6.8013,-6.709,-6.709,-6.7321,-6.7705,-6.8167,-6.909,-7.0206,-6.9436,-6.8859,-6.8321,-6.7475,-6.6628,-6.5897,-6.5897,-6.5897,-6.5897,-6.5897,-6.5897,-6.5897,-6.5897,-6.5397,-6.4474,-6.3166,-6.2166,-6.1408,-6.0935,-6.0781,-6.0781,-6.0781,-6.0781,-6.0781,-6.0781,-6.0781,-6.0358,-5.8704,-5.8319,-5.7819,-5.6088,-5.5703,-5.5682,-5.5554,-5.5508,-5.5488,-5.539,-5.539,-5.5403,-5.5403,-5.5403,-5.5113,-5.438,-5.4296,-5.4035,-5.3272,-5.2821,-5.2564,-5.2564,-5.216,-5.161,-5.0839,-5.0802,-5.0802,-5.0802,-5.0802,-5.0986,-5.1353,-5.172,-5.2123,-5.2564,-5.2564,-5.2784,-5.3203,-5.3203,-5.3203,-6.375,-6.5742,-6.7851,-6.6445,-6.5742,-6.5312,-6.5078,-6.3281,-6.1719,-6.1719,-6.1719,-6.1797,-6.2031,-6.2578,-6.3125,-6.3515,-6.5586,-6.8008,-7.0547,-7.1015,-7.1638,-7.3134,-7.3831,-7.3846,-7.2917,-7.244,-7.2129,-7.2014,-7.2129,-7.2206,-7.2206,-7.2206,-7.186,-7.1129,-7.0052,-6.9513,-6.9513,-6.7898,-6.7051,-6.6898,-6.6898,-6.7359,-6.8205,-6.8205,-6.9052,-7.0437,-6.8898,0.0,-6.8129,-6.7282,-6.6513,-6.5897,-6.5897,-6.5897,-6.5897,-6.5897,-6.5897,-6.5859,-6.5743,-6.4666,-6.3166,-6.2358,-6.1524,-6.0781,-6.0781,-6.0781,-6.0781,-6.0781,-6.0781,-6.0781,-6.0781,-6.0781,-6.0358,-5.8704,-5.8319,-5.7819,-5.6088,-5.5703,-5.5671,-5.552,-5.5523,-5.5488,-5.539,-5.5403,-5.5403,-5.5403,-5.5403,-5.5165,-5.4446,-5.433,-5.4016,-5.3355,-5.3209,-5.3203,-5.3203,-5.3203,-5.2637,-5.1242,-5.1169,-5.1169,-5.1169,-5.1169,-5.1499,-5.216,-5.2858,-5.3203,-5.3203,-5.3203,-5.3203,-5.3203,-5.3203,-5.3203,-6.5078,-6.668,-6.7265,-6.3437,-6.3515,-6.4101,-6.2656,-6.1992,-6.1719,-6.1719,-6.1719,-6.2148,-6.3633,-6.3398,-6.3711,-6.5937,-6.7265,-6.8906,-7.1445,-7.2422,-7.3281,-7.4257,-7.4815,-7.4753,-7.3876,-7.2827,-7.1898,-7.1168,-7.1783,-7.2206,-7.2206,-7.2206,-7.2129,-7.2014,-6.9783,-6.859,-6.859,-6.759,-6.6744,-6.609,-6.609,-6.6513,-6.7282,-6.7282,-6.7821,-6.8744,0.0,-6.7282,-6.7244,-6.6397,-6.6013,-6.5897,-6.5897,-6.5897,-6.5897,-6.5897,-6.5897,-6.5782,-6.5051,-6.4128,-6.3166,-6.2358,-6.1524,-6.0781,-6.0781,-6.0781,-6.0781,-6.0781,-6.0781,-6.0781,-6.0781,-6.0781,-6.0358,-5.8704,-5.8319,-5.7819,-5.6088,-5.5703,-5.5682,-5.5615,-5.5558,-5.5499,-5.5415,-5.5403,-5.5403,-5.5403,-5.5403,-5.5246,-5.4776,-5.4479,-5.4123,-5.3662,-5.3359,-5.3203,-5.3203,-5.3203,-5.3093,-5.2837,-5.2858,-5.2858,-5.2858,-5.2858,-5.2894,-5.3004,-5.3151,-5.3203,-5.3203,-5.3203,-5.3203,-5.3203,-5.3203,-5.3203,-6.3515,-6.5117,-6.6211,-6.3711,-6.4765,-6.6055,-6.4805,-6.3789,-6.3086,-6.3086,-6.3086,-6.3359,-6.414,-6.5117,-6.664,-6.9258,-7.0,-7.082,-7.2461,-7.3437,-7.414,-7.4531,-7.5018,-7.4799,-7.3476,-7.2645,-7.2014,-7.1629,-7.1975,-7.2206,-7.2206,-7.2206,-7.1975,-7.1514,-6.9475,-6.8629,-6.909,-6.7321,-6.6282,-6.5897,-6.5897,-6.632,-6.709,-6.6628,-6.7167,-6.8321,0.0,-6.6705,-6.7051,-6.6244,-6.5897,-6.5897,-6.5897,-6.5897,-6.5897,-6.5897,-6.5897,-6.5705,-6.4359,-6.3628,-6.3089,-6.182,-6.1127,-6.0781,-6.0781,-6.0781,-6.0781,-6.0781,-6.0781,-6.0781,-6.0781,-6.0781,-6.0473,-5.9242,-5.8627,-5.7934,-5.6665,-5.6011,-5.5682,-5.5581,-5.5508,-5.5488,-5.5428,-5.5416,-5.5403,-5.5403,-5.5403,-5.526,-5.4836,-5.467,-5.4446,-5.407,-5.3699,-5.3464,-5.3464,-5.3314,-5.3203,-5.3203,-5.3203,-5.3203,-5.3203,-5.3203,-5.3203,-5.3203,-5.3203,-5.3203,-5.3203,-5.3203,-5.3203,-5.3203,-5.3203,-5.3203,-6.2422,-6.3789,-6.5234,-6.4961,-6.625,-6.7578,-6.75,-6.6133,-6.5078,-6.5664,-6.5312,-6.4961,-6.5195,-6.7031,-6.9219,-7.1367,-7.1875,-7.2305,-7.3164,-7.3867,-7.4297,-7.4297,-7.4706,-7.441,-7.2931,-7.2452,-7.2129,-7.1898,-7.1898,-7.1898,-7.1898,-7.1898,-7.1591,-7.0937,-6.9283,-6.8744,-6.9398,-6.7051,-6.5974,-6.6167,-6.5974,-6.6205,-6.6782,-6.6167,-6.659,-6.7744,-6.6474,-6.6244,-6.6782,-6.6128,-6.5897,-6.5897,-6.5897,-6.5897,-6.5897,-6.5897,-6.5897,-6.5667,-6.4128,-6.3462,-6.3051,-6.1589,-6.0973,-6.0781,-6.0781,-6.0781,-6.0781,-6.0781,-6.0781,-6.0781,-6.0781,-6.0781,-6.0589,-5.9704,-5.905,-5.8357,-5.7473,-5.6626,-5.594,-5.5815,-5.5638,-5.5476,-5.5428,-5.5403,-5.5403,-5.5403,-5.5403,-5.5286,-5.4976,-5.4836,-5.47,-5.4446,-5.4088,-5.3814,-5.372,-5.34,-5.3203,-5.3203,-5.3203,-5.3203,-5.3203,-5.3203,-5.3203,-5.3203,-5.3203,-5.3203,-5.3203,-5.3203,-5.3203,-5.3203,-5.3203,-5.3203,-6.3906,-6.4258,-6.4765,-6.6328,-6.625,-6.6406,-6.8711,-6.793,-6.7383,-6.9765,-6.8359,-6.6953,-6.7773,-6.8711,-6.9726,-7.0625,-7.1484,-7.2305,-7.3164,-7.3359,-7.3398,-7.3398,-7.3805,-7.3742,-7.2892,-7.2452,-7.186,-7.1052,-7.0975,-7.0975,-7.0975,-7.0975,-7.0975,-7.0898,-6.9283,-6.8436,-6.8513,-6.6782,-6.6282,-6.7013,-6.6244,-6.5936,-6.5974,-6.5936,-6.5974,-6.6051,-6.5936,-6.5936,-6.5974,-6.5897,-6.5897,-6.5897,-6.5897,-6.5897,-6.5897,-6.5897,-6.5897,-6.5782,-6.482,-6.3974,-6.3166,-6.2281,-6.1447,-6.0781,-6.0781,-6.0781,-6.0781,-6.0781,-6.0781,-6.0781,-6.0781,-6.0781,-6.0589,-5.9704,-5.9473,-5.9204,-5.8396,-5.7511,-5.6874,-5.6748,-5.606,-5.5476,-5.5428,-5.5403,-5.5403,-5.5403,-5.5403,-5.539,-5.5377,-5.5019,-5.4791,-5.4761,-5.4463,-5.4105,-5.3739,-5.34,-5.3203,-5.3203,-5.3203,-5.3203,-5.3203,-5.3203,-5.3203,-5.3203,-5.3203,-5.3203,-5.3203,-5.3203,-5.3203,-5.3203,-5.3203,-5.3203,-6.2578,-6.3476,-6.4726,-6.6445,-6.707,-6.7617,-6.9062,-6.9336,-6.9687,-7.1211,-7.0742,-7.0156,-7.0508,-7.039,-7.0703,-7.2109,-7.3047,-7.3711,-7.4062,-7.4101,-7.4101,-7.4101,-7.4035,-7.3696,-7.2896,-7.2429,-7.1822,-7.0975,-7.0898,-7.0898,-7.0898,-7.0898,-7.0898,-7.0898,-6.9821,-6.9206,-6.9206,-6.7513,-6.6782,-6.709,-6.6282,-6.5897,-6.5897,-6.5897,-6.5897,-6.5897,-6.5897,-6.5897,-6.5897,-6.5897,-6.5897,-6.5897,-6.5897,-6.5897,-6.5897,-6.5897,-6.5897,-6.5782,-6.4897,-6.4051,-6.3166,-6.2358,-6.1524,-6.0781,-6.0781,-6.0781,-6.0781,-6.0781,-6.0781,-6.0781,-6.0781,-6.0781,-6.0704,-6.0396,-5.9896,-5.9435,-5.9127,-5.8396,-5.7785,-5.7618,-5.7325,-5.6905,-5.6269,-5.6129,-5.5976,-5.5479,-5.5403,-5.5403,-5.5403,-5.5273,-5.5154,-5.5154,-5.4661,-5.4141,-5.3739,-5.34,-5.3203,-5.3203,-5.3203,-5.3203,-5.3203,-5.3203,-5.3203,-5.3203,-5.3203,-5.3203,-5.3203,-5.3203,-5.3203,-5.3203,-5.3203,-5.3203,-6.1836,-6.2773,-6.4258,-6.5703,-6.7148,-6.8555,-6.9922,-7.0898,-7.1992,-7.3711,-7.3164,-7.2226,-7.168,-7.1094,-7.1172,-7.2656,-7.3398,-7.3867,-7.414,-7.3945,-7.3789,-7.3787,-7.3441,-7.2988,-7.2446,-7.2032,-7.1552,-7.0937,-7.0898,-7.0898,-7.0898,-7.0898,-7.0898,-7.0898,-7.0129,-6.959,-6.9283,-6.7821,-6.6974,-6.6705,-6.6167,-6.5897,-6.5897,-6.5897,-6.5897,-6.5897,-6.5897,-6.5897,-6.5897,-6.5897,-6.5897,-6.5897,-6.5897,-6.5897,-6.5897,-6.5897,-6.5897,-6.582,-6.5205,-6.4282,-6.3205,-6.2666,-6.1704,-6.0781,-6.0781,-6.0781,-6.0781,-6.0781,-6.0781,-6.0781,-6.0781,-6.0781,-6.0781,-6.0781,-6.0319,-5.9896,-5.9896,-5.9281,-5.8631,-5.85,-5.8284,-5.7863,-5.7149,-5.7008,-5.674,-5.5899,-5.5785,-5.5708,-5.5441,-5.5403,-5.5403,-5.5403,-5.4829,-5.4364,-5.4068,-5.3641,-5.3339,-5.3339,-5.3251,-5.3203,-5.3203,-5.3203,-5.3203,-5.3203,-5.3203,-5.3203,-5.3203,-5.3203,-5.3203,-5.3203,-5.3203,-5.3203,-6.2187,-6.2344,-6.3242,-6.4101,-6.6328,-6.8906,-7.1445,-7.2695,-7.4297,-7.7773,-7.5742,-7.2773,-7.1055,-7.0703,-7.0976,-7.1836,-7.1992,-7.2305,-7.3164,-7.2539,-7.1992,-7.199,-7.1686,-7.1503,-7.1505,-7.1131,-7.0898,-7.0898,-7.0898,-7.0898,-7.0898,-7.0898,-7.0898,-7.0898,-7.0129,-6.9283,-6.8398,-6.7552,-6.6705,-6.5897,-6.5897,-6.5897,-6.5897,-6.5897,-6.5897,-6.5897,-6.5897,-6.5897,-6.5897,-6.5897,-6.5897,-6.5897,-6.5897,-6.5897,-6.5897,-6.5897,-6.5897,-6.5897,-6.5897,-6.4743,-6.3308,-6.3269,-6.2166,-6.0781,-6.0781,-6.0781,-6.0781,-6.0781,-6.0781,-6.0781,-6.0781,-6.0781,-6.0781,-6.0781,-6.0781,-6.0781,-6.0781,-6.0127,-5.9477,-5.9344,-5.8667,-5.8081,-5.7951,-5.7925,-5.7619,-5.674,-5.66,-5.632,-5.5517,-5.5403,-5.5403,-5.5403,-5.5019,-5.4791,-5.4791,-5.4121,-5.3701,-5.3701,-5.338,-5.3203,-5.3203,-5.3203,-5.3203,-5.3203,-5.3203,-5.3203,-5.3203,-5.3203,-5.3203,-5.3203,-5.3203,-5.3203,-6.1836,-6.3672,-6.5937,-6.6836,-6.9414,-7.2305,-7.4297,-7.4922,-7.5586,-7.7265,-7.5781,-7.3867,-7.2734,-7.2031,-7.1484,-7.1133,-7.1601,-7.2109,-7.2344,-7.2148,-7.1992,-7.1985,-7.1716,-7.1496,-7.1505,-7.1147,-7.0898,-7.0898,-7.0898,-7.0898,-7.0898,-7.0898,-7.0898,-7.0898,-7.0129,-6.9283,-6.8398,-6.7552,-6.6705,-6.5897,-6.5897,-6.5897,-6.5897,-6.5897,-6.5897,-6.5897,-6.5897,-6.5897,-6.5897,-6.5897,-6.5897,-6.5897,-6.5897,-6.5897,-6.5897,-6.5897,-6.5897,-6.582,-6.5205,-6.4243,-6.3205,-6.2627,-6.1704,-6.0781,-6.0781,-6.0781,-6.0781,-6.0781,-6.0781,-6.0781,-6.0781,-6.0781,-6.0781,-6.0781,-6.0781,-6.0781,-6.0781,-6.0589,-6.0373,-6.0301,-6.0047,-5.9639,-5.8935,-5.8767,-5.8268,-5.6816,-5.7122,-5.7199,-5.6358,-5.5747,-5.5403,-5.5403,-5.5019,-5.4791,-5.4791,-5.4121,-5.3701,-5.3701,-5.338,-5.3203,-5.3203,-5.3203,-5.3203,-5.3203,-5.3203,-5.3203,-5.3203,-5.3203,-5.3203,-5.3203,-5.3203,-5.3518,-6.3164,-6.5039,-6.7187,-6.8398,-7.0742,-7.3437,-7.5859,-7.6406,-7.6562,-7.7109,-7.6094,-7.4844,-7.3984,-7.3086,-7.2226,-7.1367,-7.164,-7.1992,-7.1992,-7.1992,-7.199,-7.1982,-7.1733,-7.1544,-7.1497,-7.1225,-7.0979,-7.0912,-7.0898,-7.0898,-7.0898,-7.0898,-7.0898,-7.0898,-7.0129,-6.9283,-6.8398,-6.7552,-6.6705,-6.5897,-6.5897,-6.5897,-6.5897,-6.5897,-6.5897,-6.5897,-6.5897,-6.5897,-6.5897,-6.5897,-6.5897,-6.5897,-6.5897,-6.5897,-6.5897,-6.5897,-6.5667,-6.532,-6.4782,-6.382,-6.2743,-6.2255,-6.1524,-6.0781,-6.0781,-6.0781,-6.0781,-6.0781,-6.0781,-6.0781,-6.0781,-6.0781,-6.0781,-6.0781,-6.0781,-6.0781,-6.0781,-6.0781,-6.0769,-6.071,-6.0635,-6.0406,-5.9804,-5.966,-5.9147,-5.781,-5.7772,-5.7581,-5.6702,-5.6473,-5.6129,-5.5479,-5.5472,-5.5413,-5.5057,-5.4474,-5.4068,-5.3962,-5.3602,-5.3318,-5.3225,-5.3203,-5.3203,-5.3203,-5.3203,-5.3203,-5.3203,-5.3203,-5.3203,-5.3203,-5.3203,-5.3628,-6.5234,-6.6289,-6.7539,-6.9219,-7.1055,-7.3281,-7.6484,-7.7187,-7.7187,-7.7187,-7.6523,-7.5625,-7.4765,-7.3906,-7.3008,-7.2148,-7.1992,-7.1992,-7.1992,-7.1991,-7.1988,-7.1981,-7.1806,-7.1644,-7.1505,-7.131,-7.1112,-7.0925,-7.0898,-7.0898,-7.0898,-7.0898,-7.086,-7.0783,-7.0014,-6.9167,-6.8282,-6.7436,-6.6628,-6.5897,-6.5897,-6.5897,-6.5897,-6.5897,-6.5897,-6.5897,-6.5897,-6.5897,-6.5897,-6.5897,-6.5897,-6.5897,-6.5897,-6.5897,-6.5897,-6.5897,-6.5359,-6.4589,-6.4512,-6.3435,-6.2101,-6.2024,-6.1447,-6.0781,-6.0781,-6.0781,-6.0781,-6.0781,-6.0781,-6.0781,-6.0781,-6.0781,-6.0781,-6.0781,-6.0781,-6.0781,-6.0781,-6.0781,-6.0769,-6.071,-6.0635,-6.0559,-6.0506,-6.0464,-6.0141,-5.9338,-5.8459,-5.7619,-5.6931,-5.739,-5.7199,-5.567,-5.6091,-5.6205,-5.5479,-5.5019,-5.467,-5.4364,-5.398,-5.3622,-5.3251,-5.3225,-5.3203,-5.3203,-5.3203,-5.3203,-5.3203,-5.3203,-5.3203,-5.3203,-5.3203,-5.3665,-6.414,-6.668,-6.9297,-7.1015,-7.3789,-7.6289,-7.7031,-7.7187,-7.7187,-7.7187,-7.6523,-7.5625,-7.4765,-7.3906,-7.3008,-7.2148,-7.1992,-7.1992,-7.1992,-7.1991,-7.1988,-7.1981,-7.1806,-7.1644,-7.1505,-7.131,-7.1112,-7.0925,-7.0898,-7.0898,-7.0898,-7.0898,-7.0591,-6.9975,-6.9129,-6.8244,-6.7398,-6.6551,-6.6051,-6.5897,-6.5897,-6.5897,-6.5897,-6.5897,-6.5897,-6.5897,-6.5897,-6.5897,-6.5897,-6.5897,-6.5897,-6.5897,-6.5897,-6.5897,-6.5897,-6.5897,-6.5359,-6.4512,-6.382,-6.2935,-6.1985,-6.1281,-6.0935,-6.0781,-6.0781,-6.0781,-6.0781,-6.0781,-6.0781,-6.0781,-6.0781,-6.0781,-6.0781,-6.0781,-6.0781,-6.0781,-6.0781,-6.0781,-6.0781,-6.0769,-6.0673,-6.061,-6.0559,-6.0466,-6.0346,-6.0141,-5.8842,-5.8077,-5.8498,-5.7581,-5.674,-5.6358,-5.5938,-5.5594,-5.5403,-5.5019,-5.4761,-5.47,-5.4364,-5.3998,-5.3622,-5.3318,-5.3203,-5.3203,-5.3203,-5.3203,-5.3203,-5.3203,-5.3203,-5.3203,-5.3203,-5.3959,-6.4726,-6.7148,-6.9648,-7.3008,-7.5547,-7.7187,-7.7187,-7.7187,-7.7187,-7.7187,-7.6523,-7.5625,-7.4765,-7.3906,-7.3008,-7.2148,-7.1992,-7.1992,-7.1992,-7.199,-7.1985,-7.1981,-7.1906,-7.1575,-7.093,-7.0774,-7.0423,-6.9732,-6.9706,-6.9706,-6.9706,-6.9706,-6.9513,-6.909,-6.8244,-6.7552,-6.709,-6.6282,-6.5897,-6.5897,-6.5897,-6.5897,-6.5897,-6.5897,-6.5897,-6.5897,-6.5897,-6.5897,-6.5897,-6.5897,-6.5897,-6.5897,-6.5897,-6.5897,-6.5859,-6.5436,-6.4743,-6.3858,-6.3012,-6.2166,-6.1408,-6.0935,-6.0781,-6.0781,-6.0781,-6.0781,-6.0781,-6.0781,-6.0781,-6.0781,-6.0781,-6.0781,-6.0781,-6.0781,-6.0781,-6.0781,-6.0781,-6.0781,-6.0781,-6.0781,-6.0673,-6.0585,-6.0585,-6.0504,-6.0422,-6.0422,-5.9644,-5.9109,-5.9109,-5.8689,-5.8116,-5.7313,-5.7199,-5.6855,-5.6052,-5.5767,-5.5423,-5.4844,-5.4639,-5.4296,-5.3739,-5.3524,-5.3359,-5.3225,-5.3203,-5.3203,-5.3203,-5.3203,-5.3203,-5.3203,-5.3592,-5.4436,-6.4922,-6.7305,-6.9805,-7.4687,-7.6562,-7.7187,-7.7187,-7.707,-7.6992,-7.6992,-7.6289,-7.5469,-7.4726,-7.375,-7.2851,-7.2109,-7.1992,-7.1992,-7.1992,-7.1987,-7.2017,-7.2017,-7.1885,-7.1347,-7.0316,-7.0052,-6.9546,-6.8475,-6.8385,-6.8385,-6.8385,-6.8385,-6.8321,-6.8167,-6.7475,-6.7013,-6.6898,-6.6244,-6.5897,-6.5897,-6.5897,-6.5897,-6.5897,-6.5897,-6.5897,-6.5897,-6.5897,-6.5897,-6.5897,-6.5897,-6.5897,-6.5897,-6.5897,-6.582,-6.559,-6.4859,-6.3974,-6.3012,-6.232,-6.1524,-6.0781,-6.0781,-6.0781,-6.0781,-6.0781,-6.0781,-6.0781,-6.0781,-6.0781,-6.0781,-6.0781,-6.0781,-6.0781,-6.0781,-6.0781,-6.0781,-6.0781,-6.0781,-6.0781,-6.0781,-6.0673,-6.0572,-6.0546,-6.0453,-6.0422,-6.0422,-6.0422,-6.0141,-5.9415,-5.9835,-5.9644,-5.8268,-5.8574,-5.8345,-5.6931,-5.6816,-5.6417,-5.5388,-5.5336,-5.5007,-5.4261,-5.4223,-5.3955,-5.3408,-5.3298,-5.3203,-5.3203,-5.3203,-5.3203,-5.3203,-5.4032,-5.484,-6.1836,-6.6289,-7.125,-7.4961,-7.6562,-7.7187,-7.7187,-7.6601,-7.6055,-7.6055,-7.539,-7.4726,-7.4609,-7.3281,-7.2148,-7.2031,-7.1991,-7.199,-7.199,-7.1981,-7.2008,-7.2008,-7.1331,-7.068,-7.0238,-6.9508,-6.8887,-6.8437,-6.8385,-6.8385,-6.8385,-6.8385,-6.8052,-6.7282,-6.7167,-6.6782,-6.6051,-6.5936,-6.5897,-6.5897,-6.5897,-6.5897,-6.5897,-6.5897,-6.5897,-6.5897,-6.5897,-6.5897,-6.5897,-6.5897,-6.5897,-6.5897,-6.5897,-6.5436,-6.4743,-6.4628,-6.3589,-6.2243,-6.2139,-6.1524,-6.0781,-6.0781,-6.0781,-6.0781,-6.0781,-6.0781,-6.0781,-6.0781,-6.0781,-6.0781,-6.0781,-6.0781,-6.0781,-6.0781,-6.0781,-6.0781,-6.0781,-6.0781,-6.0781,-6.0781,-6.0673,-6.0546,-6.0464,-6.0422,-6.0422,-6.0422,-6.0422,-6.0384,-6.0217,-5.9682,-5.9185,-5.8956,-5.8421,-5.7963,-5.7734,-5.7734,-5.7644,-5.7489,-5.7489,-5.7142,-5.6346,-5.631,-5.564,-5.4274,-5.3555,-5.3203,-5.3203,-5.3203,-5.3203,-5.3203,-5.4032,-5.484,-6.2773,-6.7226,-7.1406,-7.4414,-7.582,-7.6328,-7.5859,-7.582,-7.5742,-7.5273,-7.4492,-7.3867,-7.3867,-7.2851,-7.1992,-7.1991,-7.199,-7.1989,-7.1986,-7.2016,-7.1811,-7.1343,-7.0941,-7.0173,-6.8878,-6.8381,-6.7841,-6.7051,-6.7013,-6.7013,-6.7013,-6.7013,-6.6821,-6.6436,-6.6436,-6.6244,-6.5897,-6.5897,-6.5897,-6.5897,-6.5897,-6.5897,-6.5897,-6.5897,-6.5897,-6.5897,-6.5897,-6.5897,-6.5897,-6.5897,-6.5897,-6.5897,-6.5897,-6.5667,-6.5205,-6.4243,-6.3397,-6.2627,-6.1704,-6.1127,-6.0781,-6.0781,-6.0781,-6.0781,-6.0781,-6.0781,-6.0781,-6.0781,-6.0781,-6.0781,-6.0781,-6.0781,-6.0781,-6.0781,-6.0781,-6.0781,-6.0781,-6.0781,-6.0757,-6.0685,-6.0623,-6.0584,-6.0398,-6.0422,-6.0422,-6.0422,-6.0422,-6.0422,-6.0422,-6.0064,-5.9835,-5.9835,-5.9491,-5.9109,-5.8612,-5.8574,-5.8383,-5.7925,-5.7886,-5.7543,-5.6717,-5.6682,-5.6182,-5.5082,-5.4289,-5.3665,-5.3203,-5.3203,-5.3203,-5.3203,-5.4473,-5.5244,-6.289,-6.6445,-6.9414,-7.2265,-7.3945,-7.4805,-7.4375,-7.4765,-7.5039,-7.4414,-7.3594,-7.2969,-7.2968,-7.2422,-7.1992,-7.199,-7.1989,-7.1986,-7.2017,-7.2008,-7.169,-7.0792,-7.0509,-6.9631,-6.7797,-6.741,-6.6871,-6.5986,-6.5897,-6.5897,-6.5897,-6.5897,-6.5897,-6.5897,-6.5897,-6.5897,-6.5897,-6.5897,-6.5897,-6.5897,-6.5897,-6.5897,-6.5897,-6.5897,-6.5897,-6.5897,-6.5897,-6.5897,-6.5897,-6.5897,-6.5897,-6.5897,-6.5897,-6.5628,-6.5089,-6.3782,-6.3038,-6.2512,-6.1243,-6.0781,-6.0781,-6.0781,-6.0781,-6.0781,-6.0781,-6.0781,-6.0781,-6.0781,-6.0781,-6.0781,-6.0781,-6.0781,-6.0781,-6.0781,-6.0781,-6.0781,-6.0781,-6.0781,-6.0746,-6.0635,-6.0597,-6.0546,-6.0464,-6.0422,-6.0422,-6.0422,-6.0422,-6.0422,-6.0422,-6.0422,-6.0422,-6.0422,-6.0422,-6.0141,-5.9491,-5.9415,-5.9185,-5.8574,-5.8536,-5.8219,-5.7514,-5.7479,-5.7043,-5.6086,-5.5475,-5.4638,-5.3518,-5.3702,-5.3592,-5.3261,-5.506,-5.5794,-5.9922,-6.1992,-6.4219,-6.7656,-7.039,-7.2422,-7.3203,-7.3398,-7.3437,-7.3398,-7.2656,-7.207,-7.2069,-7.2031,-7.1992,-7.199,-7.1986,-7.2017,-7.2008,-7.1997,-7.1675,-7.0816,-6.9957,-6.8968,-6.7719,-6.6858,-6.6242,-6.5897,-6.5897,-6.5897,-6.5897,-6.5897,-6.5897,-6.5897,-6.5897,-6.5897,-6.5897,-6.5897,-6.5897,-6.5897,-6.5897,-6.5897,-6.5897,-6.5897,-6.5897,-6.5897,-6.5897,-6.5897,-6.5897,-6.5897,-6.5897,-6.5897,-6.5897,-6.4897,-6.3423,-6.3308,-6.2281,-6.0935,-6.0819,-6.0781,-6.0781,-6.0781,-6.0781,-6.0781,-6.0781,-6.0781,-6.0781,-6.0781,-6.0781,-6.0781,-6.0781,-6.0781,-6.0781,-6.0781,-6.0781,-6.0781,-6.0781,-6.0781,-6.0769,-6.0697,-6.0635,-6.0597,-6.0531,-6.0425,-6.0422,-6.0422,-6.0422,-6.0422,-6.0422,-6.0422,-6.0422,-6.0422,-6.0422,-6.037,-6.0346,-6.0332,-6.0293,-6.0269,-6.0269,-6.0074,-5.9642,-5.9642,-5.8887,-5.7323,-5.7266,-5.6282,-5.4326,-5.5097,-5.4693,-5.324,-5.5647,-5.6345,-5.8398,-6.043,-6.2617,-6.4414,-6.7226,-6.9648,-6.9961,-7.1289,-7.2461,-7.2461,-7.2226,-7.1991,-7.199,-7.199,-7.1989,-7.2019,-7.2014,-7.2008,-7.1997,-7.199,-7.1675,-7.0816,-6.9918,-6.8986,-6.7915,-6.6878,-6.6217,-6.6052,-6.5958,-6.5897,-6.5897,-6.5897,-6.5897,-6.5897,-6.5897,-6.5897,-6.5897,-6.5897,-6.5897,-6.5897,-6.5897,-6.5897,-6.5897,-6.5897,-6.5897,-6.5897,-6.5897,-6.5897,-6.5897,-6.5897,-6.5551,-6.5051,-6.5051,-6.4359,-6.3243,-6.2704,-6.2127,-6.155,-6.0973,-6.0781,-6.0781,-6.0781,-6.0781,-6.0781,-6.0781,-6.0781,-6.0781,-6.0781,-6.0781,-6.0781,-6.0781,-6.0781,-6.0781,-6.0781,-6.0781,-6.0781,-6.0781,-6.0781,-6.0769,-6.071,-6.0635,-6.0597,-6.0493,-6.0425,-6.0422,-6.0422,-6.0422,-6.0422,-6.0422,-6.0422,-6.0422,-6.0422,-6.0422,-6.0422,-6.0422,-6.0422,-6.0422,-6.0422,-6.0422,-6.0241,-5.9826,-5.9554,-5.9028,-5.8198,-5.7941,-5.6927,-5.517,-5.5486,-5.528,-5.4766,-5.6161,-5.6638,-5.6445,-5.8047,-5.9961,-6.1719,-6.3867,-6.6055,-6.7812,-6.9492,-7.0898,-7.1444,-7.1794,-7.1987,-7.1985,-7.1985,-7.1981,-7.2008,-7.2006,-7.2002,-7.199,-7.1987,-7.1675,-7.0816,-6.9918,-6.8997,-6.8013,-6.6912,-6.6243,-6.6118,-6.5967,-6.5897,-6.5897,-6.5897,-6.5897,-6.5897,-6.5897,-6.5897,-6.5897,-6.5897,-6.5897,-6.5897,-6.5897,-6.5897,-6.5897,-6.5897,-6.5897,-6.5897,-6.5897,-6.5897,-6.5859,-6.559,-6.5128,-6.4589,-6.4282,-6.3628,-6.282,-6.2293,-6.1908,-6.1601,-6.1012,-6.0781,-6.0781,-6.0781,-6.0781,-6.0781,-6.0781,-6.0781,-6.0781,-6.0781,-6.0781,-6.0781,-6.0781,-6.0781,-6.0781,-6.0781,-6.0781,-6.0781,-6.0781,-6.0781,-6.0769,-6.0734,-6.0673,-6.0597,-6.0571,-6.0491,-6.045,-6.0384,-6.0422,-6.0422,-6.0422,-6.0422,-6.0422,-6.0422,-6.0422,-6.0422,-6.0422,-6.0422,-6.0422,-6.0422,-6.0422,-6.0285,-6.0,-5.9605,-5.9234,-5.8811,-5.8412,-5.7626,-5.6381,-5.6381,-5.6124,-5.5633,-5.6712,-5.7189,0.0,0.0,0.0,-5.9336,-6.0234,-6.164,-6.6756,-6.8005,-6.8512,-7.0225,-7.1317,-7.1939,-7.1969,-7.1967,-7.2006,-7.2006,-7.2006,-7.2002,-7.199,-7.1987,-7.1675,-7.0855,-6.9957,-6.9036,-6.8057,-6.6951,-6.6243,-6.6128,-6.5978,-6.5897,-6.5897,-6.5897,-6.5897,-6.5897,-6.5897,-6.5897,-6.5897,-6.5897,-6.5897,-6.5897,-6.5897,-6.5897,-6.5897,-6.5897,-6.5897,-6.5897,-6.5897,-6.5897,-6.5782,-6.4936,-6.4589,-6.4474,-6.3589,-6.2781,-6.2062,-6.2062,-6.1524,-6.0781,-6.0781,-6.0781,-6.0781,-6.0781,-6.0781,-6.0781,-6.0781,-6.0781,-6.0781,-6.0781,-6.0781,-6.0781,-6.0781,-6.0781,-6.0781,-6.0781,-6.0781,-6.0781,-6.0781,-6.0781,-6.0781,-6.0781,-6.0734,-6.0673,-6.0597,-6.0571,-6.0466,-6.0398,-6.0422,-6.0422,-6.0422,-6.0422,-6.0422,-6.0422,-6.0422,-6.0422,-6.0422,-6.0422,-6.0422,-6.0422,-6.0422,-6.0422,-6.0422,-5.9984,-5.9588,-5.9215,-5.8811,-5.8391,-5.7997,-5.7997,-5.7189,-5.5706,-5.7262,-5.7997,-5.2301,0.0,0.0,0.0,0.0,0.0,-6.101,-6.3083,-6.5115,-6.7453,-6.9091,-7.0299,-7.0954,-7.157,-7.1993,-7.1993,-7.1993,-7.1993,-7.1987,-7.1987,-7.1909,-7.1675,-7.0309,-6.9288,-6.8997,-6.7358,-6.6291,-6.6243,-6.603,-6.5897,-6.5897,-6.5897,-6.5897,-6.5897,-6.5897,-6.5897,-6.5897,-6.5897,-6.5897,-6.5897,-6.5897,-6.5897,-6.5897,-6.5897,-6.5897,-6.5897,-6.5897,-6.5551,-6.4936,-6.4705,-6.4243,-6.3589,-6.2743,-6.1897,-6.1166,-6.1166,-6.1012,-6.0781,-6.0781,-6.0781,-6.0781,-6.0781,-6.0781,-6.0781,-6.0781,-6.0781,-6.0781,-6.0781,-6.0781,-6.0781,-6.0781,-6.0781,-6.0781,-6.0781,-6.0781,-6.0781,-6.0781,-6.0781,-6.0781,-6.0781,-6.0734,-6.0685,-6.066,-6.061,-6.0533,-6.0466,-6.0453,-6.0439,-6.0422,-6.0422,-6.0422,-6.0422,-6.0422,-6.0422,-6.0422,-6.0422,-6.0422,-6.0422,-6.0422,-6.0422,-6.0422,-5.9723,-5.9325,-5.9215,-5.854,-5.8097,-5.7997,-5.7997,-5.7776,-5.7336,-5.7776,-5.7997,-5.1633,-5.214,-5.3078,-5.3626,0.0,0.0,-5.8935,-6.0812,-6.2765,-6.5725,-6.7401,-6.8687,-6.9933,-7.0275,-7.0621,-7.1324,-7.1441,-7.1597,-7.1948,-7.1987,-7.1987,-7.1987,-7.0777,-6.9801,-6.945,-6.7848,-6.6703,-6.6314,-6.6063,-6.5897,-6.5897,-6.5897,-6.5897,-6.5897,-6.5897,-6.5897,-6.5897,-6.5897,-6.5897,-6.5897,-6.5897,-6.5897,-6.5897,-6.5897,-6.5897,-6.5859,-6.5513,-6.5051,-6.4551,-6.3858,-6.3243,-6.2704,-6.1858,-6.1243,-6.0781,-6.0781,-6.0781,-6.0781,-6.0781,-6.0781,-6.0781,-6.0781,-6.0781,-6.0781,-6.0781,-6.0781,-6.0781,-6.0781,-6.0781,-6.0781,-6.0781,-6.0781,-6.0781,-6.0781,-6.0781,-6.0781,-6.0781,-6.0781,-6.0781,-6.0781,-6.0757,-6.0722,-6.0697,-6.066,-6.061,-6.0533,-6.0531,-6.0504,-6.0464,-6.0436,-6.0422,-6.0422,-6.0422,-6.0422,-6.0422,-6.0422,-6.0422,-6.0422,-6.0422,-6.0422,-6.0422,-5.9622,-5.9215,-5.9215,-5.8412,-5.7997,-5.7997,-5.7997,-5.7997,-5.7997,-5.7997,-5.7997,-5.1904,-5.1709,-5.2216,-5.4444,-5.3936,0.0,-5.8536,-5.9784,-6.0874,-6.4065,-6.5548,-6.6759,-6.8396,-6.8122,-6.82,-6.9723,-7.023,-7.0777,-7.1831,-7.1987,-7.1987,-7.1987,-7.1245,-7.0387,-6.9606,-6.8355,-6.7293,-6.6508,-6.6102,-6.5897,-6.5897,-6.5897,-6.5897,-6.5897,-6.5897,-6.5897,-6.5897,-6.5897,-6.5897,-6.5897,-6.5897,-6.5897,-6.5897,-6.5897,-6.5859,-6.5705,-6.4936,-6.4474,-6.4205,-6.2716,-6.2101,-6.2024,-6.1127,-6.0781,-6.0781,-6.0781,-6.0781,-6.0781,-6.0781,-6.0781,-6.0781,-6.0781,-6.0781,-6.0781,-6.0781,-6.0781,-6.0781,-6.0781,-6.0781,-6.0781,-6.0781,-6.0781,-6.0781,-6.0781,-6.0781,-6.0781,-6.0781,-6.0781,-6.0781,-6.0781,-6.0781,-6.0769,-6.071,-6.071,-6.0685,-6.061,-6.0546,-6.0506,-6.0493,-6.0425,-6.0422,-6.0422,-6.0384,-6.0422,-6.0422,-6.0422,-6.0422,-6.0422,-6.0422,-6.0356,-6.0328,-5.9588,-5.9197,-5.914,-5.8391,-5.7997,-5.7997,-5.7997,-5.7997,-5.7997,-5.7997,-5.7997,-5.3528,-5.3489,-5.345,-5.3256,-5.3489,0.0,-5.4113,-5.5837,-5.7713,-5.9068,-6.1104,-6.3019,-6.4065,-6.4687,-6.5155,-6.5507,-6.7264,-6.9411,-7.1675,-7.1987,-7.1987,-7.1987,-7.1245,-7.0621,-7.0465,-6.8705,-6.7526,-6.7371,-6.646,-6.5897,-6.5897,-6.5897,-6.5897,-6.5897,-6.5897,-6.5897,-6.5897,-6.5897,-6.5897,-6.5897,-6.5897,-6.5897,-6.5897,-6.5897,-6.5513,-6.4859,-6.4666,-6.382,-6.2563,-6.2216,-6.2101,-6.2024,-6.1127,-6.0781,-6.0781,-6.0781,-6.0781,-6.0781,-6.0781,-6.0781,-6.0781,-6.0781,-6.0781,-6.0781,-6.0781,-6.0781,-6.0781,-6.0781,-6.0781,-6.0781,-6.0781,-6.0781,-6.0781,-6.0781,-6.0781,-6.0781,-6.0781,-6.0781,-6.0781,-6.0781,-6.0781,-6.0781,-6.0769,-6.0769,-6.0746,-6.0685,-6.066,-6.0635,-6.061,-6.0506,-6.0466,-6.0466,-6.0412,-6.0422,-6.0422,-6.0422,-6.0422,-6.0422,-6.0422,-6.027,-5.9922,-5.945,-5.9065,-5.873,-5.8216,-5.7997,-5.7997,-5.7997,-5.7997,-5.7997,-5.7997,-5.7997,-5.4225,-5.399,-5.3912,-5.3444,-5.3366,0.0,0.0,-5.4348,-5.5794,-5.7467,-5.8523,-5.9697,-6.141,-6.1369,-6.1486,-6.2774,-6.4804,-6.6795,-6.8552,-7.066,-7.1987,-7.1987,-7.1597,-7.1167,-7.0738,-6.9212,-6.7851,-6.6835,-6.621,-6.5897,-6.5897,-6.5474,-6.5436,-6.5897,-6.5474,-6.5474,-6.5897,-6.5897,-6.5897,-6.5897,-6.5897,-6.5897,-6.5897,-6.5436,-6.5013,-6.4551,-6.3705,-6.2858,-6.2062,-6.1639,-6.1447,-6.1408,-6.0973,-6.0781,-6.0781,-6.0781,-6.0781,-6.0781,-6.0781,-6.0781,-6.0781,-6.0781,-6.0781,-6.0781,-6.0781,-6.0781,-6.0781,-6.0781,-6.0781,-6.0781,-6.0781,-6.0781,-6.0781,-6.0781,-6.0781,-6.0781,-6.0781,-6.0781,-6.0781,-6.0781,-6.0781,-6.0781,-6.0781,-6.0781,-6.0769,-6.0746,-6.071,-6.0685,-6.0648,-6.0546,-6.048,-6.048,-6.0464,-6.0422,-6.0422,-6.0422,-6.0422,-6.0422,-6.0422,-6.0313,-6.0114,-5.952,-5.8929,-5.8304,-5.8097,-5.7997,-5.7997,-5.7997,-5.7997,-5.7997,-5.7997,-5.7997,-5.4923,-5.4498,-5.442,-5.4068,-5.36,-5.3251,0.0,0.0,0.0,-5.6411,-5.6567,-5.6996,-5.9026,-5.8285,-5.8011,-6.0119,-6.2071,-6.3555,-6.4258,-6.7927,-7.0699,-7.1206,-7.1402,-7.1285,-7.0738,-6.949,-6.7906,-6.6085,-6.5781,-6.5628,-6.5628,-6.4974,-6.4859,-6.5397,-6.4897,-6.4936,-6.5628,-6.582,-6.5897,-6.5897,-6.5897,-6.582,-6.5628,-6.4936,-6.4436,-6.4051,-6.2666,-6.1985,-6.1793,-6.1089,-6.0781,-6.0781,-6.0781,-6.0781,-6.0781,-6.0781,-6.0781,-6.0781,-6.0781,-6.0781,-6.0781,-6.0781,-6.0781,-6.0781,-6.0781,-6.0781,-6.0781,-6.0781,-6.0781,-6.0781,-6.0781,-6.0781,-6.0781,-6.0781,-6.0781,-6.0781,-6.0781,-6.0781,-6.0781,-6.0781,-6.0781,-6.0781,-6.0781,-6.0781,-6.0781,-6.0781,-6.0746,-6.071,-6.071,-6.0585,-6.0506,-6.0506,-6.0464,-6.0422,-6.0422,-6.0422,-6.0422,-6.0422,-6.0422,-6.0328,-6.0159,-5.9397,-5.8648,-5.802,-5.7997,-5.7997,-5.7997,-5.7997,-5.7997,-5.7997,-5.7997,-5.7997,-5.6514,-5.6294,-5.5942,-5.4381,-5.4498,-5.442,-5.2195,0.0,-5.3873,-5.3368,0.0,-5.5552,-5.5825,0.0,0.0,-5.5981,-5.8089,-5.9729,-5.9805,-6.293,-6.6014,-6.8279,-6.9215,-6.9957,-7.0621,-6.895,-6.7346,-6.6165,-6.5261,-6.4743,-6.4743,-6.4666,-6.4282,-6.3628,-6.4243,-6.4666,-6.4743,-6.5513,-6.5897,-6.5897,-6.5897,-6.5513,-6.4743,-6.4666,-6.3782,-6.237,-6.2178,-6.1678,-6.0935,-6.0819,-6.0781,-6.0781,-6.0781,-6.0781,-6.0781,-6.0781,-6.0781,-6.0781,-6.0781,-6.0781,-6.0781,-6.0781,-6.0781,-6.0781,-6.0781,-6.0781,-6.0781,-6.0781,-6.0781,-6.0781,-6.0781,-6.0781,-6.0781,-6.0781,-6.0781,-6.0781,-6.0781,-6.0781,-6.0781,-6.0781,-6.0781,-6.0781,-6.0781,-6.0781,-6.0781,-6.0781,-6.0781,-6.0769,-6.0769,-6.066,-6.061,-6.061,-6.0491,-6.0422,-6.0422,-6.0422,-6.0422,-6.0422,-6.0422,-6.0084,-5.9379,-5.8545,-5.8074,-5.7997,-5.7997,-5.7997,-5.7997,-5.7997,-5.7997,-5.7997,-5.7997,-5.7997,-5.6613,-5.6363,-5.6078,-5.4992,-5.4594,-5.403,-5.2501,-5.2312,-5.2663,-5.3327,0.0,0.0,0.0,0.0,0.0,0.0,-5.5552,-5.6918,-5.6918,-5.9417,-6.2423,-6.5546,-6.6209,-6.6496,-6.6668,-6.64,-6.5907,-6.528,-6.4843,-6.4589,-6.4589,-6.4128,-6.3666,-6.3308,-6.3666,-6.4089,-6.4589,-6.5474,-6.5897,-6.5897,-6.5397,-6.4936,-6.4589,-6.3589,-6.2793,-6.2062,-6.1562,-6.1127,-6.0781,-6.0781,-6.0781,-6.0781,-6.0781,-6.0781,-6.0781,-6.0781,-6.0781,-6.0781,-6.0781,-6.0781,-6.0781,-6.0781,-6.0781,-6.0781,-6.0781,-6.0781,-6.0781,-6.0781,-6.0781,-6.0781,-6.0781,-6.0781,-6.0781,-6.0781,-6.0781,-6.0781,-6.0781,-6.0781,-6.0781,-6.0781,-6.0781,-6.0781,-6.0781,-6.0781,-6.0781,-6.0781,-6.0781,-6.0781,-6.0781,-6.0673,-6.0585,-6.0585,-6.0466,-6.0422,-6.0422,-6.0422,-6.0422,-6.0422,-6.0173,-5.9809,-5.9234,-5.8648,-5.8253,-5.7997,-5.7997,-5.7997,-5.7997,-5.7997,-5.7997,-5.7997,-5.7997,-5.7997,-5.7131,-5.6714,-5.6263,-5.5422,-5.4518,-5.3522,-5.2574,-5.2234,-5.2468,-5.3756,-5.4068,0.0,0.0,0.0,-5.3953,-5.3485,0.0,-5.5125,-5.4656,-5.6372,-5.8987,-6.2462,-6.3516,-6.3754,-6.3258,-6.3722,-6.4037,-6.404,-6.3738,-6.3666,-6.3897,-6.332,-6.2858,-6.2627,-6.3051,-6.3589,-6.4243,-6.5359,-6.5897,-6.5897,-6.5013,-6.4474,-6.4205,-6.2743,-6.1985,-6.1716,-6.105,-6.0781,-6.0781,-6.0781,-6.0781,-6.0781,-6.0781,-6.0781,-6.0781,-6.0781,-6.0781,-6.0781,-6.0781,-6.0781,-6.0781,-6.0781,-6.0781,-6.0781,-6.0781,-6.0781,-6.0781,-6.0781,-6.0781,-6.0781,-6.0781,-6.0781,-6.0781,-6.0781,-6.0781,-6.0781,-6.0781,-6.0781,-6.0781,-6.0781,-6.0781,-6.0781,-6.0781,-6.0781,-6.0781,-6.0781,-6.0781,-6.0781,-6.0781,-6.0685,-6.061,-6.0585,-6.0518,-6.0436,-6.0422,-6.0422,-6.0342,-6.0256,-5.9858,-5.9467,-5.9065,-5.8648,-5.8282,-5.7997,-5.7997,-5.7997,-5.7997,-5.7997,-5.7997,-5.7997,-5.7997,-5.7997,-5.8806,-5.7994,-5.6977,-5.5414,-5.439,-5.3405,-5.1794,-5.2741,-5.3912,-5.399,-5.5942,-5.766,-5.766,-5.766,-5.7113,-5.5476,-5.5242,0.0,0.0,-5.3561,-5.5435,-5.8868,-6.1486,-6.2694,-6.183,-6.1573,-6.173,-6.2517,-6.1533,-6.1281,-6.2139,-6.2139,-6.1755,-6.0896,-6.2435,-6.3308,-6.3346,-6.5051,-6.5897,-6.5897,-6.5013,-6.4166,-6.3308,-6.2474,-6.1639,-6.0819,-6.0819,-6.0781,-6.0781,-6.0781,-6.0781,-6.0781,-6.0781,-6.0781,-6.0781,-6.0781,-6.0781,-6.0781,-6.0781,-6.0781,-6.0781,-6.0781,-6.0781,-6.0781,-6.0781,-6.0781,-6.0781,-6.0781,-6.0781,-6.0781,-6.0781,-6.0781,-6.0781,-6.0781,-6.0781,-6.0781,-6.0781,-6.0781,-6.0781,-6.0781,-6.0781,-6.0781,-6.0781,-6.0781,-6.0781,-6.0781,-6.0781,-6.0781,-6.0781,-6.0734,-6.066,-6.0623,-6.0558,-6.0491,-6.0422,-6.0422,-6.0217,-5.9842,-5.945,-5.9046,-5.8628,-5.8253,-5.802,-5.7997,-5.7997,-5.7997,-5.7997,-5.7997,-5.7997,-5.7997,-5.7997,-5.7997,0.0,0.0,-5.6914,-5.5974,-5.4608,-5.3281,-5.2337,-5.3033,-5.4063,-5.4726,-5.6411,-5.7816,-5.7816,-5.7816,-5.7231,-5.5552,-5.532,-5.4695,0.0,-5.2938,-5.3795,-5.5513,-5.7504,-5.8816,-5.8964,-5.9343,-5.9862,-6.0597,-6.0226,-6.0319,-6.1166,-6.1243,-6.1089,-6.0819,-6.2435,-6.3308,-6.3308,-6.5013,-6.5897,-6.5859,-6.4436,-6.3589,-6.3231,-6.1858,-6.1089,-6.0781,-6.0781,-6.0781,-6.0781,-6.0781,-6.0781,-6.0781,-6.0781,-6.0781,-6.0781,-6.0781,-6.0781,-6.0781,-6.0781,-6.0781,-6.0781,-6.0781,-6.0781,-6.0781,-6.0781,-6.0781,-6.0781,-6.0781,-6.0781,-6.0781,-6.0781,-6.0781,-6.0781,-6.0781,-6.0781,-6.0781,-6.0781,-6.0781,-6.0781,-6.0781,-6.0781,-6.0781,-6.0781,-6.0781,-6.0781,-6.0781,-6.0781,-6.0781,-6.0781,-6.0734,-6.066,-6.0623,-6.052,-6.0453,-6.0422,-6.0422,-6.0328,-6.0226,-5.9826,-5.9537,-5.9415,-5.875,-5.8412,-5.8412,-5.8119,-5.7997,-5.7997,-5.7997,-5.7997,-5.7997,-5.7997,-5.7997,-5.93,-5.862,0.0,-5.7085,-5.5838,-5.4591,-5.393,-5.4684,-5.5799,-5.6753,-5.8055,-5.9108,-5.942,-5.9014,-5.8097,-5.638,-5.5658,-5.4576,0.0,-5.2509,-5.3014,-5.3912,-5.5279,-5.6389,-5.7052,-5.7259,-5.7744,-5.872,-5.841,-5.8665,-5.9858,-6.0165,-6.0319,-6.0319,-6.2281,-6.3308,-6.3308,-6.5013,-6.5897,-6.5859,-6.4128,-6.3308,-6.3231,-6.155,-6.0781,-6.0781,-6.0781,-6.0781,-6.0781,-6.0781,-6.0781,-6.0781,-6.0781,-6.0781,-6.0781,-6.0781,-6.0781,-6.0781,-6.0781,-6.0781,-6.0781,-6.0781,-6.0781,-6.0781,-6.0781,-6.0781,-6.0781,-6.0781,-6.0781,-6.0781,-6.0781,-6.0781,-6.0781,-6.0781,-6.0781,-6.0781,-6.0781,-6.0781,-6.0781,-6.0781,-6.0781,-6.0781,-6.0781,-6.0781,-6.0781,-6.0781,-6.0781,-6.0781,-6.0781,-6.1027,-6.1043,-6.0636,-6.0852,-6.0824,-6.0422,-6.0422,-6.0328,-6.0212,-5.9937,-5.976,-5.9588,-5.8931,-5.8607,-5.8607,-5.8209,-5.7997,-5.7997,-5.7997,-5.7997,-5.7997,-5.7997,-5.7997]},{"header":{"parameterUnit":"m.s-1","parameterCategory":1,"la1":30.6,"la2":29.2853,"lo1":-89.7004,"lo2":-87.6739,"dy":0.0162,"dx":0.0183,"nx":112,"ny":82,"refTime":"2026-05-04T12:00:00:Z","depth":0,"parameterNumber":3,"parameterNumberName":"V-component_of_WINDS"},"data":[0.0,0.0,0.0,0.0,0.0,0.0,0.0,0.0,0.0,0.0,0.0,0.0,0.0,0.0,0.0,0.0,0.0,0.0,0.0,0.0,0.0,0.0,0.0,0.0,0.0,0.0,0.0,0.0,0.0,0.0,0.0,0.0,0.0,0.0,0.0,0.0,0.0,0.0,0.0,0.0,0.0,0.0,0.0,0.0,0.0,0.0,0.0,0.0,0.0,0.0,0.0,0.0,0.0,0.0,0.0,0.0,0.0,0.0,0.0,0.0,0.0,0.0,0.0,0.0,0.0,0.0,0.0,0.0,0.0,0.0,0.0,0.0,0.0,0.0,0.0,0.0,0.0,0.0,0.0,0.0,0.0,0.0,0.0,0.0,0.0,0.0,0.0,0.0,0.0,0.0,0.2264,0.2352,0.2506,0.2194,0.1054,-0.056,-0.1983,-0.3038,0.0,0.0,0.0,0.0,0.0,0.0,0.0,0.0,0.0,0.0,0.0,0.0,0.0,0.0,0.0,0.0,0.0,0.0,0.0,0.0,0.0,0.0,0.0,0.0,0.0,0.0,0.0,0.0,0.0,0.0,0.0,0.0,0.0,0.0,0.0,0.0,0.0,0.0,0.0,0.0,0.0,0.0,0.0,0.0,0.0,0.0,0.0,0.0,0.0,0.0,0.0,0.0,0.0,0.0,0.0,0.0,0.0,0.0,0.0,0.0,0.0,0.0,0.0,0.0,0.0,0.0,0.0,0.0,0.0,0.0,0.0,0.0,0.0,0.0,0.0,0.0,0.0,0.0,0.0,0.0,0.0,0.0,0.0,0.0,0.0,0.0,0.0,0.0,0.0,0.0,0.0,0.0,0.0,0.0,0.0,0.0,0.0,0.0,0.0,0.0,0.0,0.0,0.0,0.0,0.2251,0.2463,0.2556,0.2511,0.2328,0.1099,-0.0225,-0.138,0.0,0.0,0.0,0.0,0.0,0.0,0.0,0.0,0.0,0.0,0.0,0.0,0.0,0.0,0.0,0.0,0.0,0.0,0.0,0.0,0.0,0.0,0.0,0.0,0.0,0.0,0.0,0.0,0.0,0.0,0.0,0.0,0.0,0.0,0.0,0.0,0.0,0.0,0.0,0.0,0.0,0.0,0.0,0.0,0.0,0.0,0.0,0.0,0.0,0.0,0.0,0.0,0.0,0.0,0.0,0.0,0.0,0.0,0.0,0.0,0.0,0.0,0.0,0.0,0.0,0.0,0.0,0.0,0.0,0.0,0.0,0.0,0.0,0.0,0.0,0.0,0.0,0.0,0.0,0.0,0.0,0.0,0.0,0.0,0.0,0.0,0.0,0.0,0.0,0.0,0.0,0.0,0.0,0.0,0.0,0.0,0.0,0.0,0.0,0.0,0.0,0.0,0.0,0.2184,0.2303,0.2493,0.2523,0.2532,0.2534,0.1386,0.0147,-0.1091,-0.3258,0.0,0.0,0.0,0.0,0.0,0.0,0.0,0.0,0.0,0.0,0.0,0.0,0.0,0.0,0.0,0.0,0.0,0.0,0.0,0.0,0.0,0.0,0.0,0.0,0.0,0.0,0.0,0.0,0.0,0.0,0.0,0.0,0.0,0.0,0.0,0.0,0.0,0.0,0.0,0.0,0.0,0.0,0.0,0.0,0.0,0.0,0.0,0.0,0.0,0.0,0.0,0.0,0.0,0.0,0.0,0.0,0.0,0.0,0.0,0.0,0.0,0.0,0.0,0.0,0.0,0.0,0.0,0.0,0.0,0.0,0.0,0.0,0.0,0.0,0.0,0.0,0.0,0.0,0.0,0.0,0.0,0.0,0.0,0.0,0.0,0.0,0.0,0.0,0.0,0.0,0.0,0.0,0.0,0.0,0.0,0.0,0.0,0.0,0.0,0.0,0.0,0.0,0.2264,0.235,0.2478,0.2472,0.2467,0.2491,0.1577,0.0358,-0.1012,-0.2268,0.0,0.0,0.0,0.0,0.0,0.0,0.0,0.0,0.0,0.0,0.0,0.0,0.0,0.0,0.0,0.0,0.0,0.0,0.0,0.0,0.0,0.0,0.0,0.0,0.0,0.0,0.0,0.0,0.0,0.0,0.0,0.0,0.0,0.0,0.0,0.0,0.0,0.0,0.0,0.0,0.0,0.0,0.0,0.0,0.0,0.0,0.0,0.0,0.0,0.0,0.0,0.0,0.0,0.0,0.0,0.0,0.0,0.0,0.0,0.0,0.0,0.0,0.0,0.0,0.0,0.0,0.0,0.0,0.0,0.0,0.0,0.0,0.0,0.0,0.0,0.0,0.0,0.0,0.0,0.0,0.0,0.0,0.0,0.0,0.0,0.0,0.0,0.0,0.0,0.0,0.0,0.0,0.0,0.0,0.0,0.0,0.0,0.0,0.0,0.0,0.0,0.0,0.2243,0.2356,0.2423,0.2428,0.2428,0.2429,0.2177,0.1252,-0.0606,-0.1384,0.0,0.0,0.0,0.0,0.0,0.0,0.0,0.0,0.0,0.0,0.0,0.0,0.0,0.0,0.0,0.0,0.0,0.0,0.0,0.0,0.0,0.0,0.0,0.0,0.0,0.0,0.0,0.0,0.0,0.0,0.0,0.0,0.0,0.0,0.0,0.0,0.0,0.0,0.0,0.0,0.0,0.0,0.0,0.0,0.0,0.0,0.0,0.0,0.0,0.0,0.0,0.0,0.0,0.0,0.0,0.0,0.0,0.0,0.0,0.0,0.0,0.0,0.0,0.0,0.0,0.0,0.0,0.0,0.0,0.0,0.0,0.0,0.0,0.0,0.0,0.0,0.0,0.0,0.0,0.0,0.0,0.0,0.0,0.0,0.0,0.0,0.0,0.0,0.0,0.0,0.0,0.0,0.0,0.0,0.0,0.0,0.0,0.0,0.0,0.0,0.0,0.0,0.2196,0.2308,0.2387,0.2395,0.2387,0.2368,0.2309,0.1661,0.026,0.0,0.0,0.0,0.0,0.0,0.0,0.0,0.0,0.0,0.0,0.0,0.0,0.0,0.0,0.0,0.0,0.0,0.0,0.0,0.0,0.0,0.0,0.0,0.0,0.0,0.0,0.0,0.0,0.0,0.0,0.0,0.0,0.0,0.0,0.0,0.0,0.0,0.0,0.0,0.0,0.0,0.0,0.0,0.0,0.0,0.0,0.0,0.0,0.0,0.0,0.0,0.0,0.0,0.0,0.0,0.0,0.0,0.0,0.0,0.0,0.0,0.0,0.0,0.0,0.0,0.0,0.0,0.0,0.0,0.0,0.0,0.0,0.0,0.0,0.0,0.0,0.0,0.0,0.0,0.0,0.0,0.0,0.0,0.0,0.0,0.0,0.0,0.0,0.0,0.0,0.0,0.0,0.0,0.0,0.0,0.0,0.0,0.0,0.0,0.0,0.0,0.0,0.2037,0.2163,0.2273,0.2343,0.2358,0.2356,0.2334,0.2281,0.1844,0.0765,0.0,0.0,0.0,0.0,0.0,0.0,0.0,0.0,0.0,0.0,0.0,0.0,0.0,0.0,0.0,0.0,0.0,0.0,0.0,0.0,0.0,0.0,0.0,0.0,0.0,0.0,0.0,0.0,0.0,0.0,0.0,0.0,0.0,0.0,0.0,0.0,0.0,0.0,0.0,0.0,0.0,0.0,0.0,0.0,0.0,0.0,0.0,0.0,0.0,0.0,0.0,0.0,0.0,0.0,0.0,0.0,0.0,0.0,0.0,0.0,0.0,0.0,0.0,0.0,0.0,0.0,0.0,0.0,0.0,0.0,0.0,0.0,0.0,0.0,0.0,0.0,0.0,0.0,0.0,0.0,0.0,0.0,0.0,0.0,0.0,0.0,0.0,0.0,0.0,0.0,0.0,0.0,0.0,0.0,0.0,0.0,0.0,0.0,0.0,0.0,0.0,0.0,0.2011,0.2151,0.2258,0.2288,0.2316,0.2333,0.2331,0.2223,0.1729,0.0,0.0,0.0,0.0,0.0,0.0,0.0,0.0,0.0,0.0,0.0,0.0,0.0,0.0,0.0,0.0,0.0,0.0,0.0,0.0,0.0,0.0,0.0,0.0,0.0,0.0,0.0,0.0,0.0,0.0,0.0,0.0,0.0,0.0,0.0,0.0,0.0,0.0,0.0,0.0,0.0,0.0,0.0,0.0,0.0,0.0,0.0,0.0,0.0,0.0,0.0,0.0,0.0,0.0,0.0,0.0,0.0,0.0,0.0,0.0,0.0,0.0,0.0,0.0,0.0,0.0,0.0,0.0,0.0,0.0,0.0,0.0,0.0,0.0,0.0,0.0,0.0,0.0,0.0,0.0,0.0,0.0,0.0,0.0,0.0,0.0,0.0,0.0,0.0,0.0,0.0,0.0,0.0,0.0,0.0,0.0,0.0,0.0,0.0,0.0,0.0,0.0,0.0,0.2037,0.2165,0.2194,0.2315,0.2328,0.2316,0.2204,0.2238,0.2013,0.1548,0.0,0.0,0.0,0.0,0.0,0.0,0.0,0.0,0.0,0.0,0.0,0.0,0.0,0.0,0.0,0.0,0.0,0.0,0.0,0.0,0.0,0.0,0.0,0.0,0.0,0.0,0.0,0.0,0.0,0.0,0.0,0.0,0.0,0.0,0.0,0.0,0.0,0.0,0.0,0.0,0.0,0.0,0.0,0.0,0.0,0.0,0.0,0.0,0.0,0.0,0.0,0.0,0.0,0.0,0.0,0.0,0.0,0.0,0.0,0.0,0.0,0.0,0.0,0.0,0.0,0.0,0.0,0.0,0.0,0.0,0.0,0.0,0.0,0.0,0.0,0.0,0.0,0.0,0.0,0.0,0.0,0.0,0.0,0.0,0.0,0.0,0.0,0.0,0.0,0.0,0.0,0.0,0.0,0.0,0.0,0.0,0.0,0.0,0.0,0.0,0.0,0.0,0.2033,0.2162,0.2192,0.2311,0.2326,0.2313,0.2267,0.2241,0.2147,0.1962,0.0,0.0,0.0,0.0,0.0,0.0,0.0,0.0,0.0,0.0,0.0,0.0,0.0,0.0,0.0,0.0,0.0,0.0,0.0,0.0,0.0,0.0,0.0,0.0,0.0,0.0,0.0,0.0,0.0,0.0,0.0,0.0,0.0,0.0,0.0,0.0,0.0,0.0,0.0,0.0,0.0,0.0,0.0,0.0,0.0,0.0,0.0,0.0,0.0,0.0,0.0,0.0,0.0,0.0,0.0,0.0,0.0,0.0,0.0,0.0,0.0,0.0,0.0,0.0,0.0,0.0,0.0,0.0,0.0,0.0,0.0,0.0,0.0,0.0,0.0,0.0,0.0,0.0,0.0,0.0,0.0,0.0,0.0,0.0,0.0,0.0,0.0,0.0,0.0,0.0,0.0,0.0,0.0,0.0,0.0,0.0,0.0,0.0,0.0,0.0,0.0,0.0,0.2011,0.222,0.2397,0.2288,0.2313,0.2316,0.2285,0.2229,0.2133,0.1986,0.0,0.0,0.0,0.0,0.0,0.0,0.0,0.0,0.0,0.0,0.0,0.0,0.0,0.0,0.0,0.0,0.0,0.0,0.0,0.0,0.0,0.0,0.0,0.0,0.0,0.0,0.0,0.0,0.0,0.0,0.0,0.0,0.0,0.0,0.0,0.0,0.0,0.0,0.0,0.0,0.0,0.0,0.0,0.0,0.0,0.0,0.0,0.0,0.0,0.0,0.0,0.0,0.0,0.0,0.0,0.0,0.0,0.0,0.0,0.0,0.3477,0.2128,0.0,0.0,0.0,0.0,0.0,0.0,0.0,0.0,0.0,0.0,0.0,0.0,0.0,0.0,0.0,0.0,0.0,0.0,0.0,0.0,0.0,0.0,0.0,0.0,0.0,0.0,0.0,0.0,0.0,0.0,0.0,0.0,0.0,0.0,0.0,0.0,0.0,0.0,0.0,0.0,0.2231,0.3175,0.352,0.243,0.2296,0.2278,0.2223,0.2185,0.211,0.1985,0.1884,0.0,0.0,0.0,0.0,0.0,0.0,0.0,0.0,0.0,0.0,0.0,0.0,0.0,0.0,0.0,0.0,0.0,0.0,0.0,0.0,0.0,0.0,0.0,0.0,0.0,0.0,0.0,0.0,0.0,0.0,0.0,0.0,0.0,0.0,0.0,0.0,0.0,0.0,0.0,0.0,0.0,0.0,0.0,0.0,0.0,0.0,0.0,0.0,0.0,0.0,0.0,0.0,0.0,0.0,0.0,0.0,0.0,0.0,0.0,0.5647,0.4689,0.0,0.0,0.0,0.0,0.0,0.0,0.0,0.0,0.0,0.0,0.0,0.0,0.0,0.0,0.0,0.0,0.0,0.0,0.0,0.0,0.0,0.0,0.0,0.0,0.0,0.0,0.0,0.0,0.0,0.0,0.0,0.0,0.0,0.0,0.0,0.0,0.0,0.0,0.0,0.0,0.3918,0.4724,0.5112,0.4656,0.4594,0.4625,0.4735,0.4238,0.3798,0.3597,0.2915,0.0,0.0,0.0,0.0,0.0,0.0,0.0,0.0,0.0,0.0,0.0,0.0,0.0,0.0,0.0,0.0,0.0,0.0,0.0,0.0,0.0,0.0,0.0,0.0,0.0,0.0,0.0,0.0,0.0,0.0,0.0,0.0,0.0,0.0,0.0,0.0,0.0,0.0,0.0,0.0,0.0,0.0,0.0,0.0,0.0,0.0,0.0,0.0,0.0,0.0,0.0,0.0,0.0,0.8998,0.9071,0.9164,0.9237,0.9169,0.8983,0.8619,0.8113,0.7482,0.7233,0.0,0.0,0.0,0.0,0.0,0.0,0.0,0.0,0.0,0.0,0.0,0.0,0.0,0.0,0.0,0.0,0.0,0.0,0.0,0.0,0.0,0.0,0.5079,0.6302,0.6836,0.6661,0.5021,0.0,0.0,0.0,0.0,0.0,0.0,0.0,0.0,0.0,0.0,0.0,0.5882,0.641,0.677,0.7143,0.7078,0.7164,0.74,0.6564,0.5923,0.5661,0.459,0.3868,0.0,0.0,0.0,0.0,0.0,0.0,0.0,0.0,0.0,0.0,0.0,0.0,0.0,0.0,0.0,0.0,0.0,0.0,0.0,0.0,0.0,0.0,0.0,0.0,0.0,0.0,0.0,0.0,0.0,0.0,0.0,0.0,1.1843,1.1959,0.0,0.0,0.0,0.0,0.0,0.0,0.0,0.0,0.0,0.0,0.0,0.0,0.0,1.1914,1.2298,1.2403,1.2466,1.2485,1.2862,1.305,1.3063,1.2965,1.29,1.2855,1.2667,0.0,0.7734,0.7469,0.0,0.0,0.0,0.0,0.0,0.0,0.0,0.0,0.0,0.0,0.0,0.0,0.0,0.0,0.0,0.0,0.0,0.0,0.0,0.0,0.0,0.0,0.6493,0.676,0.7679,0.8407,0.8081,0.7098,0.6292,0.5972,0.5795,0.5643,0.0,0.0,0.0,0.0,0.0,0.0,0.6661,0.7495,0.7947,0.7519,0.7053,0.6898,0.7191,0.708,0.7006,0.6928,0.6827,0.6825,0.6897,0.6376,0.0,0.0,0.0,0.0,0.0,0.0,0.0,0.0,0.0,0.0,0.0,0.0,0.0,0.0,0.0,0.0,0.0,0.0,0.0,0.0,0.0,0.0,0.0,0.0,0.0,0.0,0.0,0.0,0.0,1.1635,1.2386,1.1979,1.2155,1.2067,0.0,0.0,0.0,0.0,0.0,0.0,0.0,0.0,0.0,1.2773,1.2807,1.299,1.3349,1.3485,1.3593,1.3682,1.3878,1.4014,1.4095,1.4034,1.396,1.3871,1.3715,1.2625,1.1044,1.0472,0.9664,0.8703,0.0,0.0,0.0,0.0,0.6911,0.6885,0.7005,0.7009,0.6958,0.6898,0.0,0.0,0.0,0.0,0.0,0.0,0.0,0.6601,0.7668,0.801,0.8323,0.9229,0.9894,1.0341,1.0123,0.9552,0.8898,0.8291,0.8153,0.7974,0.7374,0.6883,0.0,0.0,0.0,0.7867,0.8397,0.9115,0.9638,0.978,0.9686,0.9772,1.0326,0.9671,0.923,0.9181,0.8568,0.8065,0.7822,0.7487,0.699,0.0,0.0,0.0,0.0,0.0,0.0,0.0,0.0,0.0,0.0,0.0,0.0,0.0,0.0,0.0,0.0,0.0,0.0,0.0,0.0,0.0,0.0,0.0,0.0,0.0,0.0,0.0,0.0,1.2223,1.2589,1.2067,1.2433,1.244,0.0,0.0,0.0,0.0,0.0,0.0,1.2773,1.2827,1.3051,1.3498,1.3587,1.3756,1.4007,1.3973,1.4014,1.4129,1.4129,1.419,1.4299,1.4299,1.4197,1.4007,1.3892,1.3736,1.3519,1.2881,1.1856,1.0604,1.0268,0.9418,0.8303,0.8383,0.8363,0.8333,0.8499,0.844,0.841,0.8356,0.8084,0.7825,0.7651,0.0,0.0,0.0,0.0,0.7908,0.9245,0.9676,1.0062,1.1197,1.1538,1.1545,1.128,1.1192,1.0934,1.0141,1.0053,0.9869,0.9123,0.8489,0.0,0.8856,0.8616,0.8803,1.0012,1.0473,1.1021,1.1759,1.1836,1.2012,1.2548,1.1678,1.106,1.1041,1.023,0.9557,0.9106,0.8994,0.8494,0.7639,0.0,0.0,0.0,0.0,0.0,0.0,0.0,0.0,0.0,0.0,0.0,0.0,0.0,0.0,0.0,0.0,0.0,0.0,0.0,0.0,0.0,0.0,0.0,0.0,0.0,0.0,0.0,0.0,0.0,1.2508,1.2996,0.0,0.0,0.0,0.0,1.2461,1.261,1.2949,1.3539,1.3702,1.398,1.4428,1.4319,1.4326,1.4475,1.4346,1.4278,1.4285,1.4285,1.4292,1.4299,1.4299,1.4136,1.3851,1.3759,1.3675,1.339,1.3071,1.284,1.2501,1.2282,1.1911,1.1577,1.1584,1.1584,1.1577,1.1603,1.1517,1.1424,1.1544,1.1204,1.067,1.065,1.0498,0.0,0.0,1.0598,1.0778,1.1147,1.1305,1.1345,1.1572,1.1613,1.1572,1.1416,1.1267,1.1023,1.0548,1.0358,1.0161,0.9822,0.0,0.9357,0.9544,0.969,1.0125,1.1125,1.1277,1.1599,1.2475,1.2091,1.1862,1.2023,1.199,1.1929,1.1945,1.2027,1.2035,1.1789,1.1675,1.0968,0.9659,0.8743,0.0,0.0,0.0,0.0,0.0,0.0,0.0,0.0,0.0,0.0,0.0,0.0,0.0,0.0,0.0,0.0,0.0,0.0,0.0,0.0,0.0,0.0,0.0,0.0,0.0,0.0,0.0,0.0,1.2956,1.3553,0.0,1.2929,1.3037,1.3173,1.3227,1.3458,1.377,1.4177,1.4245,1.4394,1.4652,1.4516,1.4462,1.4509,1.4373,1.4299,1.4299,1.4299,1.4299,1.4299,1.4299,1.4183,1.3987,1.3885,1.3729,1.3532,1.3329,1.3152,1.2983,1.2691,1.2447,1.2264,1.2264,1.2203,1.2142,1.223,1.2169,1.2026,1.1877,1.1626,1.1362,1.126,1.1158,1.1084,1.1138,1.1192,1.128,1.1484,1.1538,1.1552,1.1606,1.1619,1.1552,1.1301,1.1199,1.1056,1.0704,1.0602,1.0405,0.991,0.9897,0.9883,0.9646,1.0028,1.0397,1.0649,1.1123,1.1526,1.1838,1.1821,1.1905,1.219,1.2101,1.2028,1.2028,1.2093,1.1996,1.1703,1.163,1.1278,1.0578,1.0,0.9309,0.0,0.0,0.0,0.0,0.0,0.0,0.0,0.0,0.0,0.0,0.0,0.0,0.0,0.0,0.0,0.0,0.0,0.0,0.0,0.0,0.0,0.0,0.0,0.0,0.0,1.2942,1.3437,1.3342,1.3946,1.4136,1.3532,1.3709,1.3871,1.3926,1.4109,1.4326,1.4577,1.4638,1.4692,1.474,1.4638,1.4563,1.4509,1.4373,1.4299,1.4299,1.4299,1.4272,1.4224,1.4224,1.4116,1.3919,1.3817,1.3688,1.3539,1.339,1.3261,1.3146,1.2901,1.2684,1.2501,1.2501,1.244,1.2366,1.2413,1.2332,1.2182,1.1972,1.1843,1.1742,1.1586,1.1538,1.1531,1.1484,1.147,1.1491,1.1592,1.1619,1.1619,1.1619,1.1579,1.1484,1.1287,1.1158,1.1029,1.0833,1.0758,1.0575,1.0127,1.0279,1.0405,0.9937,1.0476,1.0878,1.0706,1.1279,1.1657,1.1657,1.1808,1.1931,1.2117,1.1955,1.1874,1.1939,1.1825,1.1654,1.1419,1.1354,1.1151,1.0794,1.0436,1.0046,0.9575,0.0,0.0,0.0,0.0,0.0,0.0,0.0,0.0,0.0,0.0,0.0,0.0,0.0,0.0,0.0,0.0,0.0,0.0,0.0,0.0,0.0,0.0,0.0,1.2501,1.3166,1.3648,1.3654,1.4177,1.4421,1.4129,1.4231,1.4373,1.4509,1.4516,1.4584,1.4733,1.4882,1.4896,1.4746,1.4733,1.4658,1.4516,1.4373,1.4299,1.4299,1.4292,1.4217,1.4075,1.4068,1.3905,1.3627,1.3627,1.3546,1.339,1.3234,1.3173,1.3152,1.301,1.2773,1.2508,1.2501,1.2501,1.2481,1.2338,1.2196,1.2142,1.2142,1.2067,1.2033,1.1884,1.1837,1.1803,1.166,1.1619,1.1619,1.1619,1.1619,1.1619,1.1613,1.1497,1.1389,1.1382,1.1151,1.088,1.0873,1.0819,1.067,1.0521,1.0818,1.0906,1.06,1.1108,0.0,1.1526,1.1781,1.2028,1.2012,1.195,1.1947,1.1784,1.1598,1.1565,1.1752,1.1411,1.1208,1.1208,1.1045,1.0794,1.0391,1.0071,0.9803,0.9575,0.0,0.0,0.0,0.0,0.0,0.0,0.0,0.0,0.0,0.0,0.0,0.0,0.0,0.0,0.0,0.0,0.0,0.0,0.0,0.0,0.0,1.2569,1.2942,1.2983,1.3546,1.4027,1.4245,1.4699,1.493,1.474,1.476,1.4753,1.4679,1.4679,1.4699,1.474,1.478,1.4787,1.474,1.4631,1.4557,1.4509,1.4373,1.4299,1.4299,1.419,1.4116,1.4068,1.3953,1.3804,1.3627,1.3627,1.3546,1.339,1.3234,1.3112,1.3003,1.2854,1.2739,1.2657,1.2542,1.2501,1.2481,1.2338,1.2264,1.223,1.223,1.2155,1.2054,1.2013,1.1918,1.1803,1.166,1.1619,1.1619,1.1619,1.1619,1.1592,1.1484,1.1423,1.1335,1.1118,1.0941,1.0847,1.0739,1.0944,1.1035,1.0993,1.1018,1.1006,1.1065,1.1414,1.1635,1.1378,1.1701,1.1931,1.1671,1.1646,1.163,1.1581,1.1403,1.1321,1.137,1.1037,1.0842,1.0842,1.0672,1.0534,1.0383,1.0071,0.9803,0.0,0.0,0.0,0.0,0.0,0.0,0.0,0.0,0.0,0.0,0.0,0.0,0.0,0.0,0.0,0.0,0.0,0.0,0.0,0.0,0.0,0.0,1.3105,1.3478,1.3539,1.3905,1.4278,1.457,1.4896,1.5086,1.5065,1.5059,1.4997,1.4848,1.4835,1.478,1.4652,1.4706,1.4685,1.4557,1.4529,1.4482,1.4421,1.434,1.4272,1.4204,1.4116,1.4007,1.3885,1.379,1.3675,1.3532,1.3532,1.3444,1.3295,1.3146,1.2996,0.0,0.0,0.0,0.0,0.0,1.2413,1.24,1.2318,1.2291,1.2298,1.2359,1.2277,1.2149,1.2155,1.1952,1.1803,1.166,1.1619,1.1619,1.1619,1.1572,1.1504,1.1409,1.1294,1.1158,1.0921,1.0833,1.0759,1.0738,1.0934,0.0,1.1279,1.1395,1.1384,1.1414,1.1689,1.1775,1.1558,1.1736,1.1841,1.1638,1.1614,1.1614,1.1614,1.137,0.0,0.0,0.0,1.0664,1.059,1.0412,0.0,0.0,0.0,0.0,0.0,0.0,0.0,0.0,0.9427,0.9261,0.0,0.0,0.0,0.0,0.0,0.0,0.0,0.0,0.0,0.0,0.0,0.0,0.0,0.0,0.0,0.0,1.3587,1.3919,1.4075,1.4211,1.4401,1.4679,1.4848,1.4991,1.512,1.5133,1.5079,1.4957,1.493,1.4801,1.4523,1.4624,0.0,0.0,0.0,1.4428,1.4299,1.4285,1.4204,1.4075,1.4041,1.3885,1.3627,1.3614,1.3532,1.3397,1.3383,1.3295,1.3159,1.3003,1.284,1.2705,1.2705,1.2623,1.2481,1.2345,1.2291,1.2291,1.2291,0.0,0.0,1.2433,1.2379,1.2237,1.2081,1.1932,1.1782,1.1653,1.1619,1.1613,1.1599,1.1491,1.1382,1.1348,1.1138,1.0873,1.086,1.0806,1.0697,1.0697,1.083,1.1106,1.1414,1.1743,1.1908,1.158,1.1781,1.1971,1.1801,1.1776,1.1768,1.1744,0.0,0.0,1.1952,1.157,1.1487,1.1837,1.1245,1.0724,1.0391,1.0298,1.0269,1.0245,1.0245,1.0266,1.0404,1.0375,1.0383,1.0375,0.989,0.974,0.0,0.0,0.0,0.0,0.0,0.0,0.0,0.0,0.0,0.0,0.0,0.0,0.0,0.0,0.0,1.3485,1.3817,1.4082,1.4238,1.4278,1.4367,1.4536,1.4692,1.4794,1.4821,1.4828,1.4814,1.4787,1.4672,1.4577,1.4516,1.4428,1.436,1.4299,1.4326,1.4326,1.4299,1.4177,1.4102,1.4068,1.3831,0.0,1.3627,1.3498,1.3431,1.3397,1.3268,1.32,1.3152,1.2881,1.2684,1.2549,1.2549,1.2528,1.2481,1.2345,1.2291,1.2291,1.2291,1.2291,1.2298,1.2325,1.223,1.2074,1.1925,1.1775,0.0,1.1626,1.1619,1.1592,1.1463,1.1416,1.1328,1.109,1.0921,1.0847,1.0792,1.0643,1.0534,1.0534,1.0677,1.0919,1.1095,1.15,1.1838,1.1875,1.1966,1.1971,1.1801,1.1776,1.1719,1.1573,1.1549,1.1904,1.2721,1.2541,1.2814,1.3796,1.2743,1.1576,1.0444,1.0534,1.0526,1.0387,1.0379,1.0331,1.0217,1.0363,1.0383,1.0383,1.0269,1.0261,0.0,0.0,0.0,0.0,0.0,0.0,0.0,0.0,0.0,0.0,0.0,1.2662,1.3051,0.0,1.3627,1.4007,1.4136,1.4211,1.4292,1.4299,1.4353,1.4496,1.4577,1.4658,1.4733,1.474,1.4706,1.4631,1.4557,1.4482,1.4407,1.434,1.4299,1.4299,1.4224,1.4183,1.4183,1.4034,1.3919,1.3851,1.3702,1.3587,1.3512,1.3356,1.3288,1.3275,1.3132,1.3024,1.2935,1.2705,1.2569,1.2494,1.2427,1.2393,1.2379,1.223,1.2223,1.2277,1.2203,1.2271,1.2386,1.2311,1.2189,1.2033,1.1877,1.1735,1.1619,1.1619,1.1565,1.1491,1.1409,1.128,1.1131,1.0914,1.0826,1.0812,1.0738,1.0602,1.0493,1.0493,1.0565,1.0642,1.0743,1.1162,1.1634,1.1853,1.1906,1.2109,1.2672,1.2724,1.2884,1.3264,1.3304,1.3442,1.3848,1.3684,1.3733,1.4222,1.3606,1.2955,1.2266,1.1774,1.1511,1.1414,1.0829,1.0517,1.0428,1.0517,1.0566,1.0566,1.0566,1.0566,0.0,0.0,0.0,0.0,0.0,0.0,0.0,0.8875,1.085,1.1604,1.2281,1.2817,1.3482,1.3734,1.3948,1.4276,1.4325,1.4333,1.4306,1.4299,1.434,1.4455,1.4468,1.4516,1.4645,1.4652,1.4604,1.4482,1.4468,1.4421,1.4306,1.4272,1.4258,1.4258,1.4109,1.4027,1.4027,1.3878,1.3743,1.3627,1.36,1.3505,1.3349,1.3227,1.3159,1.3125,1.2976,1.2827,1.2678,1.2556,1.2488,1.2447,1.2332,1.225,1.2189,1.206,1.2115,1.223,1.2101,1.2196,1.2359,1.2271,1.2142,1.1986,1.1837,1.1708,1.1619,1.1619,1.1511,1.1382,1.1355,1.1151,1.0873,1.0847,1.0812,1.0711,1.0683,1.0555,1.0439,1.0412,1.0377,1.0376,1.0438,1.0875,1.1337,1.1647,1.1776,1.2251,1.3545,1.3627,1.4015,1.5003,1.5055,1.4984,1.4963,1.5011,1.4832,1.4471,1.446,1.4352,1.4137,1.3221,1.2733,1.2733,1.1828,1.1337,1.1337,1.1337,1.1227,1.1017,1.1017,1.0907,0.0,0.0,0.0,0.0233,0.1573,0.3387,0.0,0.7593,0.9659,1.1631,1.258,1.3095,1.3112,1.3559,1.3978,1.3893,1.4226,1.4441,1.4319,1.4299,1.4306,1.4319,1.4326,1.4333,1.4346,1.4346,1.434,1.4326,1.4326,1.4319,1.4299,1.417,1.4095,1.4095,1.3946,1.3865,1.3865,1.3722,1.3648,1.3627,1.3492,1.3349,1.32,1.318,1.3105,1.2976,1.282,1.2671,1.2528,1.2508,1.2427,1.2311,1.2298,1.2121,1.1877,1.1864,1.1952,1.2088,1.2142,1.1993,1.1925,1.2047,1.1986,1.183,1.1687,1.1633,1.1619,1.1619,1.1511,1.1362,1.1226,1.107,1.0847,1.0778,1.0731,1.0683,1.0548,1.0405,1.0263,1.0065,0.9964,0.9971,1.0268,1.0618,1.0974,1.1337,1.1587,1.2251,1.3545,1.3445,1.3732,1.4993,1.4906,1.5075,1.5881,1.6712,1.6802,1.5755,1.5701,1.5209,1.4137,1.3976,1.3922,1.3922,1.376,1.3706,1.3706,1.3706,1.3221,1.22,1.22,1.1664,0.0,0.0,0.0,0.0,0.1255,0.2823,0.3826,0.6525,0.9037,1.0349,1.1786,1.3008,1.323,1.3542,1.3745,1.3963,1.4153,1.4229,1.4441,1.4421,1.4394,1.4312,1.4299,1.4299,1.4299,1.4299,1.4299,1.4299,1.4299,1.4299,1.4299,1.4156,1.4075,1.4075,1.3844,1.3715,1.3715,1.3566,1.3498,1.3492,1.3342,1.3234,1.3166,1.2996,1.2834,1.2691,1.2623,1.2562,1.2494,1.2413,1.2345,1.2271,1.2094,1.1999,1.1952,1.1864,1.187,1.1925,1.1925,1.1945,1.1959,1.1938,1.1884,1.1803,1.166,1.1619,1.1599,1.1511,1.1375,1.1226,1.1077,1.0928,1.0799,1.0738,1.0717,1.0677,1.0527,1.0378,1.0236,1.0017,0.9862,0.9822,1.0004,1.0429,1.1088,1.1985,1.2595,1.3269,1.4389,1.5035,1.5737,1.6702,1.6576,1.653,1.6955,1.7384,1.7424,1.6935,1.6882,1.667,1.618,1.5476,1.5156,1.5156,1.446,1.4083,1.4083,1.4083,1.3868,1.3383,1.2689,1.2146,0.0,0.0,0.0,0.0,0.0963,0.2147,0.2741,0.5045,0.7354,0.8354,1.0194,1.1844,1.2218,1.2876,1.343,1.3765,1.3948,1.4094,1.4266,1.4419,1.4462,1.4319,1.4299,1.4299,1.4299,1.4299,1.4299,1.4299,1.4299,1.4285,1.4238,1.4089,1.3987,1.3953,1.3702,1.3566,1.3566,1.3417,1.3336,1.3336,1.3186,1.3091,1.3044,1.2786,1.261,1.2501,1.2501,1.2481,1.244,1.2372,1.2298,1.221,1.2026,1.1972,1.1986,1.1918,1.1898,1.1898,1.1898,1.1938,1.1979,1.187,1.1803,1.1755,1.1653,1.1592,1.1531,1.1423,1.1253,1.1077,1.0907,1.0766,1.0717,1.0717,1.0717,1.067,1.0473,1.0351,1.0222,0.9963,0.9897,0.9822,0.9822,1.0664,1.1623,1.2577,1.3894,1.4942,1.5536,1.6582,1.7452,1.7862,1.7716,1.7582,1.7582,1.7582,1.7582,1.7582,1.7582,1.7582,1.7582,1.6829,1.6393,1.6393,1.553,1.5049,1.5049,1.5049,1.4888,1.4567,1.376,1.3166,0.0,0.0,0.0,0.0,0.0,0.0549,0.252,0.3094,0.3759,0.5782,0.7788,0.9212,0.9212,1.1207,1.2881,1.2754,1.3567,1.4119,1.3829,1.424,1.4462,1.4319,1.4299,1.4299,1.4299,1.4299,1.4299,1.4299,1.4299,1.4238,1.4089,1.3933,1.3783,1.3648,1.3492,1.341,1.341,1.3254,1.318,1.318,1.3037,1.2888,1.2739,1.2583,1.2508,1.2501,1.2501,1.2427,1.2311,1.244,1.2325,1.2081,1.2223,1.2094,1.1857,1.1999,1.2054,1.2054,1.2054,1.1959,1.1837,1.183,1.1735,1.1626,1.1619,1.1518,1.1396,1.1396,1.1179,1.0887,1.088,1.0766,1.0717,1.0717,1.0717,1.0643,1.0351,1.0283,1.0188,0.9883,0.9822,0.9822,0.9822,1.1382,1.2637,1.2697,1.537,1.73,1.6966,1.7512,1.7889,1.7635,1.7582,1.7582,1.7582,1.7582,1.7582,1.7582,1.7582,1.7582,1.7582,1.7582,1.7529,1.7529,1.7529,1.7477,1.7477,1.7477,1.6935,1.5861,1.5808,1.5156,0.0,0.0,0.0,0.0,0.0,0.0185,0.085,0.2086,0.3217,0.3867,0.6523,0.8748,0.8779,1.0503,1.2074,1.2477,1.2904,1.3444,1.4002,1.4172,1.4355,1.4379,1.4441,1.4407,1.4306,1.4299,1.4299,1.4299,1.4204,1.4129,1.4075,1.3838,1.3682,1.3634,1.3478,1.3349,1.3247,1.32,1.3125,1.303,1.2881,1.2725,1.2576,1.2522,1.2501,1.2501,1.2501,1.2474,1.242,1.2271,1.2149,1.2047,1.1904,1.1837,1.1837,1.1891,1.1972,1.2047,1.1945,1.1816,1.1687,1.1687,1.166,1.1619,1.1619,1.1511,1.1369,1.1267,1.1097,1.086,1.0759,1.0758,1.0717,1.0717,1.0643,1.0514,1.0324,1.0202,1.0066,0.9863,0.9822,0.9822,0.9822,1.1382,1.3407,1.5548,1.6449,1.7183,1.7897,1.7831,1.7702,1.7595,1.7582,1.7582,1.7582,1.7582,1.7582,1.7582,1.7582,1.7582,1.7582,1.7582,1.7582,1.7582,1.7582,1.7582,1.7582,1.7582,1.7424,1.6988,1.6234,1.5701,0.0,0.0,0.0,0.0,0.0,0.0,0.0,0.1038,0.1974,0.1954,0.4381,0.6809,0.7357,0.9057,1.075,1.1889,1.2335,1.2759,1.3555,1.39,1.4146,1.4266,1.4379,1.4401,1.4306,1.4251,1.4217,1.4217,1.4129,1.4027,1.3919,1.3736,1.3607,1.3553,1.3397,1.3275,1.3173,1.3071,1.2942,1.2793,1.2698,1.2596,1.2501,1.2501,1.2501,1.2501,1.2501,1.244,1.2332,1.2196,1.2081,1.1965,1.183,1.1803,1.1837,1.1891,1.1911,1.1898,1.185,1.1769,1.1687,1.1633,1.1619,1.1619,1.1619,1.147,1.1287,1.1192,1.1023,1.0779,1.0744,1.0717,1.0717,1.0717,1.0602,1.0453,1.031,1.0161,0.9943,0.9849,0.9822,0.9943,1.0422,1.2457,1.4935,1.7625,1.7585,1.7576,1.838,1.7956,1.7582,1.7582,1.7582,1.7582,1.7582,1.7582,1.7582,1.7582,1.7582,1.7582,1.7582,1.7582,1.7582,1.7582,1.7582,1.7582,1.7582,1.7582,1.7582,1.7582,1.6829,1.6499,0.0,0.0,0.0,0.0,0.0,0.0,0.0,0.0,0.0,0.0,0.1608,0.3416,0.4939,0.6884,0.8924,1.0905,1.1627,1.2136,1.2494,1.3364,1.3965,1.3816,1.4127,1.4306,1.4299,1.4163,1.4068,1.4061,1.4055,1.3926,1.3641,1.362,1.3546,1.3397,1.3247,1.3166,1.3152,1.2861,1.2644,1.2501,1.2501,1.2501,1.2488,1.2488,1.2488,1.2488,1.2488,1.2338,1.2094,1.2237,1.2121,1.187,1.1999,1.1965,1.1857,1.1993,1.1864,1.1647,1.1775,1.1823,1.1796,1.166,1.1619,1.1619,1.1613,1.1402,1.1227,1.122,1.0941,1.0717,1.0717,1.0717,1.0717,1.0717,1.0595,1.0446,1.031,1.0154,0.993,0.9849,0.9883,1.0301,1.1631,1.4431,1.7078,1.87,1.8691,1.849,1.8464,1.7943,1.7582,1.7582,1.7582,1.7582,1.7582,1.7582,1.7582,1.7582,1.7582,1.7582,1.7582,1.7582,1.7582,1.7582,1.7582,1.7582,1.7582,1.7582,1.7582,1.7582,1.7582,1.7582,0.0,0.0,0.0,0.0,0.0,0.0,0.0,0.0,0.0,0.0,0.1382,0.2764,0.3145,0.4881,0.6356,0.6963,0.857,0.994,1.0552,1.2326,1.3745,1.388,1.428,1.4414,1.4312,1.4163,1.4021,1.3905,1.3804,1.3709,1.3634,1.3519,1.339,1.3234,1.3193,1.3064,1.2847,1.2657,1.2542,1.2501,1.2501,1.2447,1.2345,1.2345,1.2345,1.2345,1.2345,1.2359,1.2386,1.2318,1.2244,1.2155,1.1965,1.1938,1.1979,1.1803,1.1755,1.1769,1.1694,1.1674,1.1667,1.1633,1.1619,1.1599,1.1484,1.1314,1.1138,1.1029,1.0867,1.0717,1.0717,1.0717,1.0717,1.0717,1.0521,1.0324,1.029,1.0073,0.9869,0.9829,1.0543,1.1804,1.3536,1.5322,1.7138,1.8976,1.8824,1.841,1.8129,1.7822,1.7582,1.7582,1.7582,1.7582,1.7582,1.7582,1.7582,1.7582,1.7582,1.7582,1.7582,1.7582,1.7582,1.7582,1.7582,1.7582,1.7582,1.7582,1.7582,1.7582,1.7582,1.7582,0.0,0.0,0.0,0.0,0.0,0.0,0.0,0.0,0.0,0.0,0.0735,0.1588,0.2287,0.331,0.4321,0.5263,0.6525,0.784,0.9354,1.0839,1.2186,1.3181,1.3823,1.412,1.404,1.4015,1.3933,1.3844,1.3709,1.36,1.3532,1.3451,1.3329,1.318,1.3112,1.2935,1.263,1.2542,1.2501,1.2501,1.244,1.2366,1.2291,1.2223,1.223,1.2291,1.2291,1.2338,1.2406,1.2325,1.221,1.2074,1.1898,1.1843,1.185,1.1681,1.1674,1.1728,1.1647,1.1619,1.1619,1.1619,1.1619,1.1592,1.1436,1.1287,1.1131,1.0989,1.0772,1.0717,1.0717,1.0717,1.0717,1.0717,1.0493,1.0283,1.0283,1.0039,0.9943,1.0543,1.1683,1.3186,1.5084,1.6503,1.7781,1.9013,1.8784,1.8384,1.8035,1.7769,1.7582,1.7582,1.7582,1.7582,1.7582,1.7582,1.7582,1.7582,1.7582,1.7582,1.7582,1.7582,1.7582,1.7582,1.7582,1.7582,1.7582,1.7582,1.7582,1.7582,1.7582,1.7582,0.0,0.0,0.0,0.0,0.0,0.0,0.0,0.0,0.0,0.0,0.0,0.0377,0.1738,0.2027,0.2597,0.4418,0.4895,0.5929,0.8319,0.9135,1.0207,1.2226,1.3118,1.3502,1.3591,1.3674,1.3752,1.3838,1.3688,1.3539,1.341,1.3383,1.3295,1.3119,1.2976,1.2773,1.2501,1.2501,1.2501,1.2501,1.2359,1.2277,1.2257,1.2101,1.2115,1.2257,1.2257,1.2284,1.2318,1.2318,1.2149,1.1891,1.187,1.1775,1.1647,1.1626,1.1619,1.1619,1.1619,1.1619,1.1619,1.1619,1.1619,1.1586,1.1416,1.1267,1.1131,1.0968,1.0819,1.0717,1.0717,1.0717,1.0717,1.0717,1.0493,1.0283,1.0283,1.0163,1.0361,1.1511,1.2946,1.45,1.6208,1.7584,1.8513,1.8897,1.8731,1.8437,1.8089,1.7796,1.7582,1.7582,1.7582,1.7582,1.7582,1.7582,1.7582,1.7582,1.7582,1.7582,1.7582,1.7582,1.7582,1.7582,1.7582,1.7582,1.7582,1.7582,1.7582,1.7582,1.7582,1.7582,0.0,0.0,0.0,0.0,0.0,0.0,0.0,0.0,0.0,0.0,0.0,0.0074,0.0377,0.0381,0.0548,0.0914,0.2322,0.4158,0.6175,0.8186,1.0178,1.2114,1.2705,1.3141,1.3591,1.3413,1.3409,1.3752,1.3593,1.3431,1.3403,1.3281,1.3085,1.2813,1.2657,1.2556,1.2501,1.2501,1.2501,1.2501,1.2359,1.2223,1.2094,1.1938,1.1952,1.2101,1.2101,1.2237,1.2467,1.2467,1.2366,1.2196,1.2074,1.1932,1.1782,1.166,1.1619,1.1619,1.1619,1.1619,1.1619,1.1619,1.1619,1.1565,1.1287,1.1255,1.1104,1.0833,1.0744,1.0717,1.0717,1.0717,1.0717,1.0717,1.0493,1.0283,1.0283,1.0838,1.145,1.1631,1.3605,1.551,1.6326,1.7584,1.8635,1.9234,1.9038,1.8744,1.845,1.7929,1.7582,1.7582,1.7582,1.7582,1.7582,1.7582,1.7582,1.7582,1.7582,1.7582,1.7582,1.7582,1.7582,1.7582,1.7582,1.7582,1.7582,1.7582,1.7582,1.7582,1.7582,1.7582,0.0,0.0,0.0,0.0,0.0,0.0,0.0,0.0,0.0,0.0,0.0,0.0,0.0,0.0,0.0,0.0,0.0817,0.2107,0.4116,0.6156,0.8248,1.024,1.1704,1.2674,1.3129,1.3108,1.3298,1.3651,1.3526,1.3403,1.3403,1.3186,1.2963,1.2739,1.2583,1.2501,1.2501,1.2501,1.2467,1.2393,1.2244,1.2094,1.1938,1.1789,1.1803,1.1945,1.2026,1.2189,1.24,1.2474,1.242,1.2277,1.2121,1.1965,1.1816,1.1674,1.1619,1.1619,1.1619,1.1619,1.1619,1.1619,1.1619,1.1558,1.1253,1.1234,1.1104,1.0806,1.0717,1.0717,1.0717,1.0717,1.0717,1.0717,1.0493,1.0256,1.0175,1.0964,1.1933,1.2586,1.4321,1.5983,1.7291,1.8006,1.8661,1.9301,1.9118,1.8824,1.8531,1.8103,1.7756,1.7595,1.7582,1.7582,1.7582,1.7582,1.7582,1.7582,1.7582,1.7582,1.7582,1.7582,1.7582,1.7582,1.7582,1.7582,1.7582,1.7582,1.7582,1.7582,1.7582,1.7582,0.0,0.0,0.0,0.0,0.0,0.0,0.0,0.0,0.0,0.0,0.0,0.0,0.0,0.0,0.0,0.0,0.0,0.0719,0.271,0.4182,0.5978,0.8477,1.0337,1.1754,1.2598,1.2811,1.3101,1.3556,1.3458,1.3342,1.3308,1.3057,1.284,1.2684,1.2562,1.2501,1.2501,1.2501,1.2447,1.2332,1.2149,1.1999,1.187,1.1701,1.1714,1.1884,1.2006,1.2169,1.2345,1.2454,1.24,1.223,1.2108,1.1945,1.1775,1.166,1.1619,1.1619,1.1619,1.1619,1.1619,1.1619,1.1619,1.1558,1.1253,1.1234,1.1104,1.0806,1.0717,1.0717,1.0717,1.0717,1.0711,1.0677,1.0473,1.0236,1.0017,1.0904,1.1993,1.3066,1.456,1.6161,1.7701,1.8298,1.8719,1.9314,1.9172,1.8918,1.8624,1.833,1.8023,1.7716,1.7622,1.7582,1.7582,1.7582,1.7582,1.7582,1.7582,1.7582,1.7582,1.7582,1.7582,1.7582,1.7582,1.7582,1.7582,1.7582,1.7582,1.7582,1.7582,1.7622,0.0,0.0,0.0,0.0,0.0,0.0,0.0,0.0,0.0,0.0,0.0,0.0,0.0,0.0,0.0,0.0,0.0,0.0713,0.2624,0.3076,0.4496,0.8211,0.8769,0.9885,1.2418,1.2551,1.2765,1.3556,1.3356,1.3139,1.301,1.284,1.2678,1.2528,1.2508,1.2501,1.2501,1.2501,1.2494,1.2481,1.2196,1.2054,1.2033,1.1748,1.1775,1.204,1.2054,1.2223,1.2481,1.2494,1.2338,1.2155,1.2067,1.1891,1.164,1.1626,1.1619,1.1619,1.1619,1.1619,1.1619,1.1619,1.1619,1.1558,1.1253,1.1234,1.1104,1.0806,1.0717,1.0717,1.0717,1.0717,1.0683,1.0548,1.0392,1.0236,1.0017,1.0904,1.1752,1.1872,1.4073,1.609,1.6562,1.7877,1.8997,1.9359,1.9345,1.9225,1.8918,1.8624,1.833,1.7982,1.7756,1.7582,1.7582,1.7582,1.7582,1.7582,1.7582,1.7582,1.7582,1.7582,1.7582,1.7582,1.7582,1.7582,1.7582,1.7582,1.7582,1.7582,1.7582,1.7729,0.0,0.0,0.0,0.0,0.0,0.0,0.0,0.0,0.0,0.0,0.0,0.0,0.0,0.0,0.0,0.0,0.0,0.0295,0.1026,0.2161,0.3444,0.5016,0.7132,0.9134,1.0717,1.1738,1.264,1.3422,1.3214,1.3024,1.2963,1.2813,1.2657,1.2508,1.2501,1.2501,1.2501,1.2501,1.2413,1.2237,1.2121,1.1965,1.1789,1.1674,1.1728,1.1932,1.202,1.2182,1.2379,1.2467,1.2379,1.2189,1.2094,1.1932,1.1735,1.1653,1.1619,1.1619,1.1619,1.1619,1.1619,1.1619,1.1558,1.1443,1.1226,1.1234,1.1104,1.0806,1.0717,1.0717,1.0717,1.0717,1.0704,1.0643,1.0453,1.0263,1.0202,1.0979,1.1692,1.1692,1.4004,1.609,1.6444,1.7806,1.8997,1.9359,1.943,1.9265,1.8958,1.8824,1.8571,1.8049,1.7769,1.7582,1.7582,1.7582,1.7582,1.7582,1.7582,1.7582,1.7582,1.7582,1.7582,1.7582,1.7582,1.7582,1.7582,1.7582,1.7582,1.7582,1.7769,1.7876,0.0,0.0,0.0,0.0,0.0,0.0,0.0,0.0,0.0,0.0,0.0,0.0,0.0,0.0,0.0,0.0,0.0,0.0,0.0,0.1147,0.2284,0.2843,0.5651,0.8045,0.9465,1.139,1.2746,1.326,1.3105,1.2942,1.2895,1.2745,1.261,1.2508,1.2501,1.2501,1.2501,1.2501,1.2379,1.2128,1.2081,1.1932,1.1681,1.1681,1.1762,1.1904,1.206,1.2216,1.2359,1.2413,1.2352,1.221,1.2054,1.1904,1.1755,1.1653,1.1619,1.1619,1.1619,1.1619,1.1619,1.1619,1.1518,1.1362,1.1206,1.1131,1.105,1.0792,1.0717,1.0717,1.0717,1.0717,1.0717,1.0717,1.0493,1.0283,1.0283,1.0714,1.1148,1.1148,1.3228,1.5074,1.5311,1.7091,1.8577,1.8823,1.9185,1.9292,1.9078,1.8985,1.8731,1.8182,1.7903,1.7689,1.7595,1.7582,1.7582,1.7582,1.7582,1.7582,1.7582,1.7582,1.7582,1.7582,1.7582,1.7582,1.7582,1.7582,1.7622,1.7729,1.7889,1.8089,0.0,0.0,0.0,0.0,0.0,0.0,0.0,0.0,0.0,0.0,0.0,0.0,0.0,0.0,0.0,0.0,0.0,0.0,0.0,0.0,0.0781,0.267,0.4427,0.6516,0.9313,1.1901,1.3342,1.3186,1.3044,1.2895,1.2739,1.2589,1.2501,1.2501,1.2501,1.2501,1.2501,1.2501,1.2427,1.2284,1.2135,1.1979,1.183,1.183,1.1911,1.2067,1.2223,1.2366,1.2488,1.2352,1.2203,1.2047,1.1891,1.1748,1.1619,1.1619,1.1619,1.1619,1.1619,1.1619,1.1619,1.1619,1.1518,1.1362,1.1206,1.1063,1.0853,1.0765,1.0717,1.0717,1.0717,1.0717,1.0717,1.0717,1.0493,1.0283,1.0283,1.0039,0.9822,0.9822,1.1382,1.2757,1.2757,1.537,1.7513,1.7513,1.859,1.943,1.9417,1.9105,1.8811,1.8517,1.8223,1.7862,1.7609,1.7582,1.7582,1.7582,1.7582,1.7582,1.7582,1.7582,1.7582,1.7582,1.7582,1.7582,1.7582,1.7582,1.7742,1.7995,1.7995,1.8302,0.0,0.0,0.0,0.0,0.0,0.0,0.0,0.0,0.0,0.0,0.0,0.0,0.0,0.0,0.0,0.0,0.0,0.0,0.0,0.0,0.0231,0.087,0.4086,0.7584,1.1003,1.2542,1.3336,1.3186,1.3044,1.2895,1.2739,1.2583,1.2501,1.2501,1.2501,1.2501,1.2501,1.2501,1.2379,1.2135,1.2088,1.1932,1.1687,1.1789,1.1918,1.2149,1.2223,1.2318,1.2352,1.2311,1.2135,1.1898,1.185,1.1742,1.1619,1.1619,1.1619,1.1619,1.1619,1.1619,1.1619,1.1619,1.1443,1.1226,1.1179,1.1063,1.0847,1.0765,1.0717,1.0717,1.0717,1.0717,1.0697,1.0588,1.0419,1.0249,1.0148,0.9964,0.9883,1.0126,1.1503,1.2757,1.2997,1.4787,1.622,1.622,1.6514,1.7114,1.7994,1.8035,1.8173,1.8698,1.8531,1.8143,1.7622,1.7582,1.7582,1.7582,1.7582,1.7582,1.7582,1.7582,1.7582,1.7582,1.7582,1.7582,1.7582,1.7796,1.8102,1.8651,1.8651,1.8851,0.0,0.0,0.0,0.0,0.0,0.0,0.0,0.0,0.0,0.0,0.0,0.0,0.0,0.0,0.0,0.0,0.0,0.0,0.0,0.0,0.0458,0.1799,0.4756,0.8065,1.1582,1.2788,1.3227,1.3024,1.2922,1.2807,1.2651,1.2556,1.2501,1.2501,1.2501,1.2501,1.2501,1.2447,1.2298,1.2135,1.2135,1.1932,1.1708,1.1911,1.206,1.2155,1.2305,1.2338,0.0,1.223,1.206,1.1823,1.1775,1.1694,1.1619,1.1619,1.1619,1.1619,1.1619,1.1619,1.1613,1.1552,1.1328,1.107,1.1016,1.0934,1.0846,1.0744,1.0717,1.0717,1.0717,1.0717,1.0683,1.0527,1.0385,1.0236,1.0017,0.9869,0.9883,1.0247,1.1201,1.2105,1.2406,1.3844,1.4857,1.4857,1.5273,1.6042,1.7337,1.7513,1.7882,1.8774,1.8758,1.8464,1.7969,1.7716,1.7582,1.7582,1.7582,1.7582,1.7582,1.7582,1.7635,1.7756,1.7756,1.7809,1.7929,1.8223,1.8515,1.8931,1.9038,1.9185,0.0,0.0,0.0,0.0,0.0,0.0,0.0,0.0,0.0,0.0,0.0,0.0,0.0,0.0,0.0,0.0,0.0,0.0,0.0,0.0,0.1224,0.462,0.6017,0.7919,1.1183,1.2518,1.3037,1.2752,1.2739,1.2678,1.2528,1.2515,1.2515,1.2515,1.2501,1.2488,1.2488,1.2352,1.221,1.2047,1.2047,1.1972,1.1843,1.2135,1.2277,1.2298,1.2427,1.2406,1.2264,1.2108,1.1952,1.1803,1.1674,1.1619,1.1619,1.1619,1.1619,1.1619,1.1619,1.1619,1.1592,1.143,1.1185,1.0853,1.0765,1.0717,1.0717,1.0717,1.0717,1.0717,1.0717,1.0717,1.0677,1.0514,1.0378,1.0236,1.0004,0.9862,0.9883,1.0247,1.055,1.0906,1.1209,1.2526,1.3545,1.3545,1.456,1.5806,1.722,1.7337,1.7778,1.8814,1.8931,1.8811,1.8544,1.7983,1.7649,1.7649,1.7649,1.7649,1.7649,1.7649,1.7782,1.8022,1.8022,1.8223,1.8517,1.8798,1.8931,1.8958,1.9239,1.943,0.0,0.0,0.0,0.0,0.0,0.0,0.0,0.0,0.0,0.0,0.0,0.0,0.0,0.0,0.0,0.0,0.0,0.0,0.0,0.0,0.0855,0.3048,0.5236,0.7367,0.9586,1.1745,1.2935,1.2745,1.284,1.284,1.2684,1.2678,1.2678,1.2678,1.2461,1.2338,1.2338,1.2305,1.2155,1.1884,1.1884,1.1864,1.1837,1.2026,1.2182,1.2291,1.2325,1.2257,1.2101,1.1945,1.1796,1.1667,1.1633,1.1619,1.1619,1.1619,1.1619,1.1619,1.1619,1.1619,1.1572,1.1307,1.1097,1.0853,1.0765,1.0717,1.0717,1.0717,1.0717,1.0717,1.0717,1.0717,1.0656,1.0392,1.0304,1.0209,0.993,0.9842,0.9883,1.0247,1.055,1.0906,1.1209,1.182,1.2251,1.2251,1.2492,1.3495,1.5747,1.6042,1.6903,1.9034,1.9065,1.8891,1.8824,1.849,1.8277,1.8277,1.8277,1.8277,1.8277,1.8277,1.8317,1.8384,1.8384,1.8531,1.8824,1.8891,1.9038,1.9265,1.9332,1.943,0.0,0.0,0.0,0.0,0.0,0.0,0.0,0.0,0.0,0.0,0.0,0.0,0.0,0.0,0.0,0.0,0.0,0.0,0.0,0.0,0.0702,0.2488,0.4927,0.7205,0.8917,1.1364,1.282,1.2739,1.2807,1.282,1.2732,1.2732,1.2698,1.263,1.2406,1.2291,1.2291,1.2149,1.1993,1.183,1.183,1.187,1.1938,1.202,1.2182,1.2379,1.2244,1.2142,1.2047,1.1898,1.1748,1.1619,1.1619,1.1619,1.1619,1.1619,1.1619,1.1619,1.1619,1.1531,1.1369,1.1138,1.0962,1.0759,1.0744,1.0717,1.0717,1.0717,1.0717,1.0717,1.0717,1.0717,1.0643,1.0351,1.0283,1.0195,0.989,0.9822,0.9943,1.0422,1.0664,1.0974,1.1458,1.1647,1.1776,1.1776,1.1776,1.2724,1.5273,1.5569,1.6585,1.9127,1.9225,1.9132,1.9132,1.8985,1.8784,1.8504,1.849,1.849,1.849,1.849,1.8557,1.8691,1.8824,1.8971,1.9132,1.9132,1.9212,1.943,1.943,1.943,0.0,0.0,0.0,0.0,0.0,0.0,0.0,0.0,0.0,0.0,0.0,0.0,0.0,0.0,0.0,0.0,0.0,0.0,0.0,0.0,0.0547,0.2075,0.4758,0.7029,0.8388,1.1069,1.2718,1.2698,1.2718,1.2732,1.2732,1.2732,1.2671,1.2542,1.2352,1.2257,1.2257,1.1972,1.1823,1.1796,1.1796,1.1877,1.2026,1.2026,1.2176,1.242,1.2149,0.0,1.2013,1.1864,1.1728,1.1619,1.1619,1.1619,1.1619,1.1619,1.1619,1.1613,1.1592,1.1402,1.1138,1.0995,1.0779,1.0717,1.0717,1.0717,1.0717,1.0717,1.0717,1.0717,1.0717,1.0717,1.0643,1.0351,1.0283,1.0195,0.989,0.9822,1.0004,1.0604,1.0793,1.0974,1.1647,1.1776,1.1776,1.1776,1.1776,1.2672,1.5035,1.5451,1.6514,1.8894,1.9301,1.943,1.943,1.943,1.9158,1.8651,1.8624,1.8624,1.8624,1.8624,1.8744,1.8985,1.9239,1.943,1.943,1.943,1.943,1.943,1.943,1.943,0.0,0.0,0.0,0.0,0.0,0.0,0.0,0.0,0.0,0.0,0.0,0.0,0.0,0.0,0.0,0.0,0.0,0.0,0.0,0.0,0.008,0.0405,0.4003,0.654,0.6707,1.0316,1.2678,1.2549,1.2657,1.2732,1.2732,1.2732,1.2718,1.2698,1.2305,1.2094,1.2094,1.1918,1.1769,1.1653,1.1653,1.1728,1.1864,1.1864,1.1959,1.2121,0.0,1.1864,1.1857,1.1708,1.164,1.1619,1.1619,1.1619,1.1619,1.1619,1.1619,1.1599,1.147,1.1307,1.1138,1.0995,1.0779,1.0717,1.0717,1.0717,1.0717,1.0717,1.0717,1.0717,1.0717,1.0717,1.0643,1.0351,1.0283,1.0195,0.989,0.9822,0.9943,1.0308,1.0611,1.0914,1.1337,1.1587,1.1776,1.1776,1.1776,1.2311,1.3784,1.4917,1.6161,1.763,1.8765,1.943,1.943,1.943,1.939,1.9296,1.9239,1.9239,1.9239,1.9239,1.9252,1.9292,1.9345,1.943,1.943,1.943,1.943,1.943,1.943,1.943,0.0,0.0,0.0,0.0,0.0,0.0,0.0,0.0,0.0,0.0,0.0,0.0,0.0,0.0,0.0,0.0,0.0,0.0,0.0,0.0,0.0,0.0,0.3849,0.6462,0.6348,1.021,1.2698,1.263,1.2691,1.2732,1.2732,1.2732,1.2691,1.261,1.225,1.2101,1.2182,1.187,1.1687,1.1619,1.1619,1.1694,1.183,1.1748,1.1843,1.2047,0.0,1.1762,1.1823,1.1681,1.1619,1.1619,1.1619,1.1619,1.1619,1.1619,1.1619,1.1586,1.1348,1.1219,1.1124,1.09,1.0778,1.0717,1.0717,1.0717,1.0717,1.0717,1.0717,1.0717,1.0717,1.0717,1.0663,1.0446,1.0337,1.0215,0.9992,0.9876,0.9943,1.049,1.0664,1.0974,1.1466,1.1716,1.1776,1.1776,1.1776,1.2251,1.3545,1.4202,1.5035,1.6338,1.7642,1.8344,1.8344,1.901,1.943,1.943,1.943,1.943,1.943,1.943,1.943,1.943,1.943,1.943,1.943,1.943,1.943,1.943,1.943,1.943,0.0,0.0,0.0,0.0,0.0,0.0,0.0,0.0,0.0,0.0,0.0,0.0,0.0,0.0,0.0,0.0,0.0,0.0,0.0,0.0,0.0,0.0,0.3833,0.6428,0.6301,1.0182,1.2718,1.2678,1.2678,1.2678,1.2678,1.2678,1.2623,1.2508,1.2216,1.2121,1.2237,1.1823,1.1633,1.1667,1.1633,1.1674,1.1775,1.1667,1.1742,1.1945,1.1721,1.1681,1.1775,1.166,1.1619,1.1619,1.1619,1.1619,1.1619,1.1619,1.1619,1.1579,1.1307,1.1261,1.1118,1.086,1.0751,1.0717,1.0717,1.0717,1.0717,1.0717,1.0717,1.0717,1.0717,1.0717,1.0683,1.0527,1.0412,1.029,1.0134,0.9985,1.0053,1.0723,1.0815,1.1035,1.1655,1.1776,1.1776,1.1776,1.1776,1.213,1.3135,1.3545,1.4083,1.5035,1.6279,1.7161,1.7455,1.8648,1.943,1.943,1.943,1.943,1.943,1.943,1.943,1.943,1.943,1.943,1.943,1.943,1.943,1.943,1.943,1.943,0.0,0.0,0.0,0.0,0.0,0.0,0.0,0.0,0.0,0.0,0.0,0.0,0.0,0.0,0.0,0.0,0.0,0.0,0.0,0.0,0.0,0.0,0.3868,0.6452,0.6297,1.0182,1.2671,1.2528,1.2515,1.2515,1.2515,1.2515,1.2515,1.2501,1.2216,1.2067,1.2081,1.1775,1.1687,1.1816,1.1681,1.1626,1.1633,1.1626,1.1633,1.1647,1.1626,1.1626,1.1633,1.1619,1.1619,1.1619,1.1619,1.1619,1.1619,1.1619,1.1619,1.1599,1.143,1.128,1.1138,1.0982,1.0766,1.0717,1.0717,1.0717,1.0717,1.0717,1.0717,1.0717,1.0717,1.0717,1.0683,1.0527,1.0487,1.0439,1.0297,1.0141,1.0156,1.0838,1.0897,1.1035,1.1655,1.1776,1.1776,1.1776,1.1776,1.1837,1.1897,1.2955,1.3725,1.3844,1.4976,1.622,1.7396,1.8648,1.943,1.943,1.943,1.943,1.943,1.943,1.943,1.943,1.943,1.943,1.943,1.943,1.943,1.943,1.943,1.943,0.0,0.0,0.0,0.0,0.0,0.0,0.0,0.0,0.0,0.0,0.0,0.0,0.0,0.0,0.0,0.0,0.0,0.0,0.0,0.0,0.0081,0.0323,0.3961,0.6529,0.6698,1.034,1.2664,1.2515,1.2501,1.2501,1.2501,1.2501,1.2501,1.2501,1.2311,1.2203,1.2203,1.1904,1.1775,1.183,1.1687,1.1619,1.1619,1.1619,1.1619,1.1619,1.1619,1.1619,1.1619,1.1619,1.1619,1.1619,1.1619,1.1619,1.1619,1.1619,1.1619,1.1599,1.1443,1.1294,1.1138,1.0995,1.0779,1.0717,1.0717,1.0717,1.0717,1.0717,1.0717,1.0717,1.0717,1.0717,1.0704,1.0649,1.0561,1.048,1.0426,1.0297,1.0384,1.1069,1.1143,1.1255,1.1832,1.1931,1.1898,1.1792,1.1776,1.1776,1.1776,1.2191,1.2543,1.2543,1.4391,1.6101,1.7396,1.8648,1.943,1.943,1.943,1.943,1.943,1.943,1.943,1.943,1.943,1.943,1.943,1.943,1.943,1.943,1.943,1.943,0.0,0.0,0.0,0.0,0.0,0.0,0.0,0.0,0.0,0.0,0.0,0.0,0.0,0.0,0.0,0.0,0.0,0.0,0.0,0.0,0.0161,0.0563,0.409,0.6546,0.6896,1.0364,1.2617,1.2508,1.2501,1.2501,1.2501,1.2501,1.2501,1.2501,1.2366,1.2271,1.2216,1.1959,1.1809,1.1762,1.1667,1.1619,1.1619,1.1619,1.1619,1.1619,1.1619,1.1619,1.1619,1.1619,1.1619,1.1619,1.1619,1.1619,1.1619,1.1619,1.1619,1.1606,1.1497,1.1335,1.1145,1.105,1.088,1.0717,1.0717,1.0717,1.0717,1.0717,1.0717,1.0717,1.0717,1.0717,1.0717,1.0717,1.0636,1.0561,1.0561,1.0453,1.0536,1.1239,1.1329,1.1444,1.2017,1.2117,1.206,1.1882,1.1857,1.1841,1.1784,1.1776,1.1776,1.1776,1.3734,1.5332,1.6208,1.7818,1.8823,1.8823,1.9185,1.943,1.943,1.943,1.943,1.943,1.943,1.943,1.943,1.943,1.943,1.943,1.943,1.943,0.0,0.0,0.0,0.0,0.0,0.0,0.0,0.0,0.0,0.0,0.0,0.0,0.0,0.0,0.0,0.0,0.0,0.0,0.0,0.0,0.0157,0.055,0.3992,0.6492,0.6885,1.0314,1.2501,1.2501,1.2501,1.2501,1.2501,1.2501,1.2501,1.2501,1.2366,1.2216,1.206,1.1911,1.1762,1.1619,1.1619,1.1619,1.1619,1.1619,1.1619,1.1619,1.1619,1.1619,1.1619,1.1619,1.1619,1.1619,1.1619,1.1619,1.1619,1.1619,1.1619,1.1619,1.1619,1.1416,1.1234,1.1227,1.0962,1.0717,1.0717,1.0717,1.0717,1.0717,1.0717,1.0717,1.0717,1.0717,1.0717,1.0717,1.0717,1.0717,1.0717,1.0602,1.0688,1.1401,1.1404,1.1553,1.2186,1.2312,1.2247,1.206,1.1966,1.1971,1.1801,1.1776,1.1776,1.1776,1.2955,1.3725,1.3725,1.6031,1.7513,1.7513,1.8706,1.943,1.943,1.943,1.943,1.943,1.943,1.943,1.943,1.943,1.943,1.943,1.943,1.943,0.0,0.0,0.0,0.0,0.0,0.0,0.0,0.0,0.0,0.0,0.0,0.0,0.0,0.0,0.0,0.0,0.0,0.0,0.0,0.0,0.0236,0.1021,0.4151,0.657,0.7279,1.0474,1.2501,1.2501,1.2501,1.2501,1.2501,1.2501,1.2501,1.2501,1.2366,1.2216,1.206,1.1911,1.1762,1.1619,1.1619,1.1619,1.1619,1.1619,1.1619,1.1619,1.1619,1.1619,1.1619,1.1619,1.1619,1.1619,1.1619,1.1619,1.1619,1.1619,1.1619,1.1606,1.1497,1.1328,1.1145,1.1043,1.088,1.0717,1.0717,1.0717,1.0717,1.0717,1.0717,1.0717,1.0717,1.0717,1.0717,1.0717,1.0717,1.0717,1.0717,1.0683,1.0781,1.1176,1.1468,1.1728,1.2057,1.2291,1.2385,1.2077,1.2142,1.2158,1.1979,1.1849,1.1776,1.1776,1.2955,1.3725,1.3725,1.6031,1.7513,1.7513,1.8706,1.943,1.943,1.943,1.943,1.943,1.943,1.943,1.943,1.943,1.943,1.943,1.943,1.9479,0.0,0.0,0.0,0.0,0.0,0.0,0.0,0.0,0.0,0.0,0.0,0.0,0.0,0.0,0.0,0.0,0.0,0.0,0.0,0.0157,0.0471,0.1178,0.3838,0.6023,0.7357,0.9931,1.1798,1.2424,1.2501,1.2501,1.2501,1.2501,1.2501,1.2501,1.2366,1.2216,1.206,1.1911,1.1762,1.1619,1.1619,1.1619,1.1619,1.1619,1.1619,1.1619,1.1619,1.1619,1.1619,1.1619,1.1619,1.1619,1.1619,1.1619,1.1619,1.1619,1.1579,1.1518,1.1423,1.1253,1.1063,1.0907,1.0779,1.0717,1.0717,1.0717,1.0717,1.0717,1.0717,1.0717,1.0717,1.0717,1.0717,1.0717,1.0717,1.0717,1.0717,1.0717,1.0784,1.1115,1.1512,1.1878,1.2099,1.2409,1.2572,1.2288,1.228,1.2239,1.2052,1.2004,1.1931,1.1792,1.2552,1.2984,1.2964,1.4787,1.6208,1.6691,1.7935,1.8881,1.9372,1.943,1.943,1.943,1.943,1.943,1.943,1.943,1.943,1.943,1.943,1.9519,0.0,0.0,0.0,0.0,0.0,0.0,0.0,0.0,0.0,0.0,0.0,0.0,0.0,0.0,0.0,0.0,0.0,0.0,0.0,0.0314,0.0785,0.1256,0.3135,0.5245,0.7279,0.8993,1.0707,1.2347,1.2501,1.2501,1.2501,1.2501,1.2494,1.2481,1.2345,1.2196,1.204,1.1891,1.1748,1.1619,1.1619,1.1619,1.1619,1.1619,1.1619,1.1619,1.1619,1.1619,1.1619,1.1619,1.1619,1.1619,1.1619,1.1619,1.1619,1.1619,1.1525,1.1389,1.1375,1.1185,1.088,1.0867,1.0766,1.0717,1.0717,1.0717,1.0717,1.0717,1.0717,1.0717,1.0717,1.0717,1.0717,1.0717,1.0717,1.0717,1.0717,1.0717,1.0784,1.1115,1.1512,1.1909,1.2173,1.2576,1.2783,1.2613,1.2426,1.2247,1.2101,1.2199,1.2158,1.1833,1.1922,1.1947,1.1792,1.2955,1.4202,1.5332,1.6632,1.7877,1.9185,1.9372,1.943,1.943,1.943,1.943,1.943,1.943,1.943,1.943,1.943,1.9533,0.0,0.0,0.0,0.0,0.0,0.0,0.0,0.0,0.0,0.0,0.0,0.0,0.0,0.0,0.0,0.0,0.0,0.0,0.0,0.0314,0.0785,0.1256,0.3135,0.5245,0.7279,0.8993,1.0707,1.2347,1.2501,1.2501,1.2501,1.2501,1.2447,1.2338,1.2189,1.2033,1.1884,1.1735,1.1647,1.1619,1.1619,1.1619,1.1619,1.1619,1.1619,1.1619,1.1619,1.1619,1.1619,1.1619,1.1619,1.1619,1.1619,1.1619,1.1619,1.1619,1.1525,1.1375,1.1253,1.1097,1.086,1.0806,1.0744,1.0717,1.0717,1.0717,1.0717,1.0717,1.0717,1.0717,1.0717,1.0717,1.0717,1.0717,1.0717,1.0717,1.0717,1.0717,1.0717,1.0784,1.1314,1.185,1.1909,1.2371,1.2758,1.2783,1.2507,1.2345,1.2434,1.2239,1.206,1.1979,1.189,1.1817,1.1776,1.2955,1.3844,1.4083,1.5332,1.6573,1.7877,1.8881,1.943,1.943,1.943,1.943,1.943,1.943,1.943,1.943,1.943,1.9639,0.0,0.0,0.0,0.0,0.0,0.0,0.0,0.0,0.0,0.0,0.0,0.0,0.0,0.0,0.0,0.0,0.0,0.0,0.0,0.055,0.1021,0.1256,0.259,0.4534,0.7142,0.822,0.9741,1.2139,1.2291,1.2291,1.2291,1.2291,1.2257,1.2182,1.2033,1.1911,1.183,1.1687,1.1619,1.1619,1.1619,1.1619,1.1619,1.1619,1.1619,1.1619,1.1619,1.1619,1.1619,1.1619,1.1619,1.1619,1.1619,1.1619,1.1613,1.1538,1.1416,1.126,1.1111,1.0962,1.0759,1.0744,1.0717,1.0717,1.0717,1.0717,1.0717,1.0717,1.0717,1.0717,1.0717,1.0717,1.0717,1.0717,1.0717,1.0717,1.0717,1.0717,1.0717,1.0717,1.1314,1.1776,1.1776,1.2379,1.2774,1.2774,1.2678,1.2564,1.2564,1.2475,1.2353,1.2182,1.2158,1.2085,1.1914,1.2491,1.3114,1.3674,1.4321,1.5569,1.7396,1.8169,1.8765,1.9372,1.943,1.943,1.943,1.943,1.943,1.943,1.9506,1.9813,0.0,0.0,0.0,0.0,0.0,0.0,0.0,0.0,0.0,0.0,0.0,0.0,0.0,0.0,0.0,0.0,0.0079,0.0079,0.0079,0.0864,0.1414,0.1414,0.2039,0.3739,0.7003,0.7285,0.8616,1.1843,1.2135,1.2135,1.2135,1.2135,1.2047,1.202,1.1898,1.1816,1.1796,1.1681,1.1619,1.1619,1.1619,1.1619,1.1619,1.1619,1.1619,1.1619,1.1619,1.1619,1.1619,1.1619,1.1619,1.1619,1.1619,1.1606,1.1565,1.1436,1.128,1.1111,1.0989,1.0779,1.0717,1.0717,1.0717,1.0717,1.0717,1.0717,1.0717,1.0717,1.0717,1.0717,1.0717,1.0717,1.0717,1.0717,1.0717,1.0717,1.0717,1.0717,1.0717,1.0717,1.1314,1.1843,1.1975,1.2437,1.2774,1.2774,1.2774,1.2783,1.2629,1.2718,1.2678,1.2385,1.245,1.2402,1.2101,1.2077,1.2443,1.3425,1.3477,1.461,1.7174,1.7292,1.7988,1.9439,1.9399,1.943,1.943,1.943,1.943,1.943,1.9666,1.996,0.0,0.0,0.0,0.0,0.0,0.0,0.0,0.0,0.0,0.0,0.0,0.0,0.0,0.0,0.0,0.0,0.0314,0.055,0.055,0.1256,0.1807,0.1807,0.2257,0.3781,0.6995,0.7229,0.8535,1.1836,1.2135,1.2135,1.2135,1.2135,1.1999,1.1864,1.1843,1.1775,1.1647,1.1626,1.1619,1.1619,1.1619,1.1619,1.1619,1.1619,1.1619,1.1619,1.1619,1.1619,1.1619,1.1619,1.1619,1.1619,1.1619,1.1538,1.1416,1.1396,1.1212,1.0975,1.0887,1.0779,1.0717,1.0717,1.0717,1.0717,1.0717,1.0717,1.0717,1.0717,1.0717,1.0717,1.0717,1.0717,1.0717,1.0717,1.0717,1.0717,1.0717,1.0717,1.0717,1.0717,1.1314,1.1975,1.2576,1.2774,1.2774,1.2774,1.2774,1.2766,1.28,1.2686,1.258,1.2532,1.2418,1.232,1.2272,1.2272,1.2318,1.2482,1.2482,1.3653,1.6357,1.6479,1.7477,1.9687,1.9492,1.943,1.943,1.943,1.943,1.943,1.9666,1.996,0.0,0.0,0.0,0.0,0.0,0.0,0.0,0.0,0.0,0.0,0.0,0.0,0.0,0.0,0.0079,0.0314,0.0471,0.0707,0.0942,0.1493,0.188,0.1868,0.2245,0.3754,0.686,0.7112,0.8405,1.1597,1.1816,1.1816,1.1816,1.1816,1.1782,1.1714,1.1714,1.1681,1.1619,1.1619,1.1619,1.1619,1.1619,1.1619,1.1619,1.1619,1.1619,1.1619,1.1619,1.1619,1.1619,1.1619,1.1619,1.1619,1.1619,1.1579,1.1497,1.1328,1.1179,1.1043,1.088,1.0778,1.0717,1.0717,1.0717,1.0717,1.0717,1.0717,1.0717,1.0717,1.0717,1.0717,1.0717,1.0717,1.0717,1.0717,1.0717,1.0717,1.0717,1.0717,1.085,1.1247,1.1578,1.1982,1.27,1.2774,1.2774,1.2774,1.2774,1.2774,1.2774,1.2767,1.2718,1.2718,1.2645,1.2564,1.2458,1.245,1.241,1.2312,1.2304,1.3483,1.6196,1.632,1.7445,1.998,1.976,1.9533,1.943,1.943,1.943,1.943,1.9826,2.0107,0.0,0.0,0.0,0.0,0.0,0.0,0.0,0.0,0.0,0.0,0.0,0.0,0.0159,0.0079,0.0157,0.055,0.0707,0.0942,0.1414,0.1807,0.2034,0.2008,0.2308,0.3649,0.6677,0.7011,0.8285,1.1338,1.1619,1.1619,1.1619,1.1619,1.1619,1.1619,1.1619,1.1619,1.1619,1.1619,1.1619,1.1619,1.1619,1.1619,1.1619,1.1619,1.1619,1.1619,1.1619,1.1619,1.1619,1.1619,1.1619,1.1619,1.1619,1.1572,1.1477,1.1246,1.1186,1.1023,1.0799,1.0717,1.0717,1.0717,1.0717,1.0717,1.0717,1.0717,1.0717,1.0717,1.0717,1.0717,1.0717,1.0717,1.0717,1.0717,1.0717,1.0717,1.0717,1.0717,1.0916,1.1512,1.171,1.1975,1.2576,1.2774,1.2774,1.2774,1.2774,1.2774,1.2774,1.2774,1.2774,1.2774,1.2774,1.2783,1.2645,1.2629,1.258,1.245,1.2442,1.3508,1.5815,1.594,1.7168,1.9723,1.9577,1.9483,1.9479,1.9546,1.9506,1.9386,2.004,2.0307,0.0,0.0,0.0,0.0,0.0,0.0,0.0,0.0,0.0,0.0,0.0,0.0079,0.0472,0.0236,0.0157,0.055,0.0942,0.1414,0.1807,0.22,0.2503,0.2473,0.2443,0.3614,0.667,0.7027,0.828,1.1397,1.1619,1.1619,1.1619,1.1619,1.1619,1.1619,1.1619,1.1619,1.1619,1.1619,1.1619,1.1619,1.1619,1.1619,1.1619,1.1619,1.1619,1.1619,1.1619,1.1619,1.1619,1.1619,1.1619,1.1619,1.1619,1.1443,1.1255,1.1234,1.0982,1.0744,1.0724,1.0717,1.0717,1.0717,1.0717,1.0717,1.0717,1.0717,1.0717,1.0717,1.0717,1.0717,1.0717,1.0717,1.0717,1.0717,1.0717,1.0717,1.0717,1.0717,1.0784,1.1181,1.1512,1.1916,1.2246,1.2568,1.2774,1.2774,1.2774,1.2774,1.2774,1.2774,1.2774,1.2774,1.2774,1.2832,1.2758,1.2824,1.2816,1.2742,1.2742,1.3456,1.4939,1.4939,1.6123,1.8625,1.8676,1.9037,1.9773,2.0054,1.9907,1.9444,2.0254,2.0508,0.0,0.0,0.0,0.0,0.0,0.0,0.0,0.0,0.0,0.0,0.0236,0.0393,0.055,0.0471,0.0628,0.1336,0.1571,0.1807,0.22,0.2435,0.2503,0.2473,0.2442,0.3238,0.5345,0.644,0.7837,0.9945,1.1038,1.1619,1.1619,1.1619,1.1619,1.1619,1.1619,1.1619,1.1619,1.1619,1.1619,1.1619,1.1619,1.1619,1.1619,1.1619,1.1619,1.1619,1.1619,1.1619,1.1619,1.1619,1.1558,1.147,1.147,1.1348,1.1151,1.1056,1.0955,1.0853,1.0751,1.0717,1.0717,1.0717,1.0717,1.0717,1.0717,1.0717,1.0717,1.0717,1.0717,1.0717,1.0717,1.0717,1.0717,1.0717,1.0717,1.0717,1.0717,1.0717,1.0784,1.1115,1.1512,1.1916,1.2239,1.2568,1.2774,1.2774,1.2774,1.2774,1.2774,1.2774,1.2774,1.2774,1.2774,1.2774,1.2774,1.2774,1.2774,1.2774,1.2774,1.3424,1.4847,1.5749,1.7065,1.884,1.9739,2.0159,2.008,2.0127,2.012,1.9933,2.0441,2.0615,0.0,0.0,0.0,0.0,0.0,0.0,0.0148,0.0227,0.0232,0.039,0.0627,0.0864,0.1021,0.1021,0.1256,0.1807,0.1886,0.2043,0.2435,0.2514,0.2503,0.2473,0.2442,0.3012,0.4532,0.6075,0.7621,0.9219,1.0743,1.1619,1.1619,1.1619,1.1619,1.1619,1.1619,1.1619,1.1619,1.1619,1.1619,1.1619,1.1619,1.1619,1.1619,1.1619,1.1619,1.1619,1.1619,1.1619,1.1613,1.1565,1.1484,1.1389,1.1335,1.1219,1.1077,1.0914,1.0847,1.0793,1.0758,1.0717,1.0717,1.0717,1.0717,1.0717,1.0717,1.0717,1.0717,1.0717,1.0717,1.0717,1.0717,1.0717,1.0717,1.0717,1.0717,1.0717,1.0717,1.0717,1.0784,1.0982,1.1314,1.171,1.2048,1.2444,1.2642,1.2766,1.2774,1.2774,1.2774,1.2774,1.2774,1.2774,1.2774,1.2774,1.2774,1.2774,1.2774,1.2774,1.2774,1.3227,1.4128,1.5554,1.6915,1.8332,1.9686,2.0407,2.0521,2.0521,2.0428,2.018,2.0641,2.0815,0.0,0.0,0.0,0.0,0.0,0.0134,0.051,0.0593,0.0673,0.1149,0.1245,0.1413,0.1806,0.1885,0.1886,0.1886,0.1886,0.2043,0.2435,0.2514,0.2503,0.2474,0.2443,0.3014,0.4461,0.6078,0.7621,0.9147,1.0671,1.1619,1.1619,1.1619,1.1619,1.1619,1.1619,1.1619,1.1619,1.1619,1.1619,1.1619,1.1619,1.1619,1.1619,1.1619,1.1619,1.1619,1.1619,1.1619,1.1599,1.145,1.1389,1.1369,1.1212,1.107,1.0873,1.0873,1.0779,1.0717,1.0717,1.0717,1.0717,1.0717,1.0717,1.0717,1.0717,1.0717,1.0717,1.0717,1.0717,1.0717,1.0717,1.0717,1.0717,1.0717,1.0717,1.0717,1.0717,1.0717,1.0717,1.0717,1.0982,1.1314,1.171,1.2048,1.2371,1.27,1.2774,1.2774,1.2774,1.2774,1.2774,1.2774,1.2774,1.2774,1.2774,1.2774,1.2774,1.2774,1.2774,1.2774,1.2774,1.4193,1.5619,1.698,1.8332,1.975,2.1109,2.1109,2.0815,2.0207,2.0842,2.1109,0.0628,0.0,0.0,0.0,0.0,0.0,0.0799,0.0619,0.0568,0.103,0.1206,0.138,0.1781,0.2109,0.2357,0.2357,0.2357,0.2357,0.2514,0.2514,0.2511,0.2503,0.2455,0.2571,0.3012,0.5449,0.7187,0.7621,1.0089,1.1619,1.1619,1.1619,1.1619,1.1619,1.1619,1.1619,1.1619,1.1619,1.1619,1.1619,1.1619,1.1619,1.1619,1.1619,1.1619,1.1619,1.1619,1.1558,1.145,1.1409,1.1328,1.1212,1.1063,1.0914,1.0785,1.0785,1.0758,1.0717,1.0717,1.0717,1.0717,1.0717,1.0717,1.0717,1.0717,1.0717,1.0717,1.0717,1.0717,1.0717,1.0717,1.0717,1.0717,1.0717,1.0717,1.0717,1.0717,1.0717,1.0717,1.0717,1.0982,1.1247,1.138,1.1644,1.2041,1.2371,1.2437,1.2503,1.2774,1.2774,1.2774,1.2774,1.2774,1.2774,1.2774,1.2774,1.2774,1.2774,1.2774,1.2774,1.2774,1.5098,1.6592,1.698,1.9304,2.0716,2.1109,2.1109,2.1029,2.0869,2.1029,2.1109,0.0901,0.091,0.0926,0.0878,0.0,0.0,0.1093,0.0995,0.1027,0.1506,0.1691,0.1799,0.1984,0.2301,0.2466,0.2491,0.2495,0.25,0.2512,0.2514,0.2514,0.2514,0.2472,0.2438,0.2425,0.5191,0.7011,0.697,0.9873,1.1619,1.1619,1.1619,1.1619,1.1619,1.1619,1.1619,1.1619,1.1619,1.1619,1.1619,1.1619,1.1619,1.1619,1.1619,1.1619,1.1613,1.1552,1.147,1.1382,1.126,1.1151,1.1056,1.0907,1.0799,1.0717,1.0717,1.0717,1.0717,1.0717,1.0717,1.0717,1.0717,1.0717,1.0717,1.0717,1.0717,1.0717,1.0717,1.0717,1.0717,1.0717,1.0717,1.0717,1.0717,1.0717,1.0717,1.0717,1.0717,1.0717,1.0717,1.085,1.1049,1.1181,1.138,1.1644,1.2041,1.2246,1.2379,1.2576,1.2708,1.2774,1.2774,1.2774,1.2774,1.2774,1.2774,1.2774,1.2774,1.2774,1.2774,1.2774,1.5489,1.698,1.698,1.9686,2.1109,2.1109,2.1109,2.1109,2.1109,2.1109,2.1109,0.1019,0.1015,0.1025,0.101,0.1,0.0,0.1469,0.1566,0.1727,0.2167,0.2217,0.2258,0.2388,0.2379,0.2382,0.2435,0.2453,0.2472,0.2508,0.2514,0.2514,0.2514,0.2488,0.2458,0.2431,0.523,0.6999,0.699,0.9879,1.1619,1.1619,1.1619,1.1619,1.1619,1.1619,1.1619,1.1619,1.1619,1.1619,1.1619,1.1619,1.1619,1.1619,1.1619,1.1613,1.1586,1.145,1.1369,1.1321,1.0988,1.088,1.0867,1.0778,1.0717,1.0717,1.0717,1.0717,1.0717,1.0717,1.0717,1.0717,1.0717,1.0717,1.0717,1.0717,1.0717,1.0717,1.0717,1.0717,1.0717,1.0717,1.0717,1.0717,1.0717,1.0717,1.0717,1.0717,1.0717,1.0717,1.0717,1.0717,1.0784,1.1115,1.1115,1.1247,1.1644,1.1975,1.2173,1.2239,1.2568,1.2774,1.2774,1.2766,1.2774,1.2774,1.2774,1.2774,1.2774,1.2774,1.2898,1.303,1.5619,1.7044,1.7238,1.975,2.1109,2.1109,2.1109,2.1109,2.1109,2.1109,2.1109,0.1694,0.1693,0.1691,0.1627,0.1693,0.0,0.1712,0.1584,0.1574,0.1998,0.1867,0.1857,0.2167,0.2259,0.2275,0.2288,0.2349,0.2424,0.2503,0.2514,0.2514,0.2514,0.2488,0.2466,0.2461,0.5256,0.7023,0.7007,0.9858,1.1619,1.1619,1.1619,1.1619,1.1619,1.1619,1.1619,1.1619,1.1619,1.1619,1.1619,1.1619,1.1619,1.1619,1.1619,1.1552,1.1436,1.1402,1.1253,1.0961,1.09,1.088,1.0867,1.0778,1.0717,1.0717,1.0717,1.0717,1.0717,1.0717,1.0717,1.0717,1.0717,1.0717,1.0717,1.0717,1.0717,1.0717,1.0717,1.0717,1.0717,1.0717,1.0717,1.0717,1.0717,1.0717,1.0717,1.0717,1.0717,1.0717,1.0717,1.0717,1.0717,1.0784,1.0784,1.0916,1.1247,1.138,1.1512,1.185,1.2173,1.2371,1.2371,1.2634,1.2774,1.2774,1.2774,1.2774,1.2774,1.2774,1.3293,1.4455,1.6138,1.7496,1.8588,2.0259,2.1109,2.1109,2.1109,2.1109,2.1109,2.1109,2.1109,0.1894,0.1885,0.1883,0.1866,0.1864,0.0,0.0,0.172,0.1705,0.1944,0.1916,0.1889,0.2077,0.2143,0.2147,0.2192,0.2263,0.2333,0.2394,0.2467,0.2514,0.2514,0.25,0.2485,0.247,0.5295,0.7656,0.917,1.0709,1.1619,1.1619,1.1545,1.1538,1.1619,1.1545,1.1545,1.1619,1.1619,1.1619,1.1619,1.1619,1.1619,1.1619,1.1538,1.1463,1.1382,1.1233,1.1084,1.0873,1.0799,1.0766,1.0759,1.0751,1.0717,1.0717,1.0717,1.0717,1.0717,1.0717,1.0717,1.0717,1.0717,1.0717,1.0717,1.0717,1.0717,1.0717,1.0717,1.0717,1.0717,1.0717,1.0717,1.0717,1.0717,1.0717,1.0717,1.0717,1.0717,1.0717,1.0717,1.0717,1.0717,1.0717,1.0717,1.0784,1.0916,1.1115,1.1247,1.1446,1.1975,1.2305,1.2305,1.2576,1.2774,1.2774,1.2774,1.2774,1.2774,1.2774,1.3095,1.3809,1.5879,1.7946,2.0005,2.0716,2.1109,2.1109,2.1109,2.1109,2.1109,2.1109,2.1109,0.2038,0.1903,0.19,0.1888,0.1872,0.1801,0.0,0.0,0.0,0.197,0.1975,0.199,0.2061,0.2035,0.2026,0.2099,0.2168,0.2219,0.2244,0.2372,0.2469,0.2487,0.2493,0.2489,0.247,0.524,0.8188,1.0985,1.1377,1.1572,1.1572,1.1457,1.1436,1.1531,1.1443,1.145,1.1572,1.1606,1.1619,1.1619,1.1619,1.1606,1.1572,1.145,1.1362,1.1294,1.105,1.086,1.0826,1.0772,1.0717,1.0717,1.0717,1.0717,1.0717,1.0717,1.0717,1.0717,1.0717,1.0717,1.0717,1.0717,1.0717,1.0717,1.0717,1.0717,1.0717,1.0717,1.0717,1.0717,1.0717,1.0717,1.0717,1.0717,1.0717,1.0717,1.0717,1.0717,1.0717,1.0717,1.0717,1.0717,1.0717,1.0717,1.0717,1.0717,1.0916,1.1115,1.1115,1.1776,1.2173,1.2173,1.2576,1.2774,1.2774,1.2774,1.2774,1.2774,1.2774,1.303,1.3613,1.6333,1.8844,2.1046,2.1109,2.1109,2.1109,2.1109,2.1109,2.1109,2.1109,2.1109,0.2344,0.1966,0.1954,0.1899,0.1903,0.19,0.1823,0.0,0.1881,0.1805,0.0,0.194,0.1949,0.0,0.0,0.1955,0.2029,0.2086,0.2154,0.2198,0.2305,0.2384,0.2417,0.2443,0.2466,0.5124,0.7599,0.9446,1.0702,1.1416,1.1416,1.1402,1.1335,1.1219,1.1328,1.1402,1.1416,1.1552,1.1619,1.1619,1.1619,1.1552,1.1416,1.1402,1.1246,1.0927,1.0894,1.0806,1.0744,1.0724,1.0717,1.0717,1.0717,1.0717,1.0717,1.0717,1.0717,1.0717,1.0717,1.0717,1.0717,1.0717,1.0717,1.0717,1.0717,1.0717,1.0717,1.0717,1.0717,1.0717,1.0717,1.0717,1.0717,1.0717,1.0717,1.0717,1.0717,1.0717,1.0717,1.0717,1.0717,1.0717,1.0717,1.0717,1.0717,1.0717,1.0717,1.0784,1.0784,1.138,1.185,1.185,1.2444,1.2774,1.2774,1.2774,1.2774,1.2774,1.2774,1.394,1.6398,1.9164,2.0779,2.1109,2.1109,2.1109,2.1109,2.1109,2.1109,2.1109,2.1109,2.1109,0.3463,0.3694,0.386,0.2281,0.2443,0.2773,0.2005,0.1827,0.1839,0.1862,0.0,0.0,0.0,0.0,0.0,0.0,0.194,0.1988,0.1988,0.2075,0.218,0.2289,0.2312,0.2976,0.4735,0.6101,0.7801,1.0339,1.1069,1.1389,1.1389,1.1307,1.1226,1.1234,1.1226,1.1301,1.1389,1.1545,1.1619,1.1619,1.1531,1.145,1.1389,1.1212,1.1002,1.0873,1.0786,1.0778,1.0717,1.0717,1.0717,1.0717,1.0717,1.0717,1.0717,1.0717,1.0717,1.0717,1.0717,1.0717,1.0717,1.0717,1.0717,1.0717,1.0717,1.0717,1.0717,1.0717,1.0717,1.0717,1.0717,1.0717,1.0717,1.0717,1.0717,1.0717,1.0717,1.0717,1.0717,1.0717,1.0717,1.0717,1.0717,1.0717,1.0717,1.0717,1.0717,1.0717,1.0717,1.1314,1.1776,1.1776,1.2371,1.2774,1.2774,1.2774,1.2774,1.2774,1.3547,1.4912,1.6915,1.8844,2.0272,2.1109,2.1109,2.1109,2.1109,2.1109,2.1109,2.1109,2.1109,2.1109,0.4936,0.5211,0.5418,0.3086,0.3155,0.3449,0.2123,0.1824,0.1832,0.1877,0.1888,0.0,0.0,0.0,0.1825,0.1809,0.0,0.1865,0.1849,0.1969,0.206,0.2181,0.2218,0.3062,0.5256,0.6206,0.765,0.9928,1.0809,1.1226,1.1267,1.1165,1.1084,1.1043,1.1118,1.1212,1.1328,1.1525,1.1619,1.1619,1.1463,1.1369,1.1321,1.1063,1.086,1.0813,1.0765,1.0717,1.0717,1.0717,1.0717,1.0717,1.0717,1.0717,1.0717,1.0717,1.0717,1.0717,1.0717,1.0717,1.0717,1.0717,1.0717,1.0717,1.0717,1.0717,1.0717,1.0717,1.0717,1.0717,1.0717,1.0717,1.0717,1.0717,1.0717,1.0717,1.0717,1.0717,1.0717,1.0717,1.0717,1.0717,1.0717,1.0717,1.0717,1.0717,1.0717,1.0717,1.0717,1.1247,1.1644,1.1776,1.2312,1.2708,1.2774,1.2774,1.2964,1.3358,1.4716,1.6073,1.7496,1.8844,2.0068,2.1109,2.1109,2.1109,2.1109,2.1109,2.1109,2.1109,2.1109,2.1109,0.6635,0.6159,0.5737,0.4361,0.3923,0.3442,0.2092,0.1842,0.1883,0.1885,0.1954,0.2014,0.2014,0.2014,0.1994,0.1877,0.1869,0.0,0.0,0.187,0.1936,0.212,0.2147,0.2258,0.2362,0.4778,0.6488,0.6847,0.9265,1.0806,1.0887,1.0887,1.082,1.0738,1.1009,1.1234,1.1241,1.147,1.1619,1.1619,1.1463,1.1314,1.1234,1.1016,1.0799,1.0724,1.0724,1.0717,1.0717,1.0717,1.0717,1.0717,1.0717,1.0717,1.0717,1.0717,1.0717,1.0717,1.0717,1.0717,1.0717,1.0717,1.0717,1.0717,1.0717,1.0717,1.0717,1.0717,1.0717,1.0717,1.0717,1.0717,1.0717,1.0717,1.0717,1.0717,1.0717,1.0717,1.0717,1.0717,1.0717,1.0717,1.0717,1.0717,1.0717,1.0717,1.0717,1.0717,1.0717,1.0982,1.138,1.1784,1.2114,1.2444,1.2774,1.2774,1.335,1.4782,1.6138,1.756,1.8908,2.0272,2.1046,2.1109,2.1109,2.1109,2.1109,2.1109,2.1109,2.1109,2.1109,2.1109,0.0,0.0,0.8189,0.5945,0.586,0.5776,0.3602,0.3128,0.2892,0.209,0.197,0.2019,0.2019,0.2019,0.1999,0.194,0.1871,0.185,0.0,0.1791,0.1879,0.1939,0.2008,0.2439,0.3413,0.5192,0.6688,0.7776,0.9539,1.0636,1.0785,1.0799,1.0772,1.0724,1.1009,1.1234,1.1234,1.1463,1.1619,1.1613,1.1362,1.1212,1.122,1.0907,1.0772,1.0717,1.0717,1.0717,1.0717,1.0717,1.0717,1.0717,1.0717,1.0717,1.0717,1.0717,1.0717,1.0717,1.0717,1.0717,1.0717,1.0717,1.0717,1.0717,1.0717,1.0717,1.0717,1.0717,1.0717,1.0717,1.0717,1.0717,1.0717,1.0717,1.0717,1.0717,1.0717,1.0717,1.0717,1.0717,1.0717,1.0717,1.0717,1.0717,1.0717,1.0717,1.0717,1.0717,1.0717,1.0982,1.138,1.1784,1.2107,1.2437,1.2774,1.2774,1.303,1.349,1.4847,1.5814,1.6268,1.8524,1.9686,1.9686,2.0652,2.1109,2.1109,2.1109,2.1109,2.1109,2.1109,2.1109,0.9392,0.9678,0.0,0.7515,0.7413,0.7308,0.5193,0.4664,0.4453,0.372,0.3551,0.3615,0.3634,0.3222,0.2791,0.2708,0.2248,0.1906,0.0,0.1776,0.1851,0.1883,0.193,0.2524,0.3927,0.5261,0.6643,0.8253,0.9513,1.0344,1.0555,1.0609,1.0636,1.0636,1.0982,1.1234,1.1234,1.1463,1.1619,1.1613,1.1307,1.1234,1.122,1.0853,1.0717,1.0717,1.0717,1.0717,1.0717,1.0717,1.0717,1.0717,1.0717,1.0717,1.0717,1.0717,1.0717,1.0717,1.0717,1.0717,1.0717,1.0717,1.0717,1.0717,1.0717,1.0717,1.0717,1.0717,1.0717,1.0717,1.0717,1.0717,1.0717,1.0717,1.0717,1.0717,1.0717,1.0717,1.0717,1.0717,1.0717,1.0717,1.0717,1.0717,1.0717,1.0717,1.0717,1.0717,1.0717,1.0898,1.1245,1.1718,1.2035,1.2375,1.2774,1.2774,1.303,1.3555,1.439,1.5108,1.5619,1.7806,1.8972,1.8972,2.0399,2.1109,2.1109,2.1109,2.1109,2.1109,2.1109,2.1109]}]]